[[{"header":{"parameterUnit":"m.s-1","parameterCategory":1,"la1":31.0,"la2":29.5877,"lo1":-88.7671,"lo2":-86.6584,"dy":0.0162,"dx":0.0185,"nx":115,"ny":88,"refTime":"2023-08-30T06:00:00:Z","depth":0,"parameterNumber":2,"parameterNumberName":"U-component_of_WINDS"},"data":[0.0,0.0,0.0,0.0,0.0,0.0,0.0,0.0,0.0,0.0,0.0,0.0,0.0,0.0,0.0,0.0,0.0,0.0,0.0,0.0,0.0,0.0,0.0,0.0,0.0,0.0,0.0,0.0,0.0,0.0,0.0,0.0,0.0,0.0,0.0,0.0,0.0,0.0,0.0,0.0,0.0,0.0,0.0,0.0,0.0,0.0,0.0,0.0,0.0,0.0,0.0,0.0,0.0,0.0,0.0,0.0,0.0,0.0,0.0,0.0,0.0,0.0,0.0,0.0,0.0,0.0,0.0,0.0,0.0,0.0,0.0,0.0,0.0,0.0,0.0,0.0,0.0,0.0,0.0,0.0,0.0,0.0,0.0,0.0,0.0,0.0,0.0,0.0,0.0,0.0,0.0,0.0,0.0,0.0,0.0,0.0,0.0,0.0,0.0,0.0,0.0,0.0,0.0,0.0,0.0,0.0,0.0,0.0,0.0,0.0,0.0,0.0,0.0,0.0,0.0,0.0,0.0,0.0,0.0,0.0,0.0,0.0,0.0,0.0,0.0,0.0,0.0,0.0,0.0,0.0,0.0,0.0,0.0,0.0,0.0,0.0,0.0,0.0,0.0,0.0,0.0,0.0,0.0,0.0,0.0,0.0,0.0,0.0,0.0,0.0,0.0,0.0,0.0,0.0,0.0,0.0,0.0,0.0,0.0,0.0,0.0,0.0,0.0,0.0,0.0,0.0,0.0,0.0,0.0,0.0,0.0,0.0,0.0,0.0,0.0,0.0,0.0,0.0,0.0,0.0,0.0,0.0,0.0,0.0,0.0,0.0,0.0,0.0,0.0,0.0,0.0,0.0,0.0,0.0,0.0,0.0,0.0,0.0,0.0,0.0,0.0,0.0,0.0,0.0,0.0,0.0,0.0,0.0,0.0,0.0,0.0,0.0,0.0,0.0,0.0,0.0,0.0,0.0,0.0,0.0,0.0,0.0,0.0,0.0,0.0,0.0,0.0,0.0,0.0,0.0,0.0,0.0,0.0,0.0,0.0,0.0,0.0,0.0,0.0,0.0,0.0,0.0,0.0,0.0,0.0,0.0,0.0,0.0,0.0,0.0,0.0,0.0,0.0,0.0,0.0,0.0,0.0,0.0,0.0,0.0,0.0,0.0,0.0,0.0,0.0,0.0,0.0,0.0,0.0,0.0,0.0,0.0,0.0,0.0,0.0,0.0,0.0,0.0,0.0,0.0,0.0,0.0,0.0,0.0,0.0,0.0,0.0,0.0,0.0,0.0,0.0,0.0,0.0,0.0,0.0,0.0,0.0,0.0,0.0,0.0,0.0,0.0,0.0,0.0,0.0,0.0,0.0,0.0,0.0,0.0,0.0,0.0,0.0,0.0,0.0,0.0,0.0,0.0,0.0,0.0,0.0,0.0,0.0,0.0,0.0,0.0,0.0,0.0,0.0,0.0,0.0,0.0,0.0,0.0,0.0,0.0,0.0,0.0,0.0,0.0,0.0,0.0,0.0,0.0,0.0,0.0,0.0,0.0,0.0,0.0,0.0,0.0,0.0,0.0,0.0,0.0,0.0,0.0,0.0,0.0,0.0,0.0,0.0,0.0,0.0,0.0,0.0,0.0,0.0,0.0,0.0,0.0,0.0,0.0,0.0,0.0,0.0,0.0,0.0,0.0,0.0,0.0,0.0,0.0,0.0,0.0,0.0,0.0,0.0,0.0,0.0,0.0,0.0,0.0,0.0,0.0,0.0,0.0,0.0,0.0,0.0,0.0,0.0,0.0,0.0,0.0,0.0,0.0,0.0,0.0,0.0,0.0,0.0,0.0,0.0,0.0,0.0,0.0,0.0,0.0,0.0,0.0,0.0,0.0,0.0,0.0,0.0,0.0,0.0,0.0,0.0,0.0,0.0,0.0,0.0,0.0,0.0,0.0,0.0,0.0,0.0,0.0,0.0,0.0,0.0,0.0,0.0,0.0,0.0,0.0,0.0,0.0,0.0,0.0,0.0,0.0,0.0,0.0,0.0,0.0,0.0,0.0,0.0,0.0,0.0,0.0,0.0,0.0,0.0,0.0,0.0,0.0,0.0,0.0,0.0,0.0,0.0,0.0,0.0,0.0,0.0,0.0,0.0,0.0,0.0,0.0,0.0,0.0,0.0,0.0,0.0,0.0,0.0,0.0,0.0,0.0,0.0,0.0,0.0,0.0,0.0,0.0,0.0,0.0,0.0,0.0,0.0,0.0,0.0,0.0,0.0,0.0,0.0,0.0,0.0,0.0,0.0,0.0,0.0,0.0,0.0,0.0,0.0,0.0,0.0,0.0,0.0,0.0,0.0,0.0,0.0,0.0,0.0,0.0,0.0,0.0,0.0,0.0,0.0,0.0,0.0,0.0,0.0,0.0,0.0,0.0,0.0,0.0,0.0,0.0,0.0,0.0,0.0,0.0,0.0,0.0,0.0,0.0,0.0,0.0,0.0,0.0,0.0,0.0,0.0,0.0,0.0,0.0,0.0,0.0,0.0,0.0,0.0,0.0,0.0,0.0,0.0,0.0,0.0,0.0,0.0,0.0,0.0,0.0,0.0,0.0,0.0,0.0,0.0,0.0,0.0,0.0,0.0,0.0,0.0,0.0,0.0,0.0,0.0,0.0,0.0,0.0,0.0,0.0,0.0,0.0,0.0,0.0,0.0,0.0,0.0,0.0,0.0,0.0,0.0,0.0,0.0,0.0,0.0,0.0,0.0,0.0,0.0,0.0,0.0,0.0,0.0,0.0,0.0,0.0,0.0,0.0,0.0,0.0,0.0,0.0,0.0,0.0,0.0,0.0,0.0,0.0,0.0,0.0,0.0,0.0,0.0,0.0,0.0,0.0,0.0,0.0,0.0,0.0,0.0,0.0,0.0,0.0,0.0,0.0,0.0,0.0,0.0,0.0,0.0,0.0,0.0,0.0,0.0,0.0,0.0,0.0,0.0,0.0,0.0,0.0,0.0,0.0,0.0,0.0,0.0,0.0,0.0,0.0,0.0,0.0,0.0,0.0,0.0,0.0,0.0,0.0,0.0,0.0,0.0,0.0,0.0,0.0,0.0,0.0,0.0,0.0,0.0,0.0,0.0,0.0,0.0,0.0,0.0,0.0,0.0,0.0,0.0,0.0,0.0,0.0,0.0,0.0,0.0,0.0,0.0,0.0,0.0,0.0,0.0,0.0,0.0,0.0,0.0,0.0,0.0,0.0,0.0,0.0,0.0,0.0,0.0,0.0,0.0,0.0,0.0,0.0,0.0,0.0,0.0,0.0,0.0,0.0,0.0,0.0,0.0,0.0,0.0,0.0,0.0,0.0,0.0,0.0,0.0,0.0,0.0,0.0,0.0,0.0,0.0,0.0,0.0,0.0,0.0,0.0,0.0,0.0,0.0,0.0,0.0,0.0,0.0,0.0,0.0,0.0,0.0,0.0,0.0,0.0,0.0,0.0,0.0,0.0,0.0,0.0,0.0,0.0,0.0,0.0,0.0,0.0,0.0,0.0,0.0,0.0,0.0,0.0,0.0,0.0,0.0,0.0,0.0,0.0,0.0,0.0,0.0,0.0,0.0,0.0,0.0,0.0,0.0,0.0,0.0,0.0,0.0,0.0,0.0,0.0,0.0,0.0,0.0,0.0,0.0,0.0,0.0,0.0,0.0,0.0,0.0,0.0,0.0,0.0,0.0,0.0,0.0,0.0,0.0,0.0,0.0,0.0,0.0,0.0,0.0,0.0,0.0,0.0,0.0,0.0,0.0,0.0,0.0,0.0,0.0,0.0,0.0,0.0,0.0,0.0,0.0,0.0,0.0,0.0,0.0,0.0,0.0,0.0,0.0,0.0,0.0,0.0,0.0,0.0,0.0,0.0,0.0,0.0,0.0,0.0,0.0,0.0,0.0,0.0,0.0,0.0,0.0,0.0,0.0,0.0,0.0,0.0,0.0,0.0,0.0,0.0,0.0,0.0,0.0,0.0,0.0,0.0,0.0,0.0,0.0,0.0,0.0,0.0,0.0,0.0,0.0,0.0,0.0,0.0,0.0,0.0,0.0,0.0,0.0,0.0,0.0,0.0,0.0,0.0,0.0,0.0,0.0,0.0,0.0,0.0,0.0,0.0,0.0,0.0,0.0,0.0,0.0,0.0,0.0,0.0,0.0,0.0,0.0,0.0,0.0,0.0,0.0,0.0,0.0,0.0,0.0,0.0,0.0,0.0,0.0,0.0,0.0,0.0,0.0,0.0,0.0,0.0,0.4313,0.0,0.0,0.0,0.0,0.0,0.0,0.0,0.0,0.0,0.0,0.0,0.0,0.0,0.0,0.0,0.0,0.0,0.0,0.0,0.0,0.0,0.0,0.0,0.0,0.0,0.0,0.0,0.0,0.0,0.0,0.0,0.0,0.0,0.0,0.0,0.0,0.0,0.0,0.0,0.0,0.0,0.0,0.0,0.0,0.0,0.0,0.0,0.0,0.0,0.0,0.0,0.0,0.0,0.0,0.0,0.0,0.0,0.0,0.0,0.0,0.0,0.0,0.0,0.0,0.0,0.0,0.0,0.0,0.0,0.0,0.0,0.0,0.0,0.0,0.0,0.0,0.0,0.0,0.0,0.0,0.0,0.0,0.0,0.0,0.0,0.0,0.0,0.0,0.0,0.0,0.0,0.0,0.0,0.0,0.0,0.0,0.0,0.0,0.0,0.0,0.0,0.0,0.0,0.0,0.0,0.0,0.0,0.0,0.0,0.0,0.4872,0.4754,0.4594,0.4441,0.4242,0.0,0.0,0.0,0.0,0.0,0.0,0.0,0.0,0.0,0.0,0.0,0.0,0.0,0.0,0.0,0.0,0.0,0.0,0.0,0.0,0.0,0.0,0.0,0.0,0.0,0.0,0.0,0.0,0.0,0.0,0.0,0.0,0.0,0.0,0.0,0.0,0.0,0.0,0.0,0.0,0.0,0.0,0.0,0.0,0.0,0.0,0.0,0.0,0.0,0.0,0.0,0.0,0.0,0.0,0.0,0.0,0.0,0.0,0.0,0.0,0.0,0.0,0.0,0.0,0.0,0.0,0.0,0.0,0.0,0.0,0.0,0.0,0.0,0.0,0.0,0.0,0.0,0.0,0.0,0.0,0.0,0.0,0.0,0.0,0.0,0.0,0.0,0.0,0.0,0.0,0.0,0.0,0.0,0.0,0.0,0.0,0.0,0.0,0.0,0.0,0.0,0.0,0.0,0.0,0.0,0.0,0.0,0.0,0.0,0.0,0.0,0.0,0.4475,0.4289,0.4115,0.0,0.0,0.0,0.0,0.0,0.0,0.0,0.0,0.0,0.0,0.0,0.0,0.0,0.0,0.0,0.0,0.0,0.0,0.0,0.0,0.0,0.0,0.0,0.0,0.0,0.0,0.0,0.0,0.0,0.0,0.0,0.0,0.0,0.0,0.0,0.0,0.0,0.0,0.0,0.0,0.0,0.0,0.0,0.0,0.0,0.0,0.0,0.0,0.0,0.0,0.0,0.0,0.0,0.0,0.0,0.0,0.0,0.0,0.0,0.0,0.0,0.0,0.0,0.0,0.0,0.0,0.0,0.0,0.0,0.0,0.0,0.0,0.0,0.0,0.0,0.0,0.0,0.0,0.0,0.0,0.0,0.0,0.0,0.0,0.0,0.0,0.0,0.0,0.0,0.0,0.0,0.0,0.0,0.0,0.0,0.0,0.0,0.0,0.0,0.0,0.0,0.0,0.0,0.0,0.0,0.0,0.0,0.0,0.0,0.0,0.4665,0.4527,0.4384,0.0,0.3863,0.0,0.0,0.0,0.0,0.0,0.0,0.0,0.0,0.0,0.0,0.0,0.0,0.0,0.0,0.0,0.0,0.0,0.0,0.0,0.0,0.0,0.0,0.0,0.0,0.0,0.0,0.0,0.0,0.0,0.0,0.0,0.0,0.0,0.0,0.0,0.0,0.0,0.0,0.0,0.0,0.0,0.0,0.0,0.0,0.0,0.0,0.0,0.0,0.0,0.0,0.0,0.0,0.0,0.0,0.0,0.0,0.0,0.0,0.0,0.0,0.0,0.0,0.0,0.0,0.0,0.0,0.0,0.0,0.0,0.0,0.0,0.0,0.0,0.0,0.0,0.0,0.0,0.0,0.0,0.0,0.0,0.0,0.0,0.0,0.0,0.0,0.0,0.0,0.0,0.0,0.0,0.0,0.0,0.0,0.0,0.0,0.0,0.0,0.0,0.0,0.0,0.0,0.0,0.0,0.0,0.0,0.0,0.0,0.0,0.0,0.4565,0.4488,0.425,0.4011,0.0,0.0,0.0,0.0,0.0,0.0,0.0,0.0,0.0,0.0,0.0,0.0,0.0,0.0,0.0,0.0,0.0,0.0,0.0,0.0,0.0,0.0,0.0,0.0,0.0,0.0,0.0,0.0,0.0,0.0,0.0,0.0,0.0,0.0,0.0,0.0,0.0,0.0,0.0,0.0,0.0,0.0,0.0,0.0,0.0,0.0,0.0,0.0,0.0,0.0,0.0,0.0,0.0,0.0,0.0,0.0,0.0,0.0,0.0,0.0,0.0,0.0,0.0,0.0,0.0,0.0,0.0,0.0,0.0,0.0,0.0,0.0,0.0,0.0,0.0,0.0,0.0,0.0,0.0,0.0,0.0,0.0,0.0,0.0,0.0,0.0,0.0,0.0,0.0,0.0,0.0,0.0,0.0,0.0,0.0,0.0,0.0,0.0,0.0,0.0,0.0,0.0,0.0,0.0,0.0,0.0,0.0,0.0,0.0,0.0,0.4524,0.4406,0.4354,0.4117,0.3897,0.3727,0.0,0.0,0.0,0.0,0.0,0.0,0.0,0.0,0.0,0.0,0.0,0.0,0.0,0.0,0.0,0.0,0.0,0.0,0.0,0.0,0.0,0.0,0.0,0.0,0.0,0.0,0.0,0.0,0.0,0.0,0.0,0.0,0.0,0.0,0.0,0.0,0.0,0.0,0.0,0.0,0.0,0.0,0.0,0.0,0.0,0.0,0.0,0.0,0.0,0.0,0.0,0.0,0.0,0.0,0.0,0.0,0.0,0.0,0.0,0.0,0.0,0.0,0.0,0.0,0.0,0.0,0.0,0.0,0.0,0.0,0.0,0.0,0.0,0.0,0.0,0.0,0.0,0.0,0.0,0.0,0.0,0.0,0.0,0.0,0.0,0.0,0.0,0.0,0.0,0.0,0.0,0.0,0.0,0.0,0.0,0.0,0.0,0.0,0.0,0.0,0.0,0.0,0.0,0.0,0.0,0.0,0.0,0.0,0.4495,0.4384,0.4219,0.4029,0.3931,0.3793,0.0,0.0,0.0,0.0,0.0,0.0,0.0,0.0,0.0,0.0,0.0,0.0,0.0,0.0,0.0,0.0,0.0,0.0,0.0,0.0,0.0,0.0,0.0,0.0,0.0,0.0,0.0,0.0,0.0,0.0,0.0,0.0,0.0,0.0,0.0,0.0,0.0,0.0,0.0,0.0,0.0,0.0,0.0,0.0,0.0,0.0,0.0,0.0,0.0,0.0,0.0,0.0,0.0,0.0,0.0,0.0,0.0,0.0,0.0,0.0,0.0,0.0,0.0,0.0,0.0,0.0,0.0,0.0,0.0,0.0,0.0,0.0,0.0,0.0,0.0,0.0,0.0,0.0,0.0,0.0,0.0,0.0,0.0,0.0,0.0,0.0,0.0,0.0,0.0,0.0,0.0,0.0,0.0,0.0,0.0,0.0,0.0,0.0,0.0,0.0,0.0,0.0,0.0,0.0,0.0,0.0,0.0,0.0,0.0,0.4364,0.4271,0.4145,0.3942,0.3825,0.3689,0.0,0.0,0.0,0.0,0.0,0.0,0.0,0.0,0.0,0.0,0.0,0.0,0.0,0.0,0.0,0.0,0.0,0.0,0.0,0.0,0.0,0.0,0.0,0.0,0.0,0.0,0.0,0.0,0.0,0.0,0.0,0.0,0.0,0.0,0.0,0.0,0.0,0.0,0.0,0.0,0.0,0.0,0.0,0.0,0.0,0.0,0.0,0.0,0.0,0.0,0.0,0.0,0.0,0.0,0.0,0.0,0.0,0.0,0.0,0.0,0.0,0.0,0.0,0.0,0.0,0.0,0.0,0.0,0.0,0.0,0.0,0.0,0.0,0.0,0.0,0.0,0.0,0.0,0.0,0.0,0.0,0.0,0.0,0.0,0.0,0.0,0.0,0.0,0.0,0.0,0.0,0.0,0.0,0.0,0.0,0.0,0.0,0.0,0.0,0.0,0.0,0.0,0.0,0.0,0.0,0.0,0.0,0.0,0.0,0.4191,0.0,0.4024,0.0,0.371,0.3569,0.0,0.0,0.0,0.0,0.0,0.0,0.0,0.0,0.0,0.0,0.0,0.0,0.0,0.0,0.0,0.0,0.0,0.0,0.0,0.0,0.0,0.0,0.0,0.0,0.0,0.0,0.0,0.0,0.0,0.0,0.0,0.0,0.0,0.0,0.0,0.0,0.0,0.0,0.0,0.0,0.0,0.0,0.0,0.0,0.0,0.0,0.0,0.0,0.0,0.0,0.0,0.0,0.0,0.0,0.0,0.0,0.0,0.0,0.0,0.0,0.0,0.0,0.0,0.0,0.0,0.0,0.0,0.0,0.0,0.0,0.0,0.0,0.0,0.0,0.0,0.0,0.0,0.0,0.0,0.0,0.0,0.0,0.0,0.0,0.0,0.0,0.0,0.0,0.0,0.0,0.0,0.0,0.0,0.0,0.0,0.0,0.0,0.0,0.0,0.0,0.0,0.0,0.0,0.0,0.0,0.0,0.0,0.0,0.3921,0.4001,0.4001,0.3897,0.3699,0.3563,0.3411,0.0,0.0,0.0,0.0,0.0,0.0,0.0,0.0,0.0,0.0,0.0,0.0,0.0,0.0,0.0,0.0,0.0,0.0,0.0,0.0,0.0,0.0,0.0,0.0,0.0,0.0,0.0,0.0,0.0,0.0,0.0,0.0,0.0,0.0,0.0,0.0,0.0,0.0,0.0,0.0,0.0,0.0,0.0,0.0,0.0,0.0,0.0,0.0,0.0,0.0,0.0,0.0,0.0,0.0,0.0,0.0,0.0,0.0,0.0,0.0,0.0,0.0,0.0,0.0,0.0,0.0,0.0,0.0,0.0,0.0,0.0,0.0,0.0,0.0,0.0,0.0,0.0,0.0,0.0,0.0,0.0,0.0,0.0,0.0,0.0,0.0,0.0,0.0,0.0,0.0,0.0,0.0,0.0,0.0,0.0,0.0,0.0,0.0,0.0,0.0,0.0,0.0,0.0,0.0,0.0,0.0,0.0,0.0,0.0,0.3853,0.386,0.3769,0.358,0.3429,0.3302,0.0,0.0,0.0,0.0,0.0,0.0,0.0,0.0,0.0,0.0,0.0,0.0,0.0,0.0,0.0,0.0,0.0,0.0,0.0,0.0,0.0,0.0,0.0,0.0,0.0,0.0,0.0,0.0,0.0,0.0,0.0,0.0,0.0,0.0,0.0,0.0,0.0,0.0,0.0,0.0,0.0,0.0,0.0,0.0,0.0,0.0,0.0,0.0,0.0,0.0,0.0,0.0,0.0,0.0,0.0,0.0,0.0,0.0,0.0,0.0,0.0,0.0,0.0,0.0,0.0,0.0,0.0,0.0,0.0,0.0,0.0,0.0,0.0,0.0,0.0,0.0,0.0,0.0,0.0,0.0,0.0,0.0,0.0,0.0,0.0,0.0,0.0,0.0,0.0,0.0,0.0,0.0,0.0,0.0,0.0,0.0,0.0,0.0,0.0,0.0,0.0,0.0,0.0,0.0,0.0,0.0,0.0,0.0,0.0,0.3648,0.3776,0.3786,0.3686,0.3476,0.3331,0.3202,0.0,0.0,0.0,0.0,0.0,0.0,0.0,0.0,0.0,0.0,0.0,0.0,0.0,0.0,0.0,0.0,0.0,0.0,0.0,0.0,0.0,0.0,0.0,0.0,0.0,0.0,0.0,0.0,0.0,0.0,0.0,0.0,0.0,0.0,0.0,0.0,0.0,0.0,0.0,0.0,0.0,0.0,0.0,0.0,0.0,0.0,0.0,0.0,0.0,0.0,0.0,0.0,0.0,0.0,0.0,0.0,0.0,0.0,0.0,0.0,0.0,0.0,0.0,0.0,0.0,0.0,0.0,0.0,0.0,0.0,0.0,0.0,0.0,0.0,0.0,0.0,0.0,0.0,0.0,0.0,0.0,0.0,0.0,0.0,0.0,0.0,0.0,0.0,0.0,0.0,0.0,0.0,0.0,0.0,0.0,0.0,0.0,0.0,0.0,0.0,0.0,0.0,0.0,0.0,0.0,0.0,0.0,0.0,0.3392,0.3712,0.3905,0.396,0.365,0.3381,0.0,0.0,0.0,0.0,0.0,0.0,0.0,0.0,0.0,0.0,0.0,0.0,0.0,0.0,0.0,0.0,0.0,0.0,0.0,0.0,0.0,0.0,0.0,0.0,0.0,0.0,0.0,0.0,0.0,0.0,0.0,0.0,0.0,0.0,0.0,0.0,0.0,0.0,0.0,0.0,0.0,0.0,0.0,0.0,0.0,0.0,0.0,0.0,0.0,0.0,0.0,0.0,0.0,0.0,0.0,0.0,0.0,0.0,0.0,0.0,0.0,0.0,0.0,0.0,0.0,0.0,0.0,0.0,0.0,0.0,0.0,0.0,0.0,0.0,0.0,0.0,0.0,0.0,0.0,0.0,0.0,0.0,0.0,0.0,0.0,0.0,0.0,0.0,0.0,0.0,0.0,0.0,0.0,0.0,0.0,0.0,0.0,0.0,0.0,0.0,0.0,0.0,0.0,0.0,0.0,0.0,0.0,0.0,0.0,0.3335,0.3554,0.3711,0.3771,0.3462,0.3199,0.0,0.0,0.0,0.0,0.0,0.0,0.0,0.0,0.0,0.0,0.0,0.0,0.0,0.0,0.0,0.0,0.0,0.0,0.0,0.0,0.0,0.0,0.0,0.0,0.0,0.0,0.0,0.0,0.0,0.0,0.0,0.0,0.0,0.0,0.0,0.0,0.0,0.0,0.0,0.0,0.0,0.0,0.0,0.0,0.0,0.0,0.0,0.0,0.0,0.0,0.0,0.0,0.0,0.0,0.0,0.0,0.0,0.0,0.0,0.0,0.0,0.0,0.0,0.0,0.0,0.0,0.0,0.0,0.0,0.0,0.0,0.0,0.0,0.0,0.0,0.0,0.0,0.0,0.0,0.0,0.0,0.0,0.0,0.0,0.0,0.0,0.0,0.0,0.0,0.0,0.0,0.0,0.0,0.0,0.0,0.0,0.0,0.0,0.0,0.0,0.0,0.0,0.0,0.0,0.0,0.0,0.0,0.0,0.2825,0.3055,0.3323,0.3477,0.3501,0.3327,0.312,0.0,0.0,0.0,0.0,0.0,0.0,0.0,0.0,0.0,0.0,0.0,0.0,0.0,0.0,0.0,0.0,0.0,0.0,0.0,0.0,0.0,0.0,0.0,0.0,0.0,0.0,0.0,0.0,0.0,0.0,0.0,0.0,0.0,0.0,0.0,0.0,0.0,0.0,0.0,0.0,0.0,0.0,0.0,0.0,0.0,0.0,0.0,0.0,0.0,0.0,0.0,0.0,0.0,0.0,0.0,0.0,0.0,0.0,0.0,0.0,0.0,0.0,0.0,0.0,0.0,0.0,0.0,0.0,0.0,0.0,0.0,0.0,0.0,0.0,0.0,0.0,0.0,0.0,0.0,0.0,0.0,0.0,0.0,0.0,0.0,0.0,0.0,0.0,0.0,0.0,0.0,0.0,0.0,0.0,0.0,0.0,0.0,0.0,0.0,0.0,0.0,0.0,0.0,0.0,0.0,0.0,0.0,0.0,0.2574,0.2639,0.301,0.3179,0.3118,0.3196,0.3055,0.0,0.0,0.0,0.0,0.0,0.0,0.0,0.0,0.0,0.0,0.0,0.0,0.0,0.0,0.0,0.0,0.0,0.0,0.0,0.0,0.0,0.0,0.0,0.0,0.0,0.0,0.0,0.0,0.0,0.0,0.0,0.0,0.0,0.0,0.0,0.0,0.0,0.0,0.0,0.0,0.0,0.0,0.0,0.0,0.0,0.0,0.0,0.0,0.0,0.0,0.0,0.0,0.0,0.0,0.0,0.0,0.0,0.0,0.0,0.0,0.0,0.0,0.0,0.0,0.0,0.0,0.0,0.0,0.0,0.0,0.0,0.0,0.0,0.0,0.0,0.0,0.0,0.0,0.0,0.0,0.0,0.0,0.0,0.0,0.0,0.0,0.0,0.0,0.0,0.0,0.0,0.0,0.0,0.0,0.0,0.0,0.0,0.0,0.0,0.0,0.0,0.0,0.0,0.0,0.0,0.0,0.0,0.0,0.2179,0.2229,0.2469,0.2553,0.2504,0.2702,0.269,0.0,0.0,0.0,0.0,0.0,0.0,0.0,0.0,0.0,0.0,0.0,0.0,0.0,0.0,0.0,0.0,0.0,0.0,0.0,0.0,0.0,0.0,0.0,0.0,0.0,0.0,0.0,0.0,0.0,0.0,0.0,0.0,0.0,0.0,0.0,0.0,0.0,0.0,0.0,0.0,0.0,0.0,0.0,0.0,0.0,0.0,0.0,0.0,-0.2743,0.0,0.0,0.0,0.0,0.0,0.0,0.0,0.0,0.0,0.0,0.0,0.0,0.0,0.0,0.0,0.0,0.0,0.0,0.0,0.0,0.0,0.0,0.0,0.0,0.0,0.0,0.0,0.0,0.0,0.0,0.0,0.0,0.0,0.0,0.0,0.0,0.0,0.0,0.0,0.0,0.0,0.0,0.0,0.0,0.0,0.0,0.0,0.0,0.0,0.0,0.0,0.0,0.0,0.0,0.0,0.0,0.0,0.0,0.0,0.1731,0.1874,0.2001,0.2059,0.2023,0.2112,0.2098,0.0,0.0,0.0,0.0,0.0,0.0,0.0,0.0,0.0,0.0,0.0,0.0,0.0,0.0,0.0,0.0,0.0,0.0,0.0,0.0,0.0,0.0,0.0,0.0,0.0,0.0,0.0,0.0,0.0,0.0,0.0,0.0,0.0,0.0,0.0,0.0,0.0,0.0,0.0,0.0,0.0,0.0,0.0,0.0,0.0,0.0,0.0,0.0,0.0,0.0,0.0,0.0,0.0,0.0,0.0,0.0,0.0,0.0,0.0,0.0,0.0,0.0,0.0,0.0,0.0,0.0,0.0,0.0,0.0,0.0,0.0,0.0,0.0,0.0,0.0,0.0,0.0,0.0,0.0,0.0,0.0,0.0,0.0,0.0,0.0,0.0,0.0,0.0,0.0,0.0,0.0,0.0,0.0,0.0,0.0,0.0,0.0,0.0,0.0,0.0,0.0,0.0,0.0,0.0,0.0,0.0,0.0,0.121,0.1304,0.1477,0.1537,0.1559,0.1575,0.1442,0.144,0.1543,0.0,0.0,0.0,0.0,0.0,0.0,0.0,0.0,0.0,0.0,0.0,0.0,0.0,0.0,0.0,0.0,0.0,0.0,0.0,0.0,0.0,0.0,0.0,0.0,0.0,0.0,0.0,0.0,0.0,0.0,0.0,0.0,0.0,0.0,0.0,0.0,0.0,0.0,-0.2001,-0.2252,0.0,0.0,0.0,0.0,0.0,0.0,0.0,0.0,-0.3797,0.0,0.0,0.0,0.0,0.0,0.0,0.0,0.0,0.0,0.0,0.0,0.0,0.0,0.0,0.0,0.0,0.0,0.0,0.0,0.0,0.0,0.0,0.0,0.0,0.0,0.0,0.0,0.0,0.0,0.0,0.0,0.0,0.0,0.0,0.0,0.0,0.0,0.0,0.0,0.0,0.0,0.0,0.0,0.0,0.0,0.0,0.0,0.0,0.0,0.0,0.0,0.0,0.0,0.0,0.0,0.0,0.097,0.0864,0.0844,0.0926,0.0936,0.0958,0.0941,0.0874,0.0853,0.0875,0.0,0.0,0.0,0.0,0.0,0.0,0.0,0.0,0.0,0.0,0.0,0.0,0.0,0.0,0.0,0.0,0.0,0.0,0.0,0.0,0.0,0.0,0.0,0.0,0.0,0.0,0.0,0.0,0.0,0.0,0.0,0.0,0.0,0.0,0.0,0.0,0.0,0.0,0.0,-0.2553,-0.2648,0.0,0.0,0.0,0.0,0.0,0.0,0.0,0.0,-0.4197,0.0,0.0,0.0,0.0,0.0,0.0,0.0,0.0,0.0,0.0,0.0,0.0,0.0,0.0,0.0,0.0,0.0,0.0,0.0,0.0,0.0,0.0,0.0,0.0,0.0,0.0,0.0,0.0,0.0,0.0,0.0,0.0,0.0,0.0,0.0,0.0,0.0,0.0,0.0,0.0,0.0,0.0,0.0,0.0,0.0,0.0,0.0,0.0,0.0,0.0,0.0,0.0,0.0,0.0,0.0,0.0593,0.0485,0.0475,0.0537,0.0471,0.0437,0.0437,0.0336,0.0286,0.0,0.0,0.0,0.0,0.0,0.0,0.0,0.0,0.0,0.0,0.0,0.0,0.0,0.0,0.0,0.0,0.0,0.0,0.0,0.0,0.0,0.0,0.0,0.0,0.0,0.0,0.0,0.0,0.0,0.0,0.0,0.0,0.0,0.0,0.0,0.0,0.0,0.0,0.0,0.0,-0.2767,-0.2869,-0.2907,0.0,0.0,0.0,0.0,0.0,0.0,-0.4523,-0.4602,0.0,0.0,0.0,0.0,0.0,0.0,0.0,0.0,0.0,0.0,0.0,0.0,0.0,0.0,0.0,0.0,0.0,0.0,0.0,0.0,0.0,0.0,0.0,0.0,0.0,0.0,0.0,0.0,0.0,0.0,0.0,0.0,0.0,0.0,0.0,0.0,0.0,0.0,0.0,0.0,0.0,0.0,0.0,0.0,0.0,0.0,0.0,0.0,0.0,0.0,0.0,0.0,0.0,0.0,0.0,0.01,0.0032,0.0016,0.0067,-0.0017,-0.0084,-0.0084,-0.0185,-0.0252,0.0,0.0,0.0,0.0,0.0,0.0,0.0,0.0,0.0,0.0,0.0,0.0,0.0,0.0,0.0,0.0,0.0,0.0,0.0,0.0,0.0,0.0,0.0,0.0,0.0,0.0,0.0,0.0,0.0,0.0,0.0,0.0,0.0,0.0,0.0,0.0,0.0,0.0,0.0,0.0,0.0,-0.3287,-0.3349,-0.3836,0.0,0.0,0.0,0.0,-0.4969,-0.4985,0.0,0.0,0.0,0.0,0.0,0.0,0.0,0.0,0.0,0.0,0.0,0.0,0.0,0.0,0.0,0.0,0.0,0.0,0.0,0.0,0.0,0.0,0.0,0.0,0.0,0.0,0.0,0.0,0.0,0.0,0.0,0.0,0.0,0.0,0.0,0.0,0.0,0.0,0.0,0.0,0.0,0.0,0.0,0.0,0.0,0.0,0.0,0.0,0.0,0.0,0.0,0.0,0.0,0.0,0.0,0.0,-0.0571,-0.0652,-0.0685,-0.0672,-0.069,-0.0707,-0.069,-0.0707,-0.0723,0.0,0.0,0.0,0.0,0.0,0.0,0.0,0.0,0.0,0.0,0.0,0.0,0.0,0.0,0.0,0.0,0.0,0.0,0.0,0.0,0.0,0.0,0.0,0.0,0.0,0.0,0.0,0.0,0.0,0.0,0.0,0.0,0.0,0.0,0.0,0.0,0.0,0.0,0.0,0.0,0.0,-0.4173,-0.4237,-0.4569,-0.4782,0.0,0.0,-0.5246,-0.5268,-0.5246,0.0,0.0,0.0,0.0,0.0,0.0,0.0,0.0,0.0,0.0,0.0,0.0,0.0,0.0,0.0,0.0,0.0,0.0,0.0,0.0,0.0,0.0,0.0,0.0,0.0,0.0,0.0,0.0,0.0,0.0,0.0,0.0,0.0,0.0,0.0,0.0,0.0,0.0,0.0,0.0,0.0,0.0,0.0,0.0,0.0,0.0,0.0,0.0,0.0,0.0,0.0,0.0,0.0,0.0,0.0,-0.109,-0.1159,-0.1224,-0.1259,-0.1259,-0.1291,-0.131,-0.1326,-0.1393,-0.1427,0.0,0.0,0.0,0.0,0.0,0.0,0.0,0.0,0.0,0.0,0.0,0.0,0.0,0.0,0.0,0.0,0.0,0.0,0.0,0.0,0.0,0.0,0.0,0.0,0.0,0.0,0.0,0.0,0.0,0.0,0.0,0.0,0.0,0.0,0.0,0.0,0.0,0.0,0.0,0.0,0.0,0.0,-0.4632,-0.4913,0.0,0.0,0.0,-0.5592,-0.5577,0.0,0.0,0.0,0.0,0.0,0.0,0.0,0.0,0.0,0.0,0.0,0.0,0.0,0.0,0.0,0.0,0.0,0.0,0.0,0.0,0.0,0.0,0.0,0.0,0.0,0.0,0.0,0.0,0.0,0.0,0.0,0.0,0.0,0.0,0.0,0.0,0.0,0.0,0.0,0.0,0.0,0.0,0.0,0.0,0.0,0.0,0.0,0.0,0.0,0.0,0.0,0.0,0.0,0.0,0.0,0.0,0.0,-0.1797,-0.1787,-0.179,-0.179,-0.184,-0.1861,-0.1892,-0.1995,0.0,0.0,0.0,0.0,0.0,0.0,0.0,0.0,0.0,0.0,0.0,0.0,0.0,0.0,0.0,0.0,0.0,0.0,0.0,0.0,0.0,0.0,0.0,0.0,0.0,0.0,0.0,-0.2163,0.0,0.0,0.0,0.0,0.0,0.0,0.0,0.0,0.0,0.0,0.0,0.0,0.0,0.0,-0.5049,-0.5103,-0.536,-0.5546,0.0,0.0,-0.5936,-0.592,-0.5936,-0.595,0.0,0.0,0.0,0.0,0.0,0.0,0.0,0.0,0.0,0.0,0.0,0.0,0.0,0.0,0.0,0.0,0.0,0.0,0.0,0.0,0.0,0.0,0.0,0.0,0.0,0.0,0.0,0.0,0.0,0.0,0.0,0.0,0.0,0.0,0.0,0.0,0.0,0.0,0.0,0.0,0.0,0.0,0.0,0.0,0.0,0.0,0.0,0.0,0.0,0.0,0.0,0.0,0.0,0.0,0.0,-0.2615,-0.2438,-0.2358,-0.2338,-0.2355,-0.2358,-0.2358,-0.2408,-0.2457,0.0,0.0,0.0,0.0,0.0,0.0,0.0,0.0,0.0,0.0,0.0,0.0,0.0,0.0,0.0,0.0,0.0,0.0,0.0,0.0,0.0,0.0,0.0,0.0,0.0,0.0,0.0,0.0,0.0,0.0,0.0,0.0,0.0,0.0,0.0,0.0,0.0,0.0,0.0,0.0,0.0,-0.5914,-0.593,-0.6106,-0.6229,0.0,0.0,-0.626,-0.6268,-0.6268,-0.6371,-0.6689,0.0,0.0,0.0,0.0,0.0,0.0,0.0,0.0,0.0,0.0,0.0,0.0,0.0,0.0,0.0,0.0,0.0,0.0,0.0,0.0,0.0,0.0,0.0,0.0,0.0,0.0,0.0,0.0,0.0,0.0,0.0,0.0,0.0,0.0,0.0,0.0,0.0,0.0,0.0,0.0,0.0,0.0,0.0,0.0,0.0,0.0,0.0,0.0,0.0,0.0,0.0,0.0,0.0,-0.3136,-0.314,-0.2979,-0.2891,-0.2891,-0.2891,-0.2891,-0.2891,-0.2961,-0.3043,0.0,0.0,0.0,0.0,0.0,0.0,0.0,0.0,0.0,0.0,0.0,0.0,0.0,0.0,0.0,0.0,0.0,0.0,0.0,0.0,0.0,0.0,0.0,0.0,0.0,0.0,0.0,0.0,-0.4538,-0.4854,-0.5279,0.0,0.0,0.0,0.0,0.0,0.0,0.0,0.0,0.0,0.0,-0.6538,-0.6354,-0.6421,0.0,0.0,-0.6605,-0.6704,-0.6938,-0.6971,-0.7081,-0.7364,-0.7647,0.0,0.0,0.0,0.0,0.0,0.0,0.0,0.0,0.0,0.0,0.0,0.0,0.0,0.0,0.0,0.0,0.0,0.0,0.0,0.0,0.0,0.0,0.0,0.0,0.0,0.0,0.0,0.0,0.0,0.0,0.0,0.0,0.0,0.0,0.0,0.0,0.0,0.0,0.0,0.0,0.0,0.0,0.0,0.0,0.0,0.0,0.0,0.0,0.0,0.0,0.0,0.0,-0.3808,-0.3712,-0.3556,-0.3428,-0.3344,-0.334,-0.334,-0.336,-0.3442,-0.3569,0.0,0.0,0.0,0.0,0.0,0.0,0.0,0.0,0.0,0.0,0.0,0.0,0.0,0.0,0.0,0.0,0.0,0.0,0.0,0.0,0.0,0.0,0.0,0.0,0.0,0.0,0.0,0.0,-0.5527,-0.5804,-0.5992,0.0,0.0,0.0,0.0,0.0,0.0,0.0,0.0,0.0,0.0,-0.6966,-0.6662,-0.668,-0.6805,-0.7004,-0.7045,-0.7191,-0.7573,-0.7651,-0.7748,-0.8042,0.0,0.0,0.0,0.0,0.0,0.0,0.0,0.0,0.0,0.0,0.0,0.0,0.0,0.0,0.0,0.0,0.0,0.0,0.0,0.0,0.0,0.0,0.0,0.0,0.0,0.0,0.0,0.0,0.0,0.0,0.1421,0.0,0.0,0.0,0.0,0.0,0.0,0.0,0.0,0.0,0.0,0.0,0.0,0.0,0.0,0.0,0.0,0.0,0.0,0.0,0.0,0.0,0.0,-0.4446,-0.438,-0.418,-0.3953,-0.3702,-0.3693,-0.3705,-0.3705,-0.3868,-0.4026,-0.4091,0.0,0.0,0.0,0.0,0.0,0.0,0.0,0.0,0.0,0.0,0.0,0.0,0.0,0.0,0.0,0.0,0.0,0.0,0.0,0.0,0.0,0.0,0.0,0.0,0.0,0.0,-0.5528,-0.5985,-0.6404,0.0,0.0,0.0,0.0,0.0,0.0,0.0,0.0,0.0,0.0,-0.7206,-0.72,-0.693,-0.6951,-0.7138,-0.7526,-0.7581,-0.7731,-0.813,-0.8184,-0.8326,0.0,0.0,0.0,0.0,0.0,0.0,0.0,0.0,0.0,0.0,0.0,0.0,0.0,0.0,0.0,0.0,0.0,0.0,0.0,0.0,0.0,0.0,0.0,0.0,0.0,0.0,0.0,0.1008,0.0988,0.0,0.0,0.0,0.0,0.0,0.0,0.0,0.0,0.0,0.0,0.0,-0.2812,-0.3145,0.0,0.0,0.0,0.0,0.0,0.0,0.0,0.0,0.0,0.0,0.0,0.0,-0.509,-0.5046,-0.4632,-0.4364,-0.4233,-0.4058,-0.3966,-0.3966,-0.4177,-0.4463,-0.488,0.0,0.0,0.0,0.0,0.0,0.0,0.0,0.0,0.0,0.0,0.0,0.0,0.0,0.0,0.0,0.0,0.0,0.0,0.0,0.0,0.0,0.0,0.0,0.0,0.0,-0.668,0.0,0.0,0.0,0.0,0.0,0.0,0.0,0.0,0.0,0.0,0.0,-0.8503,-0.827,-0.8079,-0.7889,-0.7655,-0.7647,-0.774,0.0,0.0,0.0,0.0,0.0,0.0,0.0,0.0,0.0,0.0,0.0,0.0,0.0,0.0,-0.9217,-0.9056,-0.9116,-0.9197,-0.9328,0.0,0.0,0.0,0.0,0.0,0.0,0.0,0.0,0.0,0.0,0.0,0.0,0.0,0.0,0.0114,0.0,0.0119,0.0,0.0,0.0,0.0,0.0,0.0,0.0,0.0,-0.2861,-0.3322,-0.3678,-0.3919,-0.416,0.0,-0.4873,-0.4915,0.0,0.0,0.0,0.0,0.0,0.0,0.0,0.0,-0.5661,-0.5585,-0.5267,-0.4963,-0.4731,-0.4542,-0.4378,-0.4248,-0.4495,-0.489,-0.5374,-0.5562,-0.568,0.0,0.0,0.0,0.0,0.0,0.0,0.0,0.0,0.0,0.0,0.0,0.0,0.0,0.0,0.0,0.0,0.0,0.0,0.0,0.0,0.0,0.0,0.0,-0.7753,0.0,0.0,0.0,0.0,0.0,0.0,0.0,0.0,0.0,-0.8886,-0.8987,-0.9048,-0.8927,-0.8776,-0.8606,-0.8347,0.0,0.0,0.0,0.0,0.0,0.0,0.0,-0.9763,-0.9952,-0.9971,-0.9951,-0.9931,-0.9911,-0.9891,-0.9852,0.0,0.0,-0.9457,-0.9428,-0.9518,-0.9677,-0.9774,-0.9872,-0.9961,-1.003,-1.0088,0.0,0.0,0.0,0.0,0.0,0.0,0.0,0.0,-0.1032,-0.1072,0.0,-0.1043,0.0,0.0,0.0,0.0,0.0,-0.2379,0.0,0.0,-0.3699,-0.4168,-0.4525,-0.4823,-0.4925,-0.4972,-0.5497,-0.5733,-0.5761,-0.6014,0.0,0.0,0.0,0.0,0.0,0.0,-0.6166,-0.6041,-0.6005,-0.5717,-0.518,-0.5126,-0.495,-0.4578,-0.494,-0.5286,-0.5611,-0.5929,-0.6214,-0.6405,-0.6428,0.0,0.0,0.0,0.0,0.0,0.0,0.0,0.0,0.0,0.0,0.0,0.0,0.0,0.0,0.0,0.0,0.0,0.0,0.0,0.0,-0.805,0.0,0.0,0.0,0.0,0.0,0.0,0.0,0.0,0.0,0.0,-0.9257,-0.9288,-0.9265,-0.917,0.0,0.0,0.0,0.0,-0.9281,-0.9652,-0.9713,-0.987,-1.0253,-1.0322,-1.0312,-1.0322,0.0,0.0,-1.0312,-1.0322,-1.0283,-1.0157,-1.0118,-1.0069,-0.9873,-0.9823,-0.9873,-1.0088,-1.0147,-1.0205,-1.0322,-1.0527,-1.0604,-0.3459,0.0,0.0,0.0,0.0,-0.2384,-0.2384,-0.2386,-0.2338,-0.2274,-0.228,-0.2184,0.0,0.0,0.0,0.0,0.0,0.0,-0.3694,-0.4127,-0.4562,-0.4909,-0.5235,-0.5586,-0.5774,-0.5851,-0.6469,-0.6773,-0.6809,-0.7326,-0.7232,-0.651,0.0,0.0,0.0,0.0,-0.6679,-0.6631,-0.6445,-0.6219,-0.5958,-0.5726,-0.5489,-0.5282,-0.5568,-0.5821,-0.5967,-0.6267,-0.6595,-0.69,-0.7095,0.0,0.0,0.0,0.0,0.0,0.0,0.0,0.0,0.0,0.0,0.0,0.0,0.0,0.0,0.0,0.0,0.0,0.0,0.0,-0.8399,-0.8659,-0.889,0.0,0.0,0.0,0.0,0.0,0.0,0.0,0.0,0.0,-0.9824,-0.9833,-0.9855,0.0,0.0,-0.976,-0.9755,-0.9868,-1.0007,-1.0116,-1.0356,0.0,-1.0715,-1.0725,-1.0736,-1.0725,-1.0736,-1.0717,-1.0725,-1.0736,-1.0697,-1.0543,-1.0534,-1.0495,-1.039,-1.0235,-1.0244,-1.0419,-1.0795,-1.1115,-1.1195,-1.1265,-1.1285,-0.5366,-0.4738,-0.3953,-0.3633,-0.3633,-0.3636,-0.3633,-0.3639,-0.3515,-0.3462,-0.3471,-0.3382,-0.3353,-0.3355,-0.3534,0.0,0.0,0.0,-0.4549,-0.4946,-0.5292,-0.5654,-0.5998,-0.6232,-0.6445,-0.6624,-0.7114,-0.7386,-0.7462,-0.8072,-0.8099,-0.7591,0.0,0.0,-0.739,-0.7273,-0.7243,-0.7287,-0.701,-0.674,-0.6508,-0.6104,-0.5877,-0.5839,-0.6044,-0.6207,-0.6315,-0.6703,-0.7017,-0.7253,-0.7593,-0.7763,0.0,0.0,0.0,0.0,0.0,0.0,0.0,0.0,0.0,0.0,0.0,-0.7608,-0.7751,0.0,0.0,0.0,-0.8586,-0.8798,-0.9266,-0.9381,0.0,0.0,0.0,0.0,0.0,0.0,0.0,-0.9921,-0.9935,-1.0,-1.0157,-1.0283,-1.038,-1.0409,-1.0341,-1.0336,-1.0474,0.0,-1.0659,-1.0659,-1.0853,-1.1031,-1.1012,-1.1031,-1.1031,-1.1012,-1.1031,-1.1031,-1.1031,-1.1002,-1.0993,-1.0897,-1.0859,-1.084,-1.0812,-1.0697,-1.0621,-1.0727,-1.1202,-1.1632,-1.1712,-1.1889,-1.2004,-0.6933,-0.6838,-0.5412,-0.4816,-0.4766,-0.4762,-0.4741,-0.4728,-0.4662,-0.4625,-0.4636,-0.4616,-0.4598,-0.4598,-0.4728,0.0,-0.4807,-0.5066,-0.5375,-0.57,-0.595,-0.63,-0.6745,-0.6786,-0.6962,-0.7294,-0.7549,-0.7746,-0.7885,-0.8391,-0.8692,-0.8798,-0.8473,-0.8212,-0.8062,-0.7875,-0.7836,-0.7941,-0.7609,-0.7251,-0.6838,-0.6417,-0.6224,-0.6248,-0.6389,-0.6525,-0.6655,-0.7132,-0.7457,-0.7551,-0.7993,-0.8271,-0.8319,0.0,0.0,0.0,0.0,0.0,0.0,0.0,0.0,0.0,0.0,0.0,0.0,0.0,0.0,0.0,-0.9576,0.0,-0.9906,-1.0172,0.0,0.0,0.0,-1.0412,-1.0222,-1.0316,-1.0379,-1.0379,0.0,0.0,-1.0371,-1.0679,-1.085,-1.0659,-1.0802,-1.0983,-1.1126,-1.1172,-1.1204,-1.1209,-1.1212,-1.1223,-1.1223,-1.1223,-1.1212,-1.1223,-1.1223,-1.1223,-1.1223,-1.1223,-1.1204,-1.1145,-1.1126,-1.1126,-1.1107,-1.1088,-1.108,-1.1016,-1.1511,-1.1927,-1.2019,-1.2454,-1.2699,-0.7359,-0.7321,-0.6956,-0.656,-0.6106,-0.6137,-0.6062,-0.5965,-0.5846,-0.5734,-0.5635,-0.5538,-0.55,-0.55,-0.5523,-0.5582,-0.5696,-0.5755,-0.6028,-0.6463,-0.6603,-0.6901,-0.7327,-0.7511,-0.772,-0.7958,-0.824,-0.8365,-0.8417,-0.8731,-0.8929,-0.8956,-0.9056,-0.8945,-0.8595,-0.8407,-0.8322,-0.8361,-0.8031,-0.7609,-0.7134,-0.7086,-0.6954,-0.6726,-0.6919,-0.7033,-0.7072,-0.7408,-0.7687,-0.7809,-0.8265,-0.8513,-0.8527,-0.8763,0.0,0.0,0.0,0.0,0.0,0.0,0.0,0.0,0.0,-0.9128,-0.931,0.0,-0.9884,0.0,-1.02,-1.0207,-1.013,-1.0446,0.0,0.0,-1.0927,-1.1125,-1.1026,-1.1026,-1.1091,-1.1125,-1.0921,-1.0812,-1.0964,-1.093,-1.0945,-1.1042,-1.1174,-1.1309,-1.1317,-1.1373,-1.1429,-1.1429,-1.141,-1.1429,-1.1429,-1.1429,-1.1429,-1.1429,-1.1429,-1.1429,-1.1429,-1.144,-1.141,-1.1335,-1.1346,-1.1298,-1.1204,-1.1271,-1.1456,-1.1748,-1.2218,-1.2581,-1.2664,-1.3108,-1.3434,-0.7681,-0.7687,-0.7681,-0.7488,-0.716,-0.6977,-0.6874,-0.6793,-0.6647,-0.6561,-0.649,-0.6354,-0.6241,-0.6209,-0.6182,-0.6268,-0.6381,-0.6413,-0.6603,-0.6977,-0.709,-0.7333,-0.7681,-0.7928,-0.8168,-0.8401,-0.8521,-0.8633,-0.8692,-0.8903,-0.9015,-0.9015,-0.9211,-0.9205,-0.8978,-0.8872,-0.8762,-0.8676,-0.8322,-0.7951,-0.762,-0.752,-0.7432,-0.7328,-0.7283,-0.7307,-0.7329,-0.761,-0.7856,-0.8033,-0.8509,-0.8883,-0.9077,-0.9286,-0.9503,0.0,0.0,0.0,0.0,0.0,0.0,0.0,0.0,0.0,0.0,0.0,-1.0293,-1.0592,-1.066,-1.073,-1.0788,-1.0967,-1.1115,-1.1204,-1.1482,-1.1631,-1.155,-1.1595,-1.1653,-1.1743,-1.1508,-1.1412,-1.1569,-1.1458,-1.1383,-1.149,-1.1475,-1.1459,-1.1459,-1.1466,-1.1504,-1.1504,-1.1504,-1.1504,-1.1504,-1.1504,-1.1504,-1.1504,-1.1504,-1.1504,-1.1504,-1.1504,-1.1496,-1.1459,-1.144,-1.1421,-1.1354,-1.1384,-1.1611,-1.2055,-1.2522,-1.2902,-1.3205,-1.3663,-1.3991,-0.7922,-0.7949,-0.794,-0.7928,-0.7901,-0.758,-0.7419,-0.7338,-0.7219,-0.7166,-0.7139,-0.7041,-0.6901,-0.681,-0.6815,-0.6869,-0.6955,-0.696,-0.7122,-0.7371,-0.7494,-0.7708,-0.8002,-0.8162,-0.8368,-0.8626,-0.8633,-0.8692,-0.8811,-0.8936,-0.9015,-0.9015,-0.914,-0.9178,-0.9197,-0.9188,-0.9097,-0.8884,-0.8531,-0.8265,-0.8105,-0.7829,-0.7738,-0.783,-0.7594,-0.7494,-0.7574,-0.778,-0.7991,-0.8175,-0.8683,-0.9116,-0.9545,-0.9718,-0.987,0.0,-0.9805,0.0,0.0,0.0,0.0,0.0,0.0,0.0,0.0,-1.0351,-1.0572,-1.0859,-1.1047,-1.1256,-1.1439,-1.1511,-1.1598,-1.1687,-1.1927,-1.2104,-1.2044,-1.2104,-1.2198,-1.2291,-1.2138,-1.2078,-1.2176,-1.2058,-1.1978,-1.1977,-1.1847,-1.1768,-1.17,-1.1602,-1.1504,-1.1504,-1.1504,-1.1504,-1.1504,-1.1504,-1.1504,-1.1504,-1.1504,-1.1504,-1.1504,-1.1504,-1.1504,-1.1504,-1.1515,-1.1504,-1.1504,-1.1504,-1.1678,-1.2202,-1.2628,-1.3042,-1.3554,-1.4013,-1.4254,-0.8213,-0.8223,-0.8174,-0.8141,-0.8141,-0.8189,-0.7969,-0.7622,-0.7589,-0.7542,-0.744,-0.7413,-0.7354,-0.7333,-0.7354,-0.7354,-0.7386,-0.7386,-0.7521,-0.7768,-0.7821,-0.8055,-0.8474,-0.8501,-0.8606,-0.8752,-0.8752,-0.8778,-0.8804,-0.8936,-0.9015,-0.9015,-0.914,-0.9178,-0.9178,0.0,0.0,0.0,-0.8668,-0.8442,-0.8119,-0.8145,-0.811,-0.804,-0.7819,0.0,-0.7983,-0.7923,-0.7936,-0.8029,-0.8444,0.0,0.0,0.0,0.0,0.0,0.0,0.0,0.0,0.0,0.0,0.0,-1.037,-1.0467,-1.0505,-1.0688,-1.0843,-1.091,-1.126,-1.1438,-1.1297,-1.1952,-1.2303,-1.2132,-1.2467,-1.2706,-1.2715,-1.2802,-1.2908,-1.2922,-1.2758,-1.2624,-1.267,-1.2539,-1.2467,-1.2477,-1.2559,-1.2628,-1.2616,-1.1984,-1.1526,-1.1504,-1.1504,-1.1504,-1.1504,-1.1504,-1.1504,-1.1504,-1.1504,-1.1504,-1.1504,-1.1504,-1.1504,-1.1504,-1.1504,-1.1504,-1.1504,-1.1504,-1.1817,-1.2605,-1.2856,-1.3063,-1.3587,-1.409,-1.4385,-0.8604,0.0,-0.8498,-0.8421,0.0,-0.8374,-0.8256,-0.8023,-0.8049,-0.7975,-0.7842,-0.7842,-0.7788,-0.7691,-0.7696,-0.775,-0.7842,-0.7848,-0.7949,-0.8135,-0.8215,-0.8362,-0.86,-0.8659,-0.8718,-0.8778,-0.8778,-0.8778,-0.8811,-0.8883,-0.891,-0.891,-0.8962,-0.9008,-0.9008,-0.9001,-0.8959,-0.8859,-0.8776,-0.8656,-0.8464,-0.8389,-0.8338,-0.83,-0.806,0.0,0.0,0.0,0.0,0.0,0.0,0.0,0.0,-0.9572,0.0,-0.9895,-1.0185,-1.0364,-1.0394,-1.0576,-1.0815,-1.1073,-1.1257,-1.1267,-1.1102,-1.1397,-1.1582,-1.1592,-1.1758,-1.1859,-1.19,-1.2265,-1.251,-1.2553,-1.2744,-1.2929,-1.2978,-1.3051,-1.3148,-1.3214,-1.3142,-1.3129,-1.3279,-1.3088,-1.2989,-1.3022,-1.2946,-1.2953,-1.2918,-1.2331,-1.1806,-1.1566,-1.1504,-1.1504,-1.1504,-1.1504,-1.1504,-1.1504,-1.1504,-1.1504,-1.1504,-1.1541,-1.1589,-1.1608,-1.1615,-1.1653,-1.1675,-1.1859,-1.2268,-1.2912,-1.3276,-1.3618,-1.4105,-1.4335,-1.4407,-0.9057,-0.8956,-0.8882,-0.8709,-0.8498,-0.848,-0.848,-0.848,0.0,0.0,0.0,-0.8248,-0.8129,-0.7984,-0.7984,-0.807,-0.8248,-0.8248,-0.8295,-0.8448,-0.8553,-0.86,-0.8633,-0.8752,-0.8778,-0.8778,-0.8778,-0.8778,-0.8778,-0.8778,-0.8778,-0.8778,-0.8778,-0.8811,-0.8831,-0.8831,-0.891,-0.9035,-0.8883,-0.8778,-0.8798,-0.8603,-0.8501,-0.8563,-0.8303,-0.8283,-0.853,-0.8283,-0.8364,-0.8815,-0.8853,-0.9091,-0.9537,-0.9901,-1.01,-1.0114,-1.0473,-1.0709,-1.0845,-1.1195,-1.1541,-1.1857,-1.2068,-1.2033,-1.1727,-1.2026,-1.2222,-1.2222,-1.2208,-1.2302,-1.2528,-1.2556,-1.2608,-1.2876,-1.2929,-1.2978,-1.3085,-1.3123,-1.3234,-1.3348,-1.3423,-1.3539,-1.3732,-1.36,-1.3503,-1.3605,-1.3466,-1.3181,-1.3156,-1.2781,-1.23,-1.2004,-1.1902,-1.1732,-1.168,-1.1593,-1.1552,-1.1578,-1.156,-1.156,-1.156,-1.1645,-1.1712,-1.1701,-1.1763,-1.1827,-1.1953,-1.2286,-1.2768,-1.332,-1.3723,-1.416,-1.4642,-1.4627,-1.4477,-0.9594,-0.9541,-0.9146,-0.8942,-0.8883,-0.8778,-0.8718,-0.8732,-0.8507,-0.8395,-0.8368,-0.8368,-0.8368,-0.8348,-0.8342,-0.8348,-0.8374,-0.8374,-0.8448,-0.8573,-0.8573,-0.8659,-0.8752,-0.8778,-0.8778,-0.8778,-0.8778,-0.8778,-0.8778,-0.8778,-0.8778,-0.8778,-0.8778,-0.8857,-0.8956,-0.8962,-0.9035,-0.9159,-0.8936,-0.8778,-0.8778,-0.8771,-0.8744,-0.8731,-0.8508,-0.8452,-0.8655,-0.8416,-0.8504,-0.8936,-0.9066,-0.9246,-0.9436,-1.0048,-1.0328,-1.0149,-1.0628,-1.0947,-1.0969,-1.1255,-1.1548,-1.1895,-1.2282,-1.238,-1.2063,-1.1976,-1.1962,-1.1982,-1.2303,-1.2511,-1.2464,-1.2758,-1.2938,-1.292,-1.3002,-1.3085,-1.3099,-1.3258,-1.3372,-1.3409,-1.3621,-1.375,-1.3823,-1.3937,-1.4082,-1.423,-1.4214,-1.4227,-1.3881,-1.3456,-1.3174,-1.3017,-1.2704,-1.2491,-1.2385,-1.205,-1.1834,-1.1763,-1.1738,-1.1745,-1.1727,-1.1763,-1.1793,-1.1793,-1.1834,-1.2009,-1.2361,-1.253,-1.3033,-1.3721,-1.4003,-1.425,-1.4732,-1.4776,-1.4696,-0.999,-0.9888,-0.9679,-0.951,-0.9374,-0.9117,-0.9018,-0.8998,-0.8811,-0.8699,-0.8613,-0.8613,-0.8619,-0.8613,-0.8619,-0.8619,-0.8619,-0.8613,-0.8666,-0.8692,-0.8692,-0.8752,-0.8778,-0.8778,-0.8778,-0.8778,-0.8778,-0.8778,-0.8804,-0.8883,-0.891,-0.891,-0.8982,-0.9028,-0.9113,-0.9113,-0.9159,-0.9178,-0.9087,-0.9035,-0.9001,-0.9008,-0.9008,-0.9001,-0.8897,-0.8899,-0.9071,-0.8898,-0.895,-0.9262,-0.9291,-0.9418,-0.9676,-1.0074,-1.0338,-1.0443,-1.0886,-1.1205,-1.1375,-1.1905,-1.2318,-1.248,-1.2729,-1.2816,-1.2652,-1.2612,-1.2612,-1.2612,-1.2786,-1.2849,-1.2788,-1.2918,-1.3002,-1.3002,-1.3061,-1.3148,-1.3258,-1.3324,-1.3443,-1.3597,-1.3716,-1.3892,-1.4104,-1.4233,-1.4396,-1.4593,-1.4765,-1.4778,-1.4631,-1.4513,-1.4201,-1.3469,-1.3114,-1.3002,-1.2946,-1.2575,-1.2275,-1.2241,-1.1998,-1.1834,-1.1812,-1.1819,-1.1867,-1.1896,-1.2133,-1.2461,-1.2784,-1.3231,-1.372,-1.405,-1.446,-1.471,-1.4915,-1.4914,-1.4823,-1.0302,-1.0214,-1.014,-0.9976,-0.9724,-0.9467,-0.9395,-0.9402,-0.9316,-0.9213,-0.9126,-0.8977,-0.8883,-0.889,-0.8977,-0.9011,-0.9018,-0.9079,-0.9113,-0.9106,-0.9113,-0.9113,-0.9113,-0.9113,-0.9113,-0.9113,-0.9113,-0.9106,-0.9133,-0.9145,-0.9123,-0.9068,-0.9159,-0.9211,-0.9237,-0.9263,-0.9256,-0.929,-0.9323,-0.929,-0.9211,-0.9178,-0.9178,-0.9178,-0.9237,-0.929,-0.9418,-0.9362,-0.9455,-0.9646,-0.9667,-0.9777,-0.9975,-1.0235,-1.049,-1.0753,-1.1178,-1.1555,-1.1836,-1.2397,-1.2832,-1.291,-1.2978,-1.3012,-1.3051,-1.3104,-1.3132,-1.3132,-1.3045,-1.3051,-1.3007,-1.2992,-1.2978,-1.3075,-1.3148,-1.3248,-1.3396,-1.3467,-1.3597,-1.3797,-1.3881,-1.4069,-1.4314,-1.4454,-1.4604,-1.4834,-1.5051,-1.5176,-1.5221,-1.5379,-1.4949,-1.4201,-1.372,-1.364,-1.3574,-1.3231,-1.2978,-1.2924,-1.262,-1.248,-1.2423,-1.2385,-1.2381,-1.2522,-1.2808,-1.3197,-1.3347,-1.3891,-1.4413,-1.4644,-1.4933,-1.5164,-1.5175,-1.5119,-1.4971,-1.0579,-1.0512,-1.0234,-1.0006,-0.9909,-0.9855,-0.995,-1.0064,-1.0087,-1.0087,-0.9974,-0.9443,-0.9187,-0.9201,-0.9492,-0.9604,-0.9632,-0.9932,-1.0037,-1.003,-1.0051,-1.0087,-1.0023,-1.0044,-1.0058,-1.0037,-1.0023,-0.9974,-0.996,-0.9757,-0.9464,-0.9213,-0.9178,-0.9297,-0.9394,-0.9387,-0.9439,-0.9562,-0.9681,-0.9584,-0.9211,-0.9178,-0.9178,-0.9178,-0.9309,-0.9439,-0.9588,-0.9684,-0.9902,-1.0192,-1.0324,-1.0366,-1.0335,-1.0829,-1.1093,-1.0926,-1.1485,-1.1981,-1.2227,-1.2304,-1.2471,-1.271,-1.2749,-1.2808,-1.2905,-1.2929,-1.292,-1.2929,-1.292,-1.2929,-1.292,-1.3002,-1.3085,-1.3123,-1.3272,-1.342,-1.3573,-1.3692,-1.3821,-1.3939,-1.4174,-1.4384,-1.4454,-1.465,-1.4857,-1.5051,-1.5266,-1.5446,-1.5446,-1.5491,-1.5534,-1.52,-1.4896,-1.4594,-1.4512,-1.417,-1.386,-1.3821,-1.3795,-1.3634,-1.3556,-1.3591,-1.3768,-1.3419,-1.3748,-1.3991,-1.4275,-1.4671,-1.4847,-1.5132,-1.5342,-1.5446,-1.5446,-1.5424,-1.5278,-1.0932,-1.0895,-1.0739,-1.0677,-1.0613,-1.0396,-1.0349,-1.0424,-1.0364,-1.0344,-1.0315,-1.0107,-0.9923,-0.9799,-0.9925,-0.9981,-0.9995,-1.0136,-1.02,-1.02,-1.02,-1.02,-1.02,-1.02,-1.02,-1.02,-1.02,-1.02,-1.0207,-1.0201,-1.0097,-0.9904,-0.9967,-0.9925,-0.9773,-0.9758,-0.9784,-0.9836,-0.9895,-0.9844,-0.9688,-0.9688,-0.9688,-0.9681,-0.9732,-0.9758,-0.9836,-0.9999,-1.0169,-1.029,-1.0496,-1.0636,-1.0673,-1.099,-1.1208,-1.1268,-1.1664,-1.1977,-1.2175,-1.2249,-1.2382,-1.2554,-1.2652,-1.2759,-1.2881,-1.2915,-1.2915,-1.2915,-1.2915,-1.2929,-1.3002,-1.3061,-1.3148,-1.3262,-1.343,-1.3573,-1.3716,-1.3844,-1.3986,-1.4197,-1.4337,-1.4535,-1.48,-1.5051,-1.5233,-1.5334,-1.5503,-1.5603,-1.5614,-1.5714,-1.579,-1.5778,-1.5654,-1.5459,-1.5201,-1.4749,-1.4479,-1.4373,-1.4161,-1.4016,-1.4072,-1.4004,-1.3993,-1.4048,-1.4296,-1.4497,-1.4587,-1.5008,-1.5279,-1.5513,-1.5513,-1.5491,-1.5491,-1.5491,-1.5379,-1.1383,-1.135,-1.1259,-1.1168,-1.1132,-1.0882,-1.0814,-1.0847,-1.0782,-1.074,-1.074,-1.0828,-1.0799,-1.0652,-1.0508,-1.0443,-1.045,-1.0528,-1.0623,-1.063,-1.063,-1.0667,-1.0718,-1.0718,-1.0718,-1.0718,-1.0755,-1.0675,-1.0632,-1.0784,-1.0764,-1.0572,-1.0657,-1.0536,-1.0192,-1.0188,-1.0109,-0.9999,-1.0058,-1.0076,-1.0076,-1.0128,-1.0076,-0.9999,-1.0051,-1.0076,-1.0076,-1.0257,-1.0368,-1.0419,-1.0641,-1.082,-1.0947,-1.1074,-1.1276,-1.1553,-1.1728,-1.1918,-1.211,-1.2175,-1.2323,-1.248,-1.2578,-1.2735,-1.2881,-1.2929,-1.2964,-1.2954,-1.2968,-1.3041,-1.3075,-1.3148,-1.3248,-1.3454,-1.3563,-1.3726,-1.3905,-1.4033,-1.4197,-1.4419,-1.4558,-1.4743,-1.5131,-1.5401,-1.5547,-1.558,-1.5703,-1.5826,-1.5848,-1.5969,-1.6044,-1.6066,-1.6132,-1.6044,-1.5734,-1.5437,-1.5133,-1.505,-1.4875,-1.4752,-1.4603,-1.4615,-1.4627,-1.5064,-1.5078,-1.5119,-1.5301,-1.5568,-1.5657,-1.568,-1.5669,-1.5647,-1.568,-1.5625,-1.5592,-1.1955,-1.1926,-1.1619,-1.1436,-1.1286,-1.1303,-1.1389,-1.1575,-1.1562,-1.1547,-1.1555,-1.1578,-1.164,-1.168,-1.1284,-1.1092,-1.1099,-1.1341,-1.155,-1.1643,-1.1658,-1.1804,-1.202,-1.202,-1.1966,-1.1836,-1.1828,-1.1738,-1.1509,-1.1561,-1.1385,-1.1099,-1.1112,-1.0936,-1.067,-1.0632,-1.0417,-1.0145,-1.0252,-1.0298,-1.0324,-1.0419,-1.0334,-1.0102,-1.0187,-1.0272,-1.029,-1.0419,-1.0547,-1.0667,-1.0828,-1.0947,-1.1074,-1.1226,-1.1393,-1.1671,-1.1721,-1.1846,-1.2097,-1.219,-1.228,-1.2474,-1.2577,-1.2637,-1.2881,-1.3002,-1.3051,-1.3075,-1.3142,-1.319,-1.3138,-1.3296,-1.343,-1.3573,-1.3726,-1.3905,-1.4152,-1.4291,-1.443,-1.4616,-1.4891,-1.5153,-1.5458,-1.5614,-1.5738,-1.5792,-1.5891,-1.6022,-1.6113,-1.6178,-1.6188,-1.6188,-1.621,-1.6188,-1.6166,-1.5947,-1.599,-1.5908,-1.5742,-1.5926,-1.6068,-1.6105,-1.6022,-1.5985,-1.5895,-1.5932,-1.6095,-1.6132,-1.61,-1.6057,-1.5957,-1.5935,-1.5913,-1.5846,-1.5814,-1.2399,-1.2316,-1.2193,-1.2178,-1.2248,-1.2273,-1.2379,-1.2576,-1.255,-1.2543,-1.255,-1.2543,-1.2583,-1.2626,-1.2221,-1.1956,-1.1783,-1.1857,-1.1934,-1.1996,-1.1996,-1.2027,-1.2065,-1.2096,-1.2096,-1.2096,-1.2096,-1.2035,-1.1959,-1.2126,-1.2037,-1.1768,-1.1895,-1.1833,-1.1571,-1.1498,-1.1301,-1.0942,-1.0989,-1.091,-1.0707,-1.0752,-1.0693,-1.0565,-1.047,-1.047,-1.0547,-1.0598,-1.0693,-1.082,-1.0939,-1.1049,-1.1124,-1.1326,-1.1625,-1.2024,-1.2153,-1.2416,-1.281,-1.2961,-1.2945,-1.2897,-1.2969,-1.3005,-1.3047,-1.3075,-1.3113,-1.319,-1.3358,-1.343,-1.3454,-1.3501,-1.3586,-1.3739,-1.3928,-1.4116,-1.4303,-1.4454,-1.4616,-1.488,-1.5244,-1.5525,-1.5647,-1.5814,-1.5925,-1.6035,-1.61,-1.6144,-1.6188,-1.6253,-1.6318,-1.634,-1.6383,-1.6405,-1.6392,-1.6253,-1.6188,-1.6188,-1.6151,-1.6105,-1.6175,-1.621,-1.6114,-1.6136,-1.6231,-1.6231,-1.6219,-1.6219,-1.6231,-1.621,-1.6144,-1.6132,-1.6144,-1.6057,-1.6013,-1.3042,-1.2873,-1.2851,-1.2859,-1.2905,-1.2905,-1.2972,-1.3106,-1.3106,-1.3106,-1.3106,-1.3106,-1.3114,-1.3176,-1.2985,-1.2834,-1.2617,-1.2305,-1.2181,-1.2343,-1.2406,-1.2531,-1.264,-1.2617,-1.2586,-1.2547,-1.2445,-1.2398,-1.2406,-1.2621,-1.2585,-1.2351,-1.2581,-1.2489,-1.2212,-1.2162,-1.198,-1.1655,-1.1589,-1.1484,-1.1269,-1.1252,-1.1244,-1.1226,-1.1086,-1.0894,-1.0794,-1.0744,-1.082,-1.0955,-1.1132,-1.1353,-1.1593,-1.1766,-1.2061,-1.2476,-1.2635,-1.2877,-1.3286,-1.3468,-1.3463,-1.3411,-1.352,-1.351,-1.3328,-1.3381,-1.3399,-1.3399,-1.3539,-1.3668,-1.3739,-1.381,-1.3905,-1.401,-1.4152,-1.4326,-1.4523,-1.4662,-1.4949,-1.5255,-1.5525,-1.576,-1.5859,-1.5991,-1.6122,-1.6231,-1.6253,-1.6275,-1.6318,-1.6349,-1.6436,-1.6414,-1.6457,-1.6491,-1.6479,-1.6383,-1.634,-1.634,-1.6318,-1.6275,-1.6253,-1.6275,-1.6275,-1.6309,-1.6309,-1.6297,-1.6297,-1.6297,-1.6297,-1.6297,-1.6275,-1.6262,-1.6253,-1.621,-1.6188,-1.3866,-1.3607,-1.3592,-1.3416,-1.3221,-1.3213,-1.3152,-1.3258,-1.3243,-1.3356,-1.338,-1.3243,-1.3432,-1.3463,-1.3607,-1.3709,-1.3614,-1.2782,-1.2538,-1.2876,-1.3036,-1.3356,-1.3745,-1.359,-1.3515,-1.3498,-1.317,-1.2983,-1.3007,-1.2975,-1.2964,-1.2964,-1.2992,-1.2849,-1.2534,-1.2547,-1.2373,-1.2111,-1.2044,-1.2019,-1.1991,-1.1945,-1.1928,-1.1953,-1.1925,-1.1635,-1.1013,-1.0971,-1.1047,-1.1192,-1.1452,-1.1923,-1.238,-1.2514,-1.273,-1.3031,-1.3104,-1.325,-1.3515,-1.3606,-1.3835,-1.3946,-1.4107,-1.408,-1.3885,-1.3912,-1.3938,-1.3776,-1.3771,-1.3868,-1.402,-1.4221,-1.4361,-1.4373,-1.4396,-1.4534,-1.4765,-1.4983,-1.5244,-1.557,-1.5782,-1.5859,-1.5979,-1.6122,-1.6253,-1.6362,-1.6392,-1.6405,-1.6457,-1.6479,-1.6513,-1.6513,-1.65,-1.6513,-1.6513,-1.6513,-1.6513,-1.6491,-1.647,-1.6448,-1.6426,-1.6426,-1.6405,-1.6426,-1.6426,-1.6426,-1.6426,-1.6426,-1.6426,-1.6426,-1.6414,-1.6371,-1.6349,-1.6318,-1.6275,-1.4032,-1.3948,-1.3948,-1.4037,-1.4112,-1.4147,-1.428,-1.4517,-1.456,-1.456,-1.4552,-1.456,-1.4595,-1.4565,-1.4455,-1.4375,-1.441,-1.3827,-1.364,-1.3762,-1.3835,-1.3925,-1.4073,-1.4048,-1.404,-1.3941,-1.3586,-1.3413,-1.3395,-1.3274,-1.3211,-1.3202,-1.3316,-1.3278,-1.3182,-1.3173,-1.3042,-1.2728,-1.2685,-1.2558,-1.2312,-1.2287,-1.2287,-1.2278,-1.2278,-1.2151,-1.1956,-1.1822,-1.1849,-1.1976,-1.2104,-1.2305,-1.2574,-1.2693,-1.2991,-1.3457,-1.3699,-1.395,-1.4305,-1.4525,-1.4591,-1.4612,-1.4672,-1.47,-1.4562,-1.4374,-1.4322,-1.4314,-1.4272,-1.4244,-1.4314,-1.4511,-1.4593,-1.4407,-1.4581,-1.4754,-1.5017,-1.5312,-1.5559,-1.5726,-1.5881,-1.6022,-1.6197,-1.6318,-1.6362,-1.6448,-1.6479,-1.6491,-1.6513,-1.6513,-1.6513,-1.6513,-1.6513,-1.6513,-1.6513,-1.6513,-1.6513,-1.6513,-1.6513,-1.6513,-1.6513,-1.6513,-1.6513,-1.6513,-1.6513,-1.6513,-1.6513,-1.6513,-1.6513,-1.6513,-1.647,-1.6457,-1.6457,-1.6414,-1.6383,-1.4904,-1.4941,-1.4904,-1.5051,-1.5206,-1.5206,-1.5316,-1.5391,-1.5411,-1.5336,-1.5221,-1.5196,-1.5196,-1.5155,-1.5052,-1.4995,-1.4962,-1.4848,-1.479,-1.4748,-1.4547,-1.4572,-1.4655,-1.4589,-1.448,-1.4362,-1.4136,-1.405,-1.404,-1.3814,-1.372,-1.3795,-1.3718,-1.3692,-1.3692,-1.3623,-1.3472,-1.3329,-1.3206,-1.3048,-1.286,-1.2809,-1.2809,-1.2809,-1.2809,-1.2809,-1.2809,-1.278,-1.268,-1.2511,-1.2573,-1.2861,-1.3162,-1.3357,-1.3589,-1.3972,-1.4237,-1.4503,-1.4914,-1.5119,-1.5284,-1.523,-1.5407,-1.5401,-1.5302,-1.5024,-1.501,-1.4824,-1.4746,-1.4628,-1.4602,-1.4765,-1.4823,-1.4674,-1.48,-1.5028,-1.5278,-1.5547,-1.577,-1.5903,-1.6022,-1.6197,-1.6328,-1.6414,-1.6436,-1.6513,-1.6513,-1.6513,-1.6513,-1.6513,-1.6513,-1.6513,-1.6513,-1.6513,-1.6513,-1.6513,-1.6513,-1.6513,-1.6513,-1.6513,-1.6513,-1.6513,-1.6513,-1.6513,-1.6513,-1.6513,-1.6513,-1.6513,-1.6513,-1.6513,-1.6513,-1.65,-1.6479,-1.6479,-1.647,-1.6269,-1.6286,-1.6277,-1.6228,-1.622,-1.6258,-1.6084,-1.5897,-1.5873,-1.5698,-1.5441,-1.5375,-1.5333,-1.5361,-1.5444,-1.5482,-1.5559,-1.5649,-1.5712,-1.56,-1.536,-1.5248,-1.5452,-1.5334,-1.5154,-1.4897,-1.4785,-1.4832,-1.4887,-1.4531,-1.4416,-1.4444,-1.4171,-1.3989,-1.3959,-1.386,-1.3782,-1.3717,-1.3606,-1.3511,-1.3502,-1.3489,-1.3481,-1.3502,-1.3485,-1.3477,-1.3489,-1.357,-1.3348,-1.2705,-1.3024,-1.3515,-1.41,-1.4288,-1.4335,-1.4601,-1.4697,-1.4943,-1.5294,-1.542,-1.5584,-1.5853,-1.6081,-1.6265,-1.5911,-1.5918,-1.5816,-1.5421,-1.5222,-1.5076,-1.4979,-1.5006,-1.5108,-1.5153,-1.5165,-1.5323,-1.5649,-1.5748,-1.5869,-1.6044,-1.6241,-1.6392,-1.6392,-1.6457,-1.6513,-1.6513,-1.6513,-1.6513,-1.6513,-1.6513,-1.6513,-1.6513,-1.6513,-1.6513,-1.6513,-1.6513,-1.6513,-1.6513,-1.6513,-1.6513,-1.6513,-1.6513,-1.6513,-1.6513,-1.6513,-1.6513,-1.6513,-1.6513,-1.6513,-1.6513,-1.6513,-1.6513,-1.6513,-1.6513,-1.6513,-1.6286,-1.6286,-1.6286,-1.6392,-1.6514,-1.6522,-1.6602,-1.6585,-1.6623,-1.6546,-1.641,-1.6119,-1.6046,-1.6065,-1.5854,-1.5797,-1.5972,-1.6017,-1.607,-1.6132,-1.6044,-1.5983,-1.6079,-1.6035,-1.5956,-1.5807,-1.5595,-1.5539,-1.5537,-1.5151,-1.4865,-1.4577,-1.4577,-1.4315,-1.4033,-1.4006,-1.395,-1.395,-1.392,-1.386,-1.386,-1.386,-1.3881,-1.3881,-1.386,-1.386,-1.3851,-1.392,-1.3888,-1.3664,-1.37,-1.3924,-1.4279,-1.4407,-1.4538,-1.4736,-1.504,-1.5264,-1.542,-1.5633,-1.5914,-1.6212,-1.6374,-1.6549,-1.6871,-1.6559,-1.6464,-1.6291,-1.5986,-1.558,-1.5553,-1.5372,-1.5369,-1.5514,-1.5525,-1.5592,-1.5748,-1.5881,-1.6044,-1.6262,-1.6349,-1.6414,-1.6457,-1.65,-1.6513,-1.6513,-1.6513,-1.6513,-1.6513,-1.6513,-1.6513,-1.6513,-1.6513,-1.6513,-1.6513,-1.6513,-1.6513,-1.6513,-1.6513,-1.6513,-1.6513,-1.6513,-1.6513,-1.6513,-1.6513,-1.6513,-1.6513,-1.6513,-1.6513,-1.6513,-1.6513,-1.6513,-1.6513,-1.6513,-1.6513,-1.7217,-1.7294,-1.7294,-1.7381,-1.7467,-1.7458,-1.7458,-1.7397,-1.7418,-1.7322,-1.7165,-1.6957,-1.6852,-1.6863,-1.6671,-1.6639,-1.673,-1.6527,-1.6483,-1.6528,-1.6448,-1.6377,-1.6307,-1.6307,-1.6307,-1.6289,-1.6111,-1.6082,-1.6061,-1.5706,-1.5468,-1.5335,-1.516,-1.4858,-1.4507,-1.4411,-1.4282,-1.4144,-1.407,-1.401,-1.401,-1.401,-1.401,-1.401,-1.401,-1.401,-1.4109,-1.4139,-1.4139,-1.41,-1.413,-1.4219,-1.4437,-1.4538,-1.4715,-1.4971,-1.5264,-1.5468,-1.571,-1.5951,-1.6202,-1.6488,-1.663,-1.6941,-1.7168,-1.7055,-1.7106,-1.704,-1.6681,-1.6359,-1.6043,-1.5706,-1.5572,-1.5693,-1.5792,-1.5836,-1.5869,-1.6013,-1.6175,-1.6349,-1.6436,-1.647,-1.6513,-1.6513,-1.6513,-1.6513,-1.6513,-1.6513,-1.6513,-1.6513,-1.6513,-1.6513,-1.6513,-1.6513,-1.6513,-1.6513,-1.6513,-1.6513,-1.6513,-1.6513,-1.6513,-1.6513,-1.6513,-1.6513,-1.6513,-1.6513,-1.6513,-1.6513,-1.6513,-1.6513,-1.6513,-1.6513,-1.6513,-1.6513,-1.6513,-1.8531,-1.87,-1.87,-1.8709,-1.8634,-1.8692,-1.8404,-1.8204,-1.8112,-1.8,-1.7752,-1.7674,-1.7554,-1.7639,-1.7413,-1.7541,-1.7543,-1.715,-1.708,-1.7036,-1.6938,-1.682,-1.6697,-1.6509,-1.6465,-1.6412,-1.6377,-1.6446,-1.6477,-1.6215,-1.6172,-1.6048,-1.584,-1.5551,-1.514,-1.4978,-1.4716,-1.4451,-1.4204,-1.4109,-1.4109,-1.41,-1.4109,-1.413,-1.4151,-1.4258,-1.4357,-1.4387,-1.4417,-1.4387,-1.4357,-1.4497,-1.4695,-1.4745,-1.4981,-1.5332,-1.5507,-1.5768,-1.6066,-1.6278,-1.6506,-1.6722,-1.7071,-1.7323,-1.7396,-1.7523,-1.7585,-1.7588,-1.7479,-1.6958,-1.6385,-1.5982,-1.5835,-1.5818,-1.5891,-1.5957,-1.6022,-1.6122,-1.6253,-1.6405,-1.6491,-1.6513,-1.6513,-1.6513,-1.6513,-1.6513,-1.6513,-1.6513,-1.6513,-1.6513,-1.6513,-1.6513,-1.6513,-1.6513,-1.6513,-1.6513,-1.6513,-1.6513,-1.6513,-1.6513,-1.6513,-1.6513,-1.6513,-1.6513,-1.6513,-1.6513,-1.6513,-1.6513,-1.6513,-1.6513,-1.6513,-1.6513,-1.6513,-1.6513,-1.6513,-1.8652,-1.8709,-1.8709,-1.8709,-1.8709,-1.87,-1.8647,-1.8559,-1.8598,-1.8518,-1.8421,-1.8154,-1.8021,-1.7994,-1.7801,-1.7643,-1.7837,-1.7702,-1.7685,-1.7824,-1.7816,-1.7779,-1.7551,-1.7098,-1.6806,-1.6762,-1.6744,-1.6804,-1.6784,-1.6711,-1.6572,-1.6297,-1.6257,-1.5982,-1.5597,-1.5281,-1.5022,-1.4866,-1.4599,-1.4432,-1.4414,-1.4387,-1.4387,-1.4407,-1.4488,-1.4636,-1.4803,-1.4862,-1.4862,-1.4823,-1.4725,-1.4754,-1.4931,-1.5098,-1.5294,-1.5536,-1.5923,-1.6192,-1.6345,-1.6591,-1.6846,-1.7099,-1.7239,-1.7445,-1.7772,-1.7838,-1.7984,-1.8005,-1.7807,-1.7293,-1.6658,-1.6442,-1.6237,-1.6042,-1.5909,-1.5983,-1.6134,-1.6287,-1.6349,-1.6457,-1.65,-1.6513,-1.6513,-1.6513,-1.6513,-1.6513,-1.6513,-1.6513,-1.6513,-1.6513,-1.6513,-1.6513,-1.6513,-1.6513,-1.6513,-1.6513,-1.6513,-1.6513,-1.6513,-1.6513,-1.6513,-1.6513,-1.6513,-1.6513,-1.6513,-1.6513,-1.6513,-1.6513,-1.6513,-1.6513,-1.6513,-1.6513,-1.6513,-1.6513,-1.6513,-1.8882,-1.8953,-1.8962,-1.8962,-1.9002,-1.8953,-1.8962,-1.8962,-1.8962,-1.9002,-1.8957,-1.8749,-1.8677,-1.8659,-1.847,-1.8448,-1.8413,-1.8306,-1.8171,-1.8118,-1.8072,-1.8072,-1.8045,-1.7679,-1.7394,-1.7211,-1.6982,-1.6917,-1.6908,-1.6899,-1.6789,-1.6615,-1.6597,-1.6376,-1.6037,-1.5753,-1.5661,-1.5466,-1.5084,-1.4911,-1.4993,-1.4827,-1.4743,-1.4743,-1.4793,-1.4911,-1.498,-1.5009,-1.5088,-1.5137,-1.5098,-1.5059,-1.5167,-1.5323,-1.5536,-1.5894,-1.6163,-1.6459,-1.6591,-1.6846,-1.7099,-1.7306,-1.7462,-1.7673,-1.7909,-1.8018,-1.8247,-1.839,-1.8251,-1.7897,-1.7313,-1.7003,-1.6811,-1.663,-1.6364,-1.6357,-1.643,-1.6392,-1.6349,-1.6457,-1.6513,-1.6513,-1.6513,-1.6513,-1.6513,-1.6513,-1.6513,-1.6513,-1.6513,-1.6513,-1.6513,-1.6513,-1.6513,-1.6513,-1.6513,-1.6513,-1.6513,-1.6513,-1.6513,-1.6513,-1.6513,-1.6513,-1.6513,-1.6513,-1.6513,-1.6513,-1.6513,-1.6513,-1.6513,-1.6513,-1.6513,-1.6513,-1.6513,-1.6513,-1.6513,-1.9152,-1.9292,-1.9292,-1.9292,-1.9292,-1.9253,-1.9253,-1.9292,-1.9292,-1.9253,-1.9292,-1.9292,-1.9158,-1.9265,-1.9216,-1.9274,-1.9182,-1.8971,-1.8612,-1.8458,-1.8402,-1.8402,-1.8338,-1.8191,-1.8009,-1.7642,-1.7248,-1.7055,-1.7018,-1.6936,-1.6881,-1.689,-1.6915,-1.6757,-1.6517,-1.637,-1.6266,-1.6103,-1.5688,-1.5495,-1.5553,-1.5281,-1.5103,-1.5059,-1.5049,-1.5137,-1.5205,-1.5235,-1.5293,-1.5449,-1.5468,-1.5497,-1.5565,-1.5594,-1.5739,-1.6345,-1.6459,-1.6658,-1.6874,-1.7127,-1.7323,-1.7379,-1.7673,-1.7909,-1.8045,-1.822,-1.841,-1.8598,-1.8602,-1.8541,-1.8216,-1.7796,-1.7483,-1.7303,-1.7049,-1.6938,-1.6863,-1.6602,-1.6611,-1.6436,-1.6479,-1.6491,-1.6513,-1.6513,-1.6513,-1.6513,-1.6513,-1.6513,-1.6513,-1.6513,-1.6513,-1.6513,-1.6513,-1.6513,-1.6513,-1.6513,-1.6513,-1.6513,-1.6513,-1.6513,-1.6513,-1.6513,-1.6513,-1.6513,-1.6513,-1.6513,-1.6513,-1.6513,-1.6513,-1.6513,-1.6513,-1.6513,-1.6513,-1.6513,-1.6513,-1.9262,-1.9292,-1.9292,-1.9292,-1.9292,-1.9292,-1.9292,-1.9292,-1.9292,-1.9292,-1.9292,-1.9292,-1.9292,-1.9292,-1.9292,-1.9292,-1.9265,-1.9146,-1.91,-1.9008,-1.8999,-1.8999,-1.8926,-1.8724,-1.8559,-1.833,-1.7862,-1.7485,-1.7312,-1.7092,-1.7035,-1.6961,-1.7072,-1.7083,-1.7005,-1.6919,-1.6817,-1.6713,-1.6334,-1.6148,-1.6097,-1.5823,-1.5552,-1.5429,-1.5439,-1.5488,-1.5672,-1.5711,-1.5769,-1.5817,-1.5817,-1.5961,-1.6134,-1.6192,-1.6316,-1.6459,-1.6722,-1.6948,-1.7183,-1.7368,-1.7579,-1.7733,-1.787,-1.8073,-1.8247,-1.8367,-1.8556,-1.8732,-1.883,-1.8756,-1.8253,-1.8133,-1.7869,-1.7568,-1.7412,-1.7352,-1.7412,-1.7277,-1.7005,-1.6678,-1.6557,-1.6573,-1.6732,-1.6767,-1.6691,-1.6663,-1.6563,-1.6538,-1.6513,-1.6513,-1.6513,-1.6513,-1.6513,-1.6513,-1.6513,-1.6513,-1.6513,-1.6513,-1.6513,-1.6513,-1.6513,-1.6513,-1.6513,-1.6513,-1.6513,-1.6513,-1.6513,-1.6513,-1.6513,-1.6513,-1.6513,-1.6513,-1.6513,-1.6513,-1.6513,-1.9292,-1.9292,-1.9292,-1.9292,-1.9292,-1.9292,-1.9292,-1.9292,-1.9292,-1.9292,-1.9292,-1.9292,-1.9292,-1.9292,-1.9292,-1.9292,-1.9292,-1.9292,-1.9292,-1.9292,-1.9292,-1.9292,-1.9332,-1.916,-1.9171,-1.9016,-1.8648,-1.8202,-1.7934,-1.7565,-1.7415,-1.7472,-1.7445,-1.7348,-1.7329,-1.7256,-1.7312,-1.7298,-1.7056,-1.6902,-1.7024,-1.6674,-1.6344,-1.6079,-1.5979,-1.5998,-1.5866,-1.5914,-1.5972,-1.6126,-1.6144,-1.6316,-1.6506,-1.6676,-1.6733,-1.6751,-1.6976,-1.7228,-1.7396,-1.7579,-1.776,-1.787,-1.8018,-1.822,-1.8394,-1.853,-1.8691,-1.8866,-1.8946,-1.8903,-1.865,-1.8602,-1.8482,-1.8265,-1.8001,-1.7857,-1.7822,-1.7678,-1.7387,-1.7087,-1.7205,-1.7274,-1.73,-1.7235,-1.6995,-1.6829,-1.6688,-1.6651,-1.6638,-1.6676,-1.6751,-1.6713,-1.6738,-1.6688,-1.6676,-1.6672,-1.6538,-1.6513,-1.6513,-1.6513,-1.6534,-1.6534,-1.6513,-1.6513,-1.6513,-1.6556,-1.6513,-1.6513,-1.6513,-1.6513,-1.6513,-1.6513,-1.6513,-1.6513,-1.6609,-1.9292,-1.9292,-1.9292,-1.9292,-1.9292,-1.9292,-1.9292,-1.9292,-1.9292,-1.9292,-1.9292,-1.9292,-1.9292,-1.9292,-1.9292,-1.9292,-1.9292,-1.9292,-1.9301,-1.9381,-1.9381,-1.9381,-1.946,-1.9548,-1.9629,-1.9536,-1.9408,-1.9118,-1.8592,-1.819,-1.8084,-1.8059,-1.7827,-1.7732,-1.7741,-1.7764,-1.791,-1.791,-1.7815,-1.7787,-1.7763,-1.7619,-1.7265,-1.684,-1.6768,-1.6574,-1.6388,-1.6214,-1.6259,-1.6402,-1.6488,-1.6591,-1.6818,-1.6976,-1.7078,-1.7123,-1.7256,-1.7396,-1.7579,-1.7744,-1.7897,-1.8045,-1.8247,-1.8394,-1.853,-1.8691,-1.8878,-1.8999,-1.9013,-1.8987,-1.8941,-1.8989,-1.8977,-1.8855,-1.8566,-1.8338,-1.8265,-1.817,-1.8051,-1.7921,-1.7971,-1.7872,-1.7758,-1.7688,-1.7437,-1.7445,-1.7318,-1.729,-1.7265,-1.72,-1.72,-1.7099,-1.7049,-1.6961,-1.6923,-1.6873,-1.671,-1.6513,-1.6513,-1.6513,-1.6534,-1.6522,-1.6581,-1.6665,-1.6629,-1.665,-1.6599,-1.6525,-1.6513,-1.6513,-1.6513,-1.66,-1.6798,-1.6955,-1.7074,-1.9292,-1.9292,-1.9292,-1.9292,-1.9292,-1.9292,-1.9292,-1.9292,-1.9292,-1.9292,-1.9292,-1.9292,-1.9292,-1.9292,-1.9292,-1.9292,-1.9292,-1.9332,-1.9429,-1.9557,-1.9557,-1.9627,-1.9784,-1.9824,-1.9902,-1.9932,-1.9875,-1.96,-1.9288,-1.8861,-1.8616,-1.863,-1.8595,-1.8494,-1.85,-1.8365,-1.8391,-1.8448,-1.8388,-1.8235,-1.8064,-1.8094,-1.7945,-1.7667,-1.7416,-1.7256,-1.7147,-1.6885,-1.675,-1.6757,-1.6772,-1.6825,-1.6994,-1.7145,-1.7323,-1.7396,-1.7507,-1.759,-1.7788,-1.7936,-1.8045,-1.822,-1.8394,-1.853,-1.8679,-1.8839,-1.8972,-1.8999,-1.9013,-1.9013,-1.9013,-1.9013,-1.9013,-1.9001,-1.8893,-1.8833,-1.8782,-1.859,-1.8484,-1.8533,-1.8502,-1.8226,-1.802,-1.7968,-1.7913,-1.7936,-1.7922,-1.7894,-1.7817,-1.7702,-1.7664,-1.7576,-1.7526,-1.7451,-1.743,-1.7355,-1.7191,-1.6841,-1.6816,-1.6816,-1.6973,-1.7093,-1.6878,-1.6934,-1.6948,-1.6977,-1.7004,-1.6914,-1.6635,-1.6732,-1.7036,-1.7166,-1.7225,-1.738,-1.7581,-1.9292,-1.9292,-1.9292,-1.9292,-1.9292,-1.9292,-1.9292,-1.9292,-1.9292,-1.9292,-1.9292,-1.9292,-1.9292,-1.9341,-1.939,-1.9469,-1.9508,-1.9578,-1.9666,-1.9754,-1.9794,-1.9833,-1.9912,-2.0069,-2.0186,-2.0303,-2.0411,-2.0546,-2.0185,-1.9732,-1.9416,-1.9524,-1.941,-1.9352,-1.9276,-1.9029,-1.9075,-1.9168,-1.9153,-1.9015,-1.8925,-1.8907,-1.8784,-1.8428,-1.8258,-1.8117,-1.7839,-1.7445,-1.728,-1.7273,-1.7141,-1.705,-1.7217,-1.7396,-1.7507,-1.7717,-1.7744,-1.7799,-1.7909,-1.8084,-1.822,-1.8394,-1.853,-1.8718,-1.8905,-1.8972,-1.9013,-1.9013,-1.9013,-1.9013,-1.9013,-1.9013,-1.9013,-1.9013,-1.9013,-1.9013,-1.9013,-1.9013,-1.8917,-1.8989,-1.8989,-1.8659,-1.8384,-1.8375,-1.8375,-1.8399,-1.8322,-1.8218,-1.813,-1.8028,-1.8028,-1.8066,-1.8028,-1.8026,-1.8031,-1.7989,-1.802,-1.7804,-1.7826,-1.7826,-1.7836,-1.782,-1.7603,-1.7677,-1.7891,-1.7833,-1.7638,-1.7451,-1.7302,-1.7476,-1.7724,-1.7819,-1.7936,-1.8106,-1.8288,-1.9292,-1.9292,-1.9292,-1.9292,-1.9292,-1.9292,-1.9292,-1.9292,-1.9292,-1.9292,-1.9301,-1.9341,-1.9381,-1.946,-1.9587,-1.9676,-1.9676,-1.9824,-1.9942,-1.999,-2.0069,-2.0147,-2.0264,-2.0459,-2.0615,-2.077,-2.0858,-2.0944,-2.0893,-2.0693,-2.0456,-2.0464,-2.0203,-2.0157,-2.0088,-1.9854,-1.9743,-1.9812,-1.9617,-1.9506,-1.9507,-1.9616,-1.9425,-1.9212,-1.9041,-1.8869,-1.8494,-1.8064,-1.7927,-1.7705,-1.7546,-1.7442,-1.7467,-1.7551,-1.7689,-1.7854,-1.7881,-1.7936,-1.8045,-1.8193,-1.8394,-1.853,-1.8664,-1.8878,-1.8972,-1.9013,-1.9013,-1.9013,-1.9013,-1.9013,-1.9013,-1.9013,-1.9013,-1.9013,-1.9013,-1.9013,-1.9013,-1.9013,-1.9013,-1.9013,-1.9013,-1.9013,-1.8816,-1.8851,-1.8856,-1.8883,-1.8784,-1.8594,-1.8555,-1.853,-1.8668,-1.8805,-1.8842,-1.8802,-1.867,-1.8665,-1.8697,-1.8693,-1.8703,-1.8613,-1.8485,-1.8446,-1.8341,-1.8508,-1.8761,-1.8748,-1.8567,-1.828,-1.8029,-1.8083,-1.8188,-1.8503,-1.8693,-1.8855,-1.9117,-1.9292,-1.9292,-1.9301,-1.9292,-1.9292,-1.9292,-1.9292,-1.9341,-1.9292,-1.9341,-1.9381,-1.9469,-1.9676,-1.9784,-1.9863,-1.9902,-1.9902,-1.9902,-2.0108,-2.0342,-2.0459,-2.0615,-2.0741,-2.0896,-2.1089,-2.1128,-2.1205,-2.1205,-2.1272,-2.1497,-2.1314,-2.1171,-2.0961,-2.0929,-2.0891,-2.0725,-2.0428,-2.0321,-1.9979,-1.9777,-1.9768,-1.9801,-1.9824,-1.9749,-1.9543,-1.9323,-1.928,-1.8833,-1.8463,-1.8196,-1.8097,-1.7893,-1.7801,-1.7862,-1.7978,-1.7947,-1.7991,-1.8057,-1.8111,-1.8275,-1.8452,-1.8625,-1.8813,-1.8972,-1.9013,-1.9013,-1.9013,-1.9013,-1.9013,-1.9013,-1.9013,-1.9013,-1.9013,-1.9013,-1.9013,-1.9013,-1.9013,-1.9013,-1.9013,-1.9013,-1.9013,-1.9013,-1.9093,-1.9044,-1.9098,-1.9153,-1.9345,-1.9196,-1.9309,-1.9346,-1.9535,-1.9661,-1.975,-1.9648,-1.9401,-1.9371,-1.9368,-1.9324,-1.9281,-1.9078,-1.8864,-1.891,-1.9235,-1.9183,-1.9386,-1.9439,-1.9491,-1.9248,-1.8983,-1.8673,-1.874,-1.9221,-1.9564,-1.9792,-2.0111,-1.9292,-1.9292,-1.9429,-1.939,-1.9292,-1.9292,-1.939,-1.9478,-1.9478,-1.9548,-1.9657,-1.9754,-1.9833,-1.9942,-2.0108,-2.0216,-2.0333,-2.0469,-2.0635,-2.0809,-2.0925,-2.1012,-2.1138,-2.1255,-2.1244,-2.1428,-2.1533,-2.1655,-2.1807,-2.2035,-2.2063,-2.1903,-2.1757,-2.1843,-2.1792,-2.1543,-2.1286,-2.0928,-2.059,-2.0387,-2.0356,-2.0096,-2.0009,-2.0009,-1.9944,-1.9845,-1.9737,-1.9355,-1.9153,-1.8981,-1.8806,-1.8514,-1.8278,-1.834,-1.8254,-1.8093,-1.813,-1.8107,-1.8166,-1.8356,-1.8614,-1.8801,-1.8934,-1.9013,-1.9013,-1.9013,-1.9013,-1.9013,-1.9013,-1.9013,-1.9013,-1.9013,-1.9013,-1.9013,-1.9013,-1.9013,-1.9013,-1.9013,-1.9013,-1.9013,-1.9013,-1.9013,-1.9119,-1.92,-1.9305,-1.941,-1.9618,-1.9798,-1.9837,-1.9888,-1.9952,-2.0054,-2.0131,-2.0246,-2.001,-1.9983,-2.0033,-1.9937,-1.9854,-1.9762,-1.9684,-2.0092,-2.0334,-2.0188,-2.0059,-2.0204,-2.027,-2.0195,-2.0016,-1.9736,-1.9828,-2.0175,-2.046,-2.0627,-2.083,-1.9499,-1.9508,-1.9636,-1.9557,-1.939,-1.946,-1.9548,-1.9676,-1.9676,-1.9833,-2.002,-2.0059,-2.0147,-2.0264,-2.0459,-2.0615,-2.077,-2.0906,-2.1161,-2.1347,-2.1514,-2.1632,-2.1791,-2.2019,-2.2296,-2.218,-2.2122,-2.2304,-2.2401,-2.2439,-2.2451,-2.2478,-2.2553,-2.2531,-2.2376,-2.2202,-2.1901,-2.1637,-2.1294,-2.1004,-2.0872,-2.0566,-2.0205,-2.0172,-2.0085,-2.0074,-2.0009,-1.9811,-1.9708,-1.957,-1.9446,-1.9186,-1.9041,-1.8896,-1.8737,-1.8508,-1.8329,-1.8283,-1.8239,-1.8398,-1.8721,-1.8907,-1.8987,-1.9013,-1.9013,-1.9013,-1.9013,-1.9013,-1.9013,-1.9013,-1.9013,-1.9013,-1.9013,-1.9013,-1.9013,-1.9013,-1.9013,-1.9013,-1.9013,-1.9013,-1.9025,-1.9025,-1.9184,-1.9303,-1.9486,-1.9565,-1.9682,-1.9837,-1.9901,-1.9952,-2.0067,-2.0169,-2.0283,-2.0448,-2.0561,-2.0505,-2.0475,-2.0537,-2.0505,-2.0635,-2.0737,-2.1021,-2.1021,-2.0709,-2.0682,-2.0968,-2.0915,-2.0718,-2.0748,-2.0805,-2.0818,-2.075,-2.0864,-2.0966,-2.1102,-1.9863,-1.9912,-1.9893,-1.9784,-1.9676,-1.9784,-1.9863,-1.9902,-1.9951,-2.0098,-2.0342,-2.0489,-2.0654,-2.0819,-2.0974,-2.1089,-2.1197,-2.1265,-2.1543,-2.1934,-2.2342,-2.2708,-2.3033,-2.3265,-2.3219,-2.3594,-2.3349,-2.3044,-2.303,-2.2891,-2.2784,-2.274,-2.2815,-2.2815,-2.2649,-2.2444,-2.2299,-2.2201,-2.1811,-2.1396,-2.1146,-2.0971,-2.0653,-2.0358,-2.0249,-2.026,-2.015,-2.0204,-2.009,-1.995,-2.007,-1.9844,-1.9515,-1.9577,-1.9384,-1.8954,-1.8896,-1.8667,-1.8265,-1.8495,-1.88,-1.8982,-1.896,-1.9013,-1.9013,-1.9013,-1.9013,-1.9013,-1.9013,-1.9013,-1.9013,-1.9013,-1.9013,-1.9013,-1.9013,-1.9013,-1.9013,-1.9013,-1.9013,-1.9025,-1.9025,-1.9078,-1.9237,-1.942,-1.9617,-1.9734,-1.9773,-1.9862,-1.9977,-2.0118,-2.0246,-2.0334,-2.0485,-2.0624,-2.0787,-2.0873,-2.0932,-2.0997,-2.1046,-2.112,-2.1144,-2.1204,-2.1155,-2.1071,-2.1131,-2.1277,-2.1253,-2.1177,-2.1218,-2.1218,-2.112,-2.1104,-2.1204,-2.1326,-2.1447,-1.9912,-1.9902,-2.0108,-2.0225,-2.0225,-1.999,-1.9981,-2.0186,-2.0469,-2.0702,-2.0858,-2.0964,-2.1012,-2.1128,-2.1205,-2.1359,-2.163,-2.2017,-2.2282,-2.2697,-2.3137,-2.3406,-2.3727,-2.3852,-2.3879,-2.3844,-2.3741,-2.3616,-2.3288,-2.3264,-2.3102,-2.3014,-2.2964,-2.2953,-2.2905,-2.2779,-2.2783,-2.2684,-2.2324,-2.1974,-2.18,-2.1494,-2.1123,-2.0664,-2.0609,-2.0489,-2.0347,-2.0422,-2.0374,-2.0398,-2.0565,-2.0401,-2.0118,-2.0171,-1.993,-1.9539,-1.9424,-1.9425,-1.9327,-1.9457,-1.9313,-1.9134,-1.903,-1.9107,-1.9049,-1.9025,-1.9013,-1.9049,-1.911,-1.9098,-1.9013,-1.9013,-1.9013,-1.9013,-1.9013,-1.9013,-1.9013,-1.9013,-1.9025,-1.9052,-1.9052,-1.9273,-1.947,-1.9887,-2.0109,-2.0191,-2.0269,-2.0117,-2.0169,-2.0347,-2.0511,-2.0586,-2.0711,-2.0823,-2.0999,-2.14,-2.1565,-2.1587,-2.1488,-2.1375,-2.141,-2.1477,-2.1458,-2.1434,-2.1482,-2.153,-2.1544,-2.1544,-2.1568,-2.1568,-2.152,-2.1496,-2.1554,-2.1664,-2.1759,-2.0159,-2.0381,-2.0537,-2.0693,-2.0731,-2.042,-2.0381,-2.0625,-2.0896,-2.1089,-2.1205,-2.132,-2.1397,-2.1474,-2.1578,-2.1693,-2.205,-2.2467,-2.2953,-2.3381,-2.3937,-2.4258,-2.4438,-2.4497,-2.474,-2.4527,-2.4435,-2.436,-2.4093,-2.3819,-2.3433,-2.3062,-2.3001,-2.3001,-2.299,-2.2979,-2.2968,-2.287,-2.263,-2.2433,-2.2226,-2.1953,-2.1603,-2.1233,-2.0994,-2.0797,-2.0665,-2.0619,-2.0637,-2.085,-2.091,-2.0882,-2.0713,-2.0607,-2.0412,-2.0102,-1.9757,-1.9771,-1.9755,-1.986,-1.9648,-1.944,-1.9455,-1.9552,-1.9564,-1.9672,-1.966,-1.96,-1.9399,-1.9326,-1.9302,-1.9278,-1.911,-1.911,-1.9122,-1.9122,-1.911,-1.9122,-1.916,-1.9175,-1.9305,-1.9515,-1.9901,-2.0295,-2.0693,-2.0725,-2.0768,-2.0629,-2.0553,-2.0758,-2.109,-2.1309,-2.1515,-2.1827,-2.2034,-2.2227,-2.2301,-2.2223,-2.2084,-2.1931,-2.1832,-2.1938,-2.1883,-2.1793,-2.1746,-2.1722,-2.1855,-2.1902,-2.1949,-2.202,-2.2067,-2.202,-2.1959,-2.1983,-2.2044,-2.0584,-2.1116,-2.1195,-2.1167,-2.1205,-2.1051,-2.1061,-2.1205,-2.1205,-2.1244,-2.1282,-2.1693,-2.1807,-2.1873,-2.2187,-2.2338,-2.2524,-2.2917,-2.337,-2.3959,-2.4559,-2.501,-2.5384,-2.5596,-2.5487,-2.5548,-2.5426,-2.5047,-2.5011,-2.412,-2.3482,-2.3154,-2.3045,-2.3012,-2.3001,-2.3001,-2.3001,-2.2957,-2.2914,-2.2706,-2.2451,-2.2368,-2.2062,-2.1715,-2.1388,-2.1249,-2.1108,-2.0995,-2.0934,-2.1026,-2.1085,-2.1169,-2.1178,-2.119,-2.0879,-2.0481,-2.0033,-1.9982,-1.9978,-2.0132,-2.0222,-2.0211,-2.0444,-2.0572,-2.0466,-2.031,-2.0249,-2.0177,-2.0021,-1.9889,-1.9805,-1.9528,-1.9263,-1.9275,-1.9275,-1.9263,-1.9239,-1.9305,-1.9356,-1.9449,-1.9592,-1.9902,-2.053,-2.0983,-2.135,-2.1463,-2.1572,-2.1824,-2.172,-2.1577,-2.1942,-2.2403,-2.268,-2.3024,-2.3167,-2.3028,-2.3048,-2.2958,-2.2859,-2.2719,-2.2577,-2.2419,-2.2338,-2.2223,-2.1971,-2.1949,-2.2114,-2.2231,-2.231,-2.2394,-2.237,-2.2347,-2.2231,-2.2208,-2.2278,-2.0537,-2.0725,-2.1074,-2.1349,-2.1655,-2.1883,-2.1883,-2.1655,-2.1655,-2.1769,-2.2063,-2.2176,-2.2214,-2.2262,-2.2327,-2.2478,-2.2901,-2.3429,-2.3939,-2.4494,-2.5033,-2.555,-2.5768,-2.5853,-2.5895,-2.5863,-2.571,-2.5469,-2.5022,-2.4213,-2.3705,-2.3487,-2.3143,-2.3045,-2.3001,-2.3001,-2.3001,-2.3001,-2.3001,-2.2892,-2.2805,-2.275,-2.2466,-2.2174,-2.2053,-2.1939,-2.1754,-2.152,-2.1493,-2.16,-2.1321,-2.1224,-2.1201,-2.1201,-2.1052,-2.1017,-2.0845,-2.0787,-2.0807,-2.0896,-2.0962,-2.1068,-2.1329,-2.1051,-2.0852,-2.0706,-2.0718,-2.0706,-2.0586,-2.043,-2.031,-2.0081,-1.9877,-1.9841,-1.988,-1.988,-1.9896,-1.9979,-2.0046,-2.0196,-2.033,-2.0777,-2.1375,-2.1733,-2.2067,-2.2182,-2.2399,-2.2734,-2.2817,-2.2658,-2.2804,-2.3299,-2.3579,-2.3874,-2.3759,-2.3604,-2.3693,-2.3701,-2.3629,-2.3582,-2.3532,-2.3343,-2.2951,-2.2652,-2.2399,-2.2362,-2.2431,-2.2509,-2.2546,-2.2532,-2.2546,-2.2523,-2.2523,-2.2477,-2.25,-2.0549,-2.0987,-2.1254,-2.1631,-2.2052,-2.2289,-2.2289,-2.2149,-2.2073,-2.2176,-2.2402,-2.2478,-2.2515,-2.2515,-2.2628,-2.2724,-2.2901,-2.3547,-2.4085,-2.4581,-2.5284,-2.5622,-2.5808,-2.5895,-2.5895,-2.5895,-2.5874,-2.5721,-2.5218,-2.4541,-2.3995,-2.3618,-2.3241,-2.3056,-2.3001,-2.3001,-2.3001,-2.3001,-2.3001,-2.3001,-2.3038,-2.3086,-2.2915,-2.2754,-2.2759,-2.2615,-2.2486,-2.2196,-2.207,-2.2123,-2.1765,-2.1512,-2.1443,-2.1351,-2.1201,-2.1155,-2.1144,-2.1098,-2.1129,-2.1172,-2.142,-2.1612,-2.1769,-2.1628,-2.1494,-2.1392,-2.1368,-2.1332,-2.1115,-2.0923,-2.0827,-2.073,-2.0634,-2.0538,-2.0607,-2.0648,-2.0734,-2.0819,-2.0933,-2.1115,-2.14,-2.1832,-2.2235,-2.256,-2.2883,-2.3141,-2.3472,-2.3804,-2.3809,-2.3595,-2.3811,-2.4205,-2.4422,-2.4623,-2.4426,-2.4394,-2.4611,-2.4689,-2.4559,-2.4498,-2.4473,-2.413,-2.3674,-2.324,-2.2856,-2.2798,-2.2692,-2.2681,-2.2689,-2.2675,-2.2684,-2.2706,-2.2698,-2.2689,-2.2758,-2.0526,-2.1526,-2.1705,-2.1998,-2.2371,-2.2451,-2.2542,-2.2703,-2.2515,-2.2478,-2.2515,-2.2639,-2.274,-2.274,-2.2852,-2.2927,-2.3117,-2.3553,-2.3989,-2.4465,-2.5062,-2.5478,-2.5688,-2.5884,-2.5895,-2.5895,-2.5863,-2.5775,-2.5546,-2.4869,-2.4126,-2.3694,-2.3241,-2.3012,-2.3001,-2.3001,-2.3038,-2.3075,-2.3075,-2.3075,-2.3113,-2.3198,-2.3335,-2.3272,-2.3151,-2.3005,-2.301,-2.2832,-2.256,-2.2502,-2.2317,-2.2007,-2.1732,-2.1454,-2.127,-2.1201,-2.1201,-2.1201,-2.1233,-2.1253,-2.1423,-2.1592,-2.1718,-2.1822,-2.1841,-2.1861,-2.1825,-2.1789,-2.1584,-2.1488,-2.1404,-2.1343,-2.1264,-2.1269,-2.1328,-2.137,-2.1458,-2.1591,-2.1824,-2.2063,-2.2464,-2.2834,-2.3,-2.3329,-2.3708,-2.4081,-2.429,-2.4632,-2.4706,-2.4477,-2.4627,-2.4943,-2.5039,-2.5187,-2.5351,-2.5403,-2.5666,-2.5705,-2.5447,-2.5372,-2.527,-2.485,-2.4351,-2.3913,-2.345,-2.3062,-2.2899,-2.2887,-2.2861,-2.2803,-2.2812,-2.288,-2.2909,-2.2987,-2.3149,-2.0376,-2.0722,-2.1582,-2.2187,-2.2633,-2.2777,-2.2889,-2.2927,-2.2889,-2.2852,-2.2889,-2.2889,-2.2927,-2.2927,-2.2964,-2.3001,-2.311,-2.3405,-2.3716,-2.4181,-2.4705,-2.5106,-2.5456,-2.5666,-2.5819,-2.5895,-2.5852,-2.5677,-2.5327,-2.477,-2.4224,-2.3694,-2.3252,-2.3001,-2.3038,-2.3038,-2.3075,-2.3224,-2.3224,-2.3261,-2.3261,-2.3261,-2.3324,-2.3497,-2.3537,-2.3575,-2.3548,-2.3357,-2.3222,-2.3144,-2.2742,-2.234,-2.1906,-2.1489,-2.1247,-2.1213,-2.1236,-2.1201,-2.1233,-2.1285,-2.1443,-2.1655,-2.1792,-2.1968,-2.2111,-2.2166,-2.2173,-2.2168,-2.212,-2.2036,-2.1982,-2.1922,-2.1886,-2.1958,-2.2048,-2.2108,-2.2168,-2.2424,-2.269,-2.3043,-2.3438,-2.3635,-2.379,-2.4087,-2.4481,-2.4679,-2.478,-2.4992,-2.5217,-2.5191,-2.519,-2.5425,-2.5494,-2.5659,-2.5893,-2.6029,-2.6111,-2.6192,-2.5975,-2.5973,-2.6028,-2.5503,-2.493,-2.448,-2.4057,-2.3697,-2.3374,-2.3103,-2.3053,-2.3155,-2.3244,-2.342,-2.3504,-2.3577,-2.3716,-2.0295,-2.0698,-2.1674,-2.2262,-2.2548,-2.2866,-2.3001,-2.3001,-2.3001,-2.3001,-2.3001,-2.3001,-2.3001,-2.3001,-2.3001,-2.3001,-2.3045,-2.3263,-2.3547,-2.3919,-2.4224,-2.4574,-2.4956,-2.5338,-2.5511,-2.5609,-2.5557,-2.5371,-2.5033,-2.4454,-2.3869,-2.3618,-2.3263,-2.3038,-2.3113,-2.315,-2.3224,-2.3409,-2.3457,-2.3494,-2.3519,-2.3556,-2.3593,-2.3787,-2.3897,-2.4007,-2.3986,-2.383,-2.3808,-2.3602,-2.3247,-2.2788,-2.2329,-2.1824,-2.156,-2.1445,-2.1374,-2.1201,-2.1265,-2.1348,-2.1506,-2.1686,-2.1843,-2.1999,-2.2266,-2.2309,-2.2309,-2.2304,-2.2304,-2.2231,-2.2366,-2.2341,-2.236,-2.239,-2.259,-2.274,-2.2847,-2.3086,-2.3322,-2.3596,-2.3907,-2.3995,-2.4195,-2.4469,-2.482,-2.4905,-2.5047,-2.5258,-2.5495,-2.5674,-2.5771,-2.5839,-2.5866,-2.5893,-2.6002,-2.6138,-2.6245,-2.6326,-2.6406,-2.6416,-2.6325,-2.5957,-2.5488,-2.5152,-2.4775,-2.4423,-2.4085,-2.378,-2.3838,-2.407,-2.4069,-2.4052,-2.4122,-2.4273,-2.4614,-2.0291,-2.0993,-2.1756,-2.2215,-2.2368,-2.2728,-2.2947,-2.299,-2.3001,-2.3001,-2.3001,-2.3001,-2.3001,-2.3001,-2.3001,-2.3001,-2.3034,-2.3099,-2.3329,-2.3514,-2.3694,-2.4093,-2.4465,-2.4836,-2.5051,-2.5128,-2.5087,-2.4989,-2.4781,-2.4192,-2.3766,-2.3591,-2.3382,-2.3139,-2.3298,-2.3372,-2.3457,-2.3604,-2.3677,-2.3751,-2.3824,-2.3886,-2.3897,-2.397,-2.408,-2.4189,-2.4189,-2.4189,-2.4177,-2.3959,-2.3614,-2.3189,-2.2788,-2.2306,-2.1984,-2.1801,-2.1548,-2.1374,-2.1288,-2.1411,-2.1549,-2.1718,-2.1831,-2.208,-2.2359,-2.2451,-2.2451,-2.2512,-2.2512,-2.2512,-2.2647,-2.2769,-2.2769,-2.28,-2.303,-2.3288,-2.3467,-2.3645,-2.3865,-2.4112,-2.4258,-2.4361,-2.4591,-2.4863,-2.5047,-2.5131,-2.5272,-2.5508,-2.5702,-2.5784,-2.5893,-2.6002,-2.6111,-2.6138,-2.615,-2.6245,-2.6379,-2.6486,-2.6606,-2.6686,-2.6666,-2.6321,-2.6086,-2.5923,-2.5546,-2.5096,-2.4878,-2.4646,-2.4776,-2.483,-2.4669,-2.4575,-2.4849,-2.5077,-2.5631,-2.0391,-2.0916,-2.1113,-2.157,-2.2248,-2.2375,-2.2652,-2.2968,-2.299,-2.3001,-2.3001,-2.3001,-2.3001,-2.3001,-2.3001,-2.3001,-2.3001,-2.3001,-2.3001,-2.3143,-2.3444,-2.3684,-2.3956,-2.4366,-2.4563,-2.4639,-2.4618,-2.4388,-2.4301,-2.3919,-2.359,-2.3411,-2.3367,-2.3335,-2.3519,-2.3567,-2.3641,-2.3787,-2.3861,-2.3934,-2.4018,-2.4055,-2.4018,-2.4091,-2.4189,-2.4189,-2.4189,-2.4189,-2.4189,-2.4039,-2.3775,-2.3453,-2.319,-2.2857,-2.2489,-2.2178,-2.1914,-2.1677,-2.1623,-2.1607,-2.173,-2.1874,-2.2049,-2.2266,-2.2482,-2.2616,-2.2696,-2.2878,-2.2848,-2.2739,-2.283,-2.3,-2.306,-2.315,-2.3318,-2.3628,-2.3865,-2.3982,-2.4171,-2.439,-2.4578,-2.4692,-2.4835,-2.509,-2.5314,-2.5397,-2.5508,-2.5715,-2.5839,-2.5907,-2.6015,-2.615,-2.6299,-2.6392,-2.6431,-2.6418,-2.6539,-2.6659,-2.6738,-2.6753,-2.6779,-2.6765,-2.6547,-2.6329,-2.6079,-2.5701,-2.5487,-2.5454,-2.5286,-2.5277,-2.5077,-2.5057,-2.5422,-2.5833,-2.6346]},{"header":{"parameterUnit":"m.s-1","parameterCategory":1,"la1":31.0,"la2":29.5877,"lo1":-88.7671,"lo2":-86.6584,"dy":0.0162,"dx":0.0185,"nx":115,"ny":88,"refTime":"2023-08-30T06:00:00:Z","depth":0,"parameterNumber":3,"parameterNumberName":"V-component_of_WINDS"},"data":[0.0,0.0,0.0,0.0,0.0,0.0,0.0,0.0,0.0,0.0,0.0,0.0,0.0,0.0,0.0,0.0,0.0,0.0,0.0,0.0,0.0,0.0,0.0,0.0,0.0,0.0,0.0,0.0,0.0,0.0,0.0,0.0,0.0,0.0,0.0,0.0,0.0,0.0,0.0,0.0,0.0,0.0,0.0,0.0,0.0,0.0,0.0,0.0,0.0,0.0,0.0,0.0,0.0,0.0,0.0,0.0,0.0,0.0,0.0,0.0,0.0,0.0,0.0,0.0,0.0,0.0,0.0,0.0,0.0,0.0,0.0,0.0,0.0,0.0,0.0,0.0,0.0,0.0,0.0,0.0,0.0,0.0,0.0,0.0,0.0,0.0,0.0,0.0,0.0,0.0,0.0,0.0,0.0,0.0,0.0,0.0,0.0,0.0,0.0,0.0,0.0,0.0,0.0,0.0,0.0,0.0,0.0,0.0,0.0,0.0,0.0,0.0,0.0,0.0,0.0,0.0,0.0,0.0,0.0,0.0,0.0,0.0,0.0,0.0,0.0,0.0,0.0,0.0,0.0,0.0,0.0,0.0,0.0,0.0,0.0,0.0,0.0,0.0,0.0,0.0,0.0,0.0,0.0,0.0,0.0,0.0,0.0,0.0,0.0,0.0,0.0,0.0,0.0,0.0,0.0,0.0,0.0,0.0,0.0,0.0,0.0,0.0,0.0,0.0,0.0,0.0,0.0,0.0,0.0,0.0,0.0,0.0,0.0,0.0,0.0,0.0,0.0,0.0,0.0,0.0,0.0,0.0,0.0,0.0,0.0,0.0,0.0,0.0,0.0,0.0,0.0,0.0,0.0,0.0,0.0,0.0,0.0,0.0,0.0,0.0,0.0,0.0,0.0,0.0,0.0,0.0,0.0,0.0,0.0,0.0,0.0,0.0,0.0,0.0,0.0,0.0,0.0,0.0,0.0,0.0,0.0,0.0,0.0,0.0,0.0,0.0,0.0,0.0,0.0,0.0,0.0,0.0,0.0,0.0,0.0,0.0,0.0,0.0,0.0,0.0,0.0,0.0,0.0,0.0,0.0,0.0,0.0,0.0,0.0,0.0,0.0,0.0,0.0,0.0,0.0,0.0,0.0,0.0,0.0,0.0,0.0,0.0,0.0,0.0,0.0,0.0,0.0,0.0,0.0,0.0,0.0,0.0,0.0,0.0,0.0,0.0,0.0,0.0,0.0,0.0,0.0,0.0,0.0,0.0,0.0,0.0,0.0,0.0,0.0,0.0,0.0,0.0,0.0,0.0,0.0,0.0,0.0,0.0,0.0,0.0,0.0,0.0,0.0,0.0,0.0,0.0,0.0,0.0,0.0,0.0,0.0,0.0,0.0,0.0,0.0,0.0,0.0,0.0,0.0,0.0,0.0,0.0,0.0,0.0,0.0,0.0,0.0,0.0,0.0,0.0,0.0,0.0,0.0,0.0,0.0,0.0,0.0,0.0,0.0,0.0,0.0,0.0,0.0,0.0,0.0,0.0,0.0,0.0,0.0,0.0,0.0,0.0,0.0,0.0,0.0,0.0,0.0,0.0,0.0,0.0,0.0,0.0,0.0,0.0,0.0,0.0,0.0,0.0,0.0,0.0,0.0,0.0,0.0,0.0,0.0,0.0,0.0,0.0,0.0,0.0,0.0,0.0,0.0,0.0,0.0,0.0,0.0,0.0,0.0,0.0,0.0,0.0,0.0,0.0,0.0,0.0,0.0,0.0,0.0,0.0,0.0,0.0,0.0,0.0,0.0,0.0,0.0,0.0,0.0,0.0,0.0,0.0,0.0,0.0,0.0,0.0,0.0,0.0,0.0,0.0,0.0,0.0,0.0,0.0,0.0,0.0,0.0,0.0,0.0,0.0,0.0,0.0,0.0,0.0,0.0,0.0,0.0,0.0,0.0,0.0,0.0,0.0,0.0,0.0,0.0,0.0,0.0,0.0,0.0,0.0,0.0,0.0,0.0,0.0,0.0,0.0,0.0,0.0,0.0,0.0,0.0,0.0,0.0,0.0,0.0,0.0,0.0,0.0,0.0,0.0,0.0,0.0,0.0,0.0,0.0,0.0,0.0,0.0,0.0,0.0,0.0,0.0,0.0,0.0,0.0,0.0,0.0,0.0,0.0,0.0,0.0,0.0,0.0,0.0,0.0,0.0,0.0,0.0,0.0,0.0,0.0,0.0,0.0,0.0,0.0,0.0,0.0,0.0,0.0,0.0,0.0,0.0,0.0,0.0,0.0,0.0,0.0,0.0,0.0,0.0,0.0,0.0,0.0,0.0,0.0,0.0,0.0,0.0,0.0,0.0,0.0,0.0,0.0,0.0,0.0,0.0,0.0,0.0,0.0,0.0,0.0,0.0,0.0,0.0,0.0,0.0,0.0,0.0,0.0,0.0,0.0,0.0,0.0,0.0,0.0,0.0,0.0,0.0,0.0,0.0,0.0,0.0,0.0,0.0,0.0,0.0,0.0,0.0,0.0,0.0,0.0,0.0,0.0,0.0,0.0,0.0,0.0,0.0,0.0,0.0,0.0,0.0,0.0,0.0,0.0,0.0,0.0,0.0,0.0,0.0,0.0,0.0,0.0,0.0,0.0,0.0,0.0,0.0,0.0,0.0,0.0,0.0,0.0,0.0,0.0,0.0,0.0,0.0,0.0,0.0,0.0,0.0,0.0,0.0,0.0,0.0,0.0,0.0,0.0,0.0,0.0,0.0,0.0,0.0,0.0,0.0,0.0,0.0,0.0,0.0,0.0,0.0,0.0,0.0,0.0,0.0,0.0,0.0,0.0,0.0,0.0,0.0,0.0,0.0,0.0,0.0,0.0,0.0,0.0,0.0,0.0,0.0,0.0,0.0,0.0,0.0,0.0,0.0,0.0,0.0,0.0,0.0,0.0,0.0,0.0,0.0,0.0,0.0,0.0,0.0,0.0,0.0,0.0,0.0,0.0,0.0,0.0,0.0,0.0,0.0,0.0,0.0,0.0,0.0,0.0,0.0,0.0,0.0,0.0,0.0,0.0,0.0,0.0,0.0,0.0,0.0,0.0,0.0,0.0,0.0,0.0,0.0,0.0,0.0,0.0,0.0,0.0,0.0,0.0,0.0,0.0,0.0,0.0,0.0,0.0,0.0,0.0,0.0,0.0,0.0,0.0,0.0,0.0,0.0,0.0,0.0,0.0,0.0,0.0,0.0,0.0,0.0,0.0,0.0,0.0,0.0,0.0,0.0,0.0,0.0,0.0,0.0,0.0,0.0,0.0,0.0,0.0,0.0,0.0,0.0,0.0,0.0,0.0,0.0,0.0,0.0,0.0,0.0,0.0,0.0,0.0,0.0,0.0,0.0,0.0,0.0,0.0,0.0,0.0,0.0,0.0,0.0,0.0,0.0,0.0,0.0,0.0,0.0,0.0,0.0,0.0,0.0,0.0,0.0,0.0,0.0,0.0,0.0,0.0,0.0,0.0,0.0,0.0,0.0,0.0,0.0,0.0,0.0,0.0,0.0,0.0,0.0,0.0,0.0,0.0,0.0,0.0,0.0,0.0,0.0,0.0,0.0,0.0,0.0,0.0,0.0,0.0,0.0,0.0,0.0,0.0,0.0,0.0,0.0,0.0,0.0,0.0,0.0,0.0,0.0,0.0,0.0,0.0,0.0,0.0,0.0,0.0,0.0,0.0,0.0,0.0,0.0,0.0,0.0,0.0,0.0,0.0,0.0,0.0,0.0,0.0,0.0,0.0,0.0,0.0,0.0,0.0,0.0,0.0,0.0,0.0,0.0,0.0,0.0,0.0,0.0,0.0,0.0,0.0,0.0,0.0,0.0,0.0,0.0,0.0,0.0,0.0,0.0,0.0,0.0,0.0,0.0,0.0,0.0,0.0,0.0,0.0,0.0,0.0,0.0,0.0,0.0,0.0,0.0,0.0,0.0,0.0,0.0,0.0,0.0,0.0,0.0,0.0,0.0,0.0,0.0,0.0,0.0,0.0,0.0,0.0,0.0,0.0,0.0,0.0,0.0,0.0,0.0,0.0,0.0,0.0,0.0,0.0,0.0,0.0,0.0,0.0,0.0,0.0,0.0,0.0,0.0,0.0,0.0,0.0,0.0,0.0,0.0,0.0,0.0,0.0,0.0,0.0,0.0,0.0,0.0,0.0,0.0,0.0,0.0,0.0,0.0,0.0,0.0,0.0,0.0,0.0,0.0,0.0,0.0,0.0,0.0,0.0,0.0,0.0,0.0,0.9303,0.0,0.0,0.0,0.0,0.0,0.0,0.0,0.0,0.0,0.0,0.0,0.0,0.0,0.0,0.0,0.0,0.0,0.0,0.0,0.0,0.0,0.0,0.0,0.0,0.0,0.0,0.0,0.0,0.0,0.0,0.0,0.0,0.0,0.0,0.0,0.0,0.0,0.0,0.0,0.0,0.0,0.0,0.0,0.0,0.0,0.0,0.0,0.0,0.0,0.0,0.0,0.0,0.0,0.0,0.0,0.0,0.0,0.0,0.0,0.0,0.0,0.0,0.0,0.0,0.0,0.0,0.0,0.0,0.0,0.0,0.0,0.0,0.0,0.0,0.0,0.0,0.0,0.0,0.0,0.0,0.0,0.0,0.0,0.0,0.0,0.0,0.0,0.0,0.0,0.0,0.0,0.0,0.0,0.0,0.0,0.0,0.0,0.0,0.0,0.0,0.0,0.0,0.0,0.0,0.0,0.0,0.0,0.0,0.0,0.0,0.9044,0.9107,0.9189,0.9285,0.9335,0.0,0.0,0.0,0.0,0.0,0.0,0.0,0.0,0.0,0.0,0.0,0.0,0.0,0.0,0.0,0.0,0.0,0.0,0.0,0.0,0.0,0.0,0.0,0.0,0.0,0.0,0.0,0.0,0.0,0.0,0.0,0.0,0.0,0.0,0.0,0.0,0.0,0.0,0.0,0.0,0.0,0.0,0.0,0.0,0.0,0.0,0.0,0.0,0.0,0.0,0.0,0.0,0.0,0.0,0.0,0.0,0.0,0.0,0.0,0.0,0.0,0.0,0.0,0.0,0.0,0.0,0.0,0.0,0.0,0.0,0.0,0.0,0.0,0.0,0.0,0.0,0.0,0.0,0.0,0.0,0.0,0.0,0.0,0.0,0.0,0.0,0.0,0.0,0.0,0.0,0.0,0.0,0.0,0.0,0.0,0.0,0.0,0.0,0.0,0.0,0.0,0.0,0.0,0.0,0.0,0.0,0.0,0.0,0.0,0.0,0.0,0.0,0.9226,0.9357,0.9435,0.0,0.0,0.0,0.0,0.0,0.0,0.0,0.0,0.0,0.0,0.0,0.0,0.0,0.0,0.0,0.0,0.0,0.0,0.0,0.0,0.0,0.0,0.0,0.0,0.0,0.0,0.0,0.0,0.0,0.0,0.0,0.0,0.0,0.0,0.0,0.0,0.0,0.0,0.0,0.0,0.0,0.0,0.0,0.0,0.0,0.0,0.0,0.0,0.0,0.0,0.0,0.0,0.0,0.0,0.0,0.0,0.0,0.0,0.0,0.0,0.0,0.0,0.0,0.0,0.0,0.0,0.0,0.0,0.0,0.0,0.0,0.0,0.0,0.0,0.0,0.0,0.0,0.0,0.0,0.0,0.0,0.0,0.0,0.0,0.0,0.0,0.0,0.0,0.0,0.0,0.0,0.0,0.0,0.0,0.0,0.0,0.0,0.0,0.0,0.0,0.0,0.0,0.0,0.0,0.0,0.0,0.0,0.0,0.0,0.0,0.9131,0.9179,0.9269,0.0,0.9562,0.0,0.0,0.0,0.0,0.0,0.0,0.0,0.0,0.0,0.0,0.0,0.0,0.0,0.0,0.0,0.0,0.0,0.0,0.0,0.0,0.0,0.0,0.0,0.0,0.0,0.0,0.0,0.0,0.0,0.0,0.0,0.0,0.0,0.0,0.0,0.0,0.0,0.0,0.0,0.0,0.0,0.0,0.0,0.0,0.0,0.0,0.0,0.0,0.0,0.0,0.0,0.0,0.0,0.0,0.0,0.0,0.0,0.0,0.0,0.0,0.0,0.0,0.0,0.0,0.0,0.0,0.0,0.0,0.0,0.0,0.0,0.0,0.0,0.0,0.0,0.0,0.0,0.0,0.0,0.0,0.0,0.0,0.0,0.0,0.0,0.0,0.0,0.0,0.0,0.0,0.0,0.0,0.0,0.0,0.0,0.0,0.0,0.0,0.0,0.0,0.0,0.0,0.0,0.0,0.0,0.0,0.0,0.0,0.0,0.0,0.9182,0.9176,0.9353,0.9479,0.0,0.0,0.0,0.0,0.0,0.0,0.0,0.0,0.0,0.0,0.0,0.0,0.0,0.0,0.0,0.0,0.0,0.0,0.0,0.0,0.0,0.0,0.0,0.0,0.0,0.0,0.0,0.0,0.0,0.0,0.0,0.0,0.0,0.0,0.0,0.0,0.0,0.0,0.0,0.0,0.0,0.0,0.0,0.0,0.0,0.0,0.0,0.0,0.0,0.0,0.0,0.0,0.0,0.0,0.0,0.0,0.0,0.0,0.0,0.0,0.0,0.0,0.0,0.0,0.0,0.0,0.0,0.0,0.0,0.0,0.0,0.0,0.0,0.0,0.0,0.0,0.0,0.0,0.0,0.0,0.0,0.0,0.0,0.0,0.0,0.0,0.0,0.0,0.0,0.0,0.0,0.0,0.0,0.0,0.0,0.0,0.0,0.0,0.0,0.0,0.0,0.0,0.0,0.0,0.0,0.0,0.0,0.0,0.0,0.0,0.9224,0.9237,0.9284,0.9412,0.9527,0.9615,0.0,0.0,0.0,0.0,0.0,0.0,0.0,0.0,0.0,0.0,0.0,0.0,0.0,0.0,0.0,0.0,0.0,0.0,0.0,0.0,0.0,0.0,0.0,0.0,0.0,0.0,0.0,0.0,0.0,0.0,0.0,0.0,0.0,0.0,0.0,0.0,0.0,0.0,0.0,0.0,0.0,0.0,0.0,0.0,0.0,0.0,0.0,0.0,0.0,0.0,0.0,0.0,0.0,0.0,0.0,0.0,0.0,0.0,0.0,0.0,0.0,0.0,0.0,0.0,0.0,0.0,0.0,0.0,0.0,0.0,0.0,0.0,0.0,0.0,0.0,0.0,0.0,0.0,0.0,0.0,0.0,0.0,0.0,0.0,0.0,0.0,0.0,0.0,0.0,0.0,0.0,0.0,0.0,0.0,0.0,0.0,0.0,0.0,0.0,0.0,0.0,0.0,0.0,0.0,0.0,0.0,0.0,0.0,0.9216,0.9269,0.9367,0.9493,0.9491,0.9568,0.0,0.0,0.0,0.0,0.0,0.0,0.0,0.0,0.0,0.0,0.0,0.0,0.0,0.0,0.0,0.0,0.0,0.0,0.0,0.0,0.0,0.0,0.0,0.0,0.0,0.0,0.0,0.0,0.0,0.0,0.0,0.0,0.0,0.0,0.0,0.0,0.0,0.0,0.0,0.0,0.0,0.0,0.0,0.0,0.0,0.0,0.0,0.0,0.0,0.0,0.0,0.0,0.0,0.0,0.0,0.0,0.0,0.0,0.0,0.0,0.0,0.0,0.0,0.0,0.0,0.0,0.0,0.0,0.0,0.0,0.0,0.0,0.0,0.0,0.0,0.0,0.0,0.0,0.0,0.0,0.0,0.0,0.0,0.0,0.0,0.0,0.0,0.0,0.0,0.0,0.0,0.0,0.0,0.0,0.0,0.0,0.0,0.0,0.0,0.0,0.0,0.0,0.0,0.0,0.0,0.0,0.0,0.0,0.0,0.9279,0.9344,0.9421,0.9487,0.9556,0.9609,0.0,0.0,0.0,0.0,0.0,0.0,0.0,0.0,0.0,0.0,0.0,0.0,0.0,0.0,0.0,0.0,0.0,0.0,0.0,0.0,0.0,0.0,0.0,0.0,0.0,0.0,0.0,0.0,0.0,0.0,0.0,0.0,0.0,0.0,0.0,0.0,0.0,0.0,0.0,0.0,0.0,0.0,0.0,0.0,0.0,0.0,0.0,0.0,0.0,0.0,0.0,0.0,0.0,0.0,0.0,0.0,0.0,0.0,0.0,0.0,0.0,0.0,0.0,0.0,0.0,0.0,0.0,0.0,0.0,0.0,0.0,0.0,0.0,0.0,0.0,0.0,0.0,0.0,0.0,0.0,0.0,0.0,0.0,0.0,0.0,0.0,0.0,0.0,0.0,0.0,0.0,0.0,0.0,0.0,0.0,0.0,0.0,0.0,0.0,0.0,0.0,0.0,0.0,0.0,0.0,0.0,0.0,0.0,0.0,0.9358,0.0,0.9452,0.0,0.9601,0.9675,0.0,0.0,0.0,0.0,0.0,0.0,0.0,0.0,0.0,0.0,0.0,0.0,0.0,0.0,0.0,0.0,0.0,0.0,0.0,0.0,0.0,0.0,0.0,0.0,0.0,0.0,0.0,0.0,0.0,0.0,0.0,0.0,0.0,0.0,0.0,0.0,0.0,0.0,0.0,0.0,0.0,0.0,0.0,0.0,0.0,0.0,0.0,0.0,0.0,0.0,0.0,0.0,0.0,0.0,0.0,0.0,0.0,0.0,0.0,0.0,0.0,0.0,0.0,0.0,0.0,0.0,0.0,0.0,0.0,0.0,0.0,0.0,0.0,0.0,0.0,0.0,0.0,0.0,0.0,0.0,0.0,0.0,0.0,0.0,0.0,0.0,0.0,0.0,0.0,0.0,0.0,0.0,0.0,0.0,0.0,0.0,0.0,0.0,0.0,0.0,0.0,0.0,0.0,0.0,0.0,0.0,0.0,0.0,0.9496,0.9483,0.9483,0.9527,0.9605,0.9657,0.9732,0.0,0.0,0.0,0.0,0.0,0.0,0.0,0.0,0.0,0.0,0.0,0.0,0.0,0.0,0.0,0.0,0.0,0.0,0.0,0.0,0.0,0.0,0.0,0.0,0.0,0.0,0.0,0.0,0.0,0.0,0.0,0.0,0.0,0.0,0.0,0.0,0.0,0.0,0.0,0.0,0.0,0.0,0.0,0.0,0.0,0.0,0.0,0.0,0.0,0.0,0.0,0.0,0.0,0.0,0.0,0.0,0.0,0.0,0.0,0.0,0.0,0.0,0.0,0.0,0.0,0.0,0.0,0.0,0.0,0.0,0.0,0.0,0.0,0.0,0.0,0.0,0.0,0.0,0.0,0.0,0.0,0.0,0.0,0.0,0.0,0.0,0.0,0.0,0.0,0.0,0.0,0.0,0.0,0.0,0.0,0.0,0.0,0.0,0.0,0.0,0.0,0.0,0.0,0.0,0.0,0.0,0.0,0.0,0.0,0.9566,0.9584,0.9599,0.9671,0.9684,0.9728,0.0,0.0,0.0,0.0,0.0,0.0,0.0,0.0,0.0,0.0,0.0,0.0,0.0,0.0,0.0,0.0,0.0,0.0,0.0,0.0,0.0,0.0,0.0,0.0,0.0,0.0,0.0,0.0,0.0,0.0,0.0,0.0,0.0,0.0,0.0,0.0,0.0,0.0,0.0,0.0,0.0,0.0,0.0,0.0,0.0,0.0,0.0,0.0,0.0,0.0,0.0,0.0,0.0,0.0,0.0,0.0,0.0,0.0,0.0,0.0,0.0,0.0,0.0,0.0,0.0,0.0,0.0,0.0,0.0,0.0,0.0,0.0,0.0,0.0,0.0,0.0,0.0,0.0,0.0,0.0,0.0,0.0,0.0,0.0,0.0,0.0,0.0,0.0,0.0,0.0,0.0,0.0,0.0,0.0,0.0,0.0,0.0,0.0,0.0,0.0,0.0,0.0,0.0,0.0,0.0,0.0,0.0,0.0,0.0,1.0125,1.0098,1.0261,1.0629,1.035,1.0213,1.0274,0.0,0.0,0.0,0.0,0.0,0.0,0.0,0.0,0.0,0.0,0.0,0.0,0.0,0.0,0.0,0.0,0.0,0.0,0.0,0.0,0.0,0.0,0.0,0.0,0.0,0.0,0.0,0.0,0.0,0.0,0.0,0.0,0.0,0.0,0.0,0.0,0.0,0.0,0.0,0.0,0.0,0.0,0.0,0.0,0.0,0.0,0.0,0.0,0.0,0.0,0.0,0.0,0.0,0.0,0.0,0.0,0.0,0.0,0.0,0.0,0.0,0.0,0.0,0.0,0.0,0.0,0.0,0.0,0.0,0.0,0.0,0.0,0.0,0.0,0.0,0.0,0.0,0.0,0.0,0.0,0.0,0.0,0.0,0.0,0.0,0.0,0.0,0.0,0.0,0.0,0.0,0.0,0.0,0.0,0.0,0.0,0.0,0.0,0.0,0.0,0.0,0.0,0.0,0.0,0.0,0.0,0.0,0.0,1.1095,1.1054,1.1421,1.2144,1.1403,1.1057,0.0,0.0,0.0,0.0,0.0,0.0,0.0,0.0,0.0,0.0,0.0,0.0,0.0,0.0,0.0,0.0,0.0,0.0,0.0,0.0,0.0,0.0,0.0,0.0,0.0,0.0,0.0,0.0,0.0,0.0,0.0,0.0,0.0,0.0,0.0,0.0,0.0,0.0,0.0,0.0,0.0,0.0,0.0,0.0,0.0,0.0,0.0,0.0,0.0,0.0,0.0,0.0,0.0,0.0,0.0,0.0,0.0,0.0,0.0,0.0,0.0,0.0,0.0,0.0,0.0,0.0,0.0,0.0,0.0,0.0,0.0,0.0,0.0,0.0,0.0,0.0,0.0,0.0,0.0,0.0,0.0,0.0,0.0,0.0,0.0,0.0,0.0,0.0,0.0,0.0,0.0,0.0,0.0,0.0,0.0,0.0,0.0,0.0,0.0,0.0,0.0,0.0,0.0,0.0,0.0,0.0,0.0,0.0,0.0,1.2027,1.2655,1.2732,1.2286,1.1502,1.1111,0.0,0.0,0.0,0.0,0.0,0.0,0.0,0.0,0.0,0.0,0.0,0.0,0.0,0.0,0.0,0.0,0.0,0.0,0.0,0.0,0.0,0.0,0.0,0.0,0.0,0.0,0.0,0.0,0.0,0.0,0.0,0.0,0.0,0.0,0.0,0.0,0.0,0.0,0.0,0.0,0.0,0.0,0.0,0.0,0.0,0.0,0.0,0.0,0.0,0.0,0.0,0.0,0.0,0.0,0.0,0.0,0.0,0.0,0.0,0.0,0.0,0.0,0.0,0.0,0.0,0.0,0.0,0.0,0.0,0.0,0.0,0.0,0.0,0.0,0.0,0.0,0.0,0.0,0.0,0.0,0.0,0.0,0.0,0.0,0.0,0.0,0.0,0.0,0.0,0.0,0.0,0.0,0.0,0.0,0.0,0.0,0.0,0.0,0.0,0.0,0.0,0.0,0.0,0.0,0.0,0.0,0.0,0.0,1.1996,1.2483,1.3644,1.4009,1.3478,1.2636,1.2064,0.0,0.0,0.0,0.0,0.0,0.0,0.0,0.0,0.0,0.0,0.0,0.0,0.0,0.0,0.0,0.0,0.0,0.0,0.0,0.0,0.0,0.0,0.0,0.0,0.0,0.0,0.0,0.0,0.0,0.0,0.0,0.0,0.0,0.0,0.0,0.0,0.0,0.0,0.0,0.0,0.0,0.0,0.0,0.0,0.0,0.0,0.0,0.0,0.0,0.0,0.0,0.0,0.0,0.0,0.0,0.0,0.0,0.0,0.0,0.0,0.0,0.0,0.0,0.0,0.0,0.0,0.0,0.0,0.0,0.0,0.0,0.0,0.0,0.0,0.0,0.0,0.0,0.0,0.0,0.0,0.0,0.0,0.0,0.0,0.0,0.0,0.0,0.0,0.0,0.0,0.0,0.0,0.0,0.0,0.0,0.0,0.0,0.0,0.0,0.0,0.0,0.0,0.0,0.0,0.0,0.0,0.0,0.0,1.2651,1.2757,1.4236,1.5039,1.5071,1.4195,1.3366,0.0,0.0,0.0,0.0,0.0,0.0,0.0,0.0,0.0,0.0,0.0,0.0,0.0,0.0,0.0,0.0,0.0,0.0,0.0,0.0,0.0,0.0,0.0,0.0,0.0,0.0,0.0,0.0,0.0,0.0,0.0,0.0,0.0,0.0,0.0,0.0,0.0,0.0,0.0,0.0,0.0,0.0,0.0,0.0,0.0,0.0,0.0,0.0,0.0,0.0,0.0,0.0,0.0,0.0,0.0,0.0,0.0,0.0,0.0,0.0,0.0,0.0,0.0,0.0,0.0,0.0,0.0,0.0,0.0,0.0,0.0,0.0,0.0,0.0,0.0,0.0,0.0,0.0,0.0,0.0,0.0,0.0,0.0,0.0,0.0,0.0,0.0,0.0,0.0,0.0,0.0,0.0,0.0,0.0,0.0,0.0,0.0,0.0,0.0,0.0,0.0,0.0,0.0,0.0,0.0,0.0,0.0,0.0,1.3022,1.3687,1.4657,1.5157,1.5166,1.4318,1.3445,0.0,0.0,0.0,0.0,0.0,0.0,0.0,0.0,0.0,0.0,0.0,0.0,0.0,0.0,0.0,0.0,0.0,0.0,0.0,0.0,0.0,0.0,0.0,0.0,0.0,0.0,0.0,0.0,0.0,0.0,0.0,0.0,0.0,0.0,0.0,0.0,0.0,0.0,0.0,0.0,0.0,0.0,0.0,0.0,0.0,0.0,0.0,0.0,1.085,0.0,0.0,0.0,0.0,0.0,0.0,0.0,0.0,0.0,0.0,0.0,0.0,0.0,0.0,0.0,0.0,0.0,0.0,0.0,0.0,0.0,0.0,0.0,0.0,0.0,0.0,0.0,0.0,0.0,0.0,0.0,0.0,0.0,0.0,0.0,0.0,0.0,0.0,0.0,0.0,0.0,0.0,0.0,0.0,0.0,0.0,0.0,0.0,0.0,0.0,0.0,0.0,0.0,0.0,0.0,0.0,0.0,0.0,0.0,1.3148,1.3996,1.4826,1.5252,1.5237,1.4791,1.4142,0.0,0.0,0.0,0.0,0.0,0.0,0.0,0.0,0.0,0.0,0.0,0.0,0.0,0.0,0.0,0.0,0.0,0.0,0.0,0.0,0.0,0.0,0.0,0.0,0.0,0.0,0.0,0.0,0.0,0.0,0.0,0.0,0.0,0.0,0.0,0.0,0.0,0.0,0.0,0.0,0.0,0.0,0.0,0.0,0.0,0.0,0.0,0.0,0.0,0.0,0.0,0.0,0.0,0.0,0.0,0.0,0.0,0.0,0.0,0.0,0.0,0.0,0.0,0.0,0.0,0.0,0.0,0.0,0.0,0.0,0.0,0.0,0.0,0.0,0.0,0.0,0.0,0.0,0.0,0.0,0.0,0.0,0.0,0.0,0.0,0.0,0.0,0.0,0.0,0.0,0.0,0.0,0.0,0.0,0.0,0.0,0.0,0.0,0.0,0.0,0.0,0.0,0.0,0.0,0.0,0.0,0.0,1.301,1.3394,1.4201,1.4941,1.5311,1.531,1.5323,1.495,1.4233,0.0,0.0,0.0,0.0,0.0,0.0,0.0,0.0,0.0,0.0,0.0,0.0,0.0,0.0,0.0,0.0,0.0,0.0,0.0,0.0,0.0,0.0,0.0,0.0,0.0,0.0,0.0,0.0,0.0,0.0,0.0,0.0,0.0,0.0,0.0,0.0,0.0,0.0,0.8979,0.9563,0.0,0.0,0.0,0.0,0.0,0.0,0.0,0.0,1.3134,0.0,0.0,0.0,0.0,0.0,0.0,0.0,0.0,0.0,0.0,0.0,0.0,0.0,0.0,0.0,0.0,0.0,0.0,0.0,0.0,0.0,0.0,0.0,0.0,0.0,0.0,0.0,0.0,0.0,0.0,0.0,0.0,0.0,0.0,0.0,0.0,0.0,0.0,0.0,0.0,0.0,0.0,0.0,0.0,0.0,0.0,0.0,0.0,0.0,0.0,0.0,0.0,0.0,0.0,0.0,0.0,1.3872,1.3879,1.4311,1.5147,1.5303,1.538,1.5381,1.5385,1.5308,1.5111,0.0,0.0,0.0,0.0,0.0,0.0,0.0,0.0,0.0,0.0,0.0,0.0,0.0,0.0,0.0,0.0,0.0,0.0,0.0,0.0,0.0,0.0,0.0,0.0,0.0,0.0,0.0,0.0,0.0,0.0,0.0,0.0,0.0,0.0,0.0,0.0,0.0,0.0,0.0,0.9871,0.9926,0.0,0.0,0.0,0.0,0.0,0.0,0.0,0.0,1.3728,0.0,0.0,0.0,0.0,0.0,0.0,0.0,0.0,0.0,0.0,0.0,0.0,0.0,0.0,0.0,0.0,0.0,0.0,0.0,0.0,0.0,0.0,0.0,0.0,0.0,0.0,0.0,0.0,0.0,0.0,0.0,0.0,0.0,0.0,0.0,0.0,0.0,0.0,0.0,0.0,0.0,0.0,0.0,0.0,0.0,0.0,0.0,0.0,0.0,0.0,0.0,0.0,0.0,0.0,0.0,1.4676,1.4328,1.4523,1.5381,1.5403,1.5404,1.5404,1.5406,1.5407,0.0,0.0,0.0,0.0,0.0,0.0,0.0,0.0,0.0,0.0,0.0,0.0,0.0,0.0,0.0,0.0,0.0,0.0,0.0,0.0,0.0,0.0,0.0,0.0,0.0,0.0,0.0,0.0,0.0,0.0,0.0,0.0,0.0,0.0,0.0,0.0,0.0,0.0,0.0,0.0,0.9894,0.9844,0.9854,0.0,0.0,0.0,0.0,0.0,0.0,1.4076,1.4215,0.0,0.0,0.0,0.0,0.0,0.0,0.0,0.0,0.0,0.0,0.0,0.0,0.0,0.0,0.0,0.0,0.0,0.0,0.0,0.0,0.0,0.0,0.0,0.0,0.0,0.0,0.0,0.0,0.0,0.0,0.0,0.0,0.0,0.0,0.0,0.0,0.0,0.0,0.0,0.0,0.0,0.0,0.0,0.0,0.0,0.0,0.0,0.0,0.0,0.0,0.0,0.0,0.0,0.0,0.0,1.5312,1.4726,1.4687,1.5371,1.541,1.541,1.541,1.5409,1.5408,0.0,0.0,0.0,0.0,0.0,0.0,0.0,0.0,0.0,0.0,0.0,0.0,0.0,0.0,0.0,0.0,0.0,0.0,0.0,0.0,0.0,0.0,0.0,0.0,0.0,0.0,0.0,0.0,0.0,0.0,0.0,0.0,0.0,0.0,0.0,0.0,0.0,0.0,0.0,0.0,0.0,1.0268,1.0268,1.1506,0.0,0.0,0.0,0.0,1.4587,1.4581,0.0,0.0,0.0,0.0,0.0,0.0,0.0,0.0,0.0,0.0,0.0,0.0,0.0,0.0,0.0,0.0,0.0,0.0,0.0,0.0,0.0,0.0,0.0,0.0,0.0,0.0,0.0,0.0,0.0,0.0,0.0,0.0,0.0,0.0,0.0,0.0,0.0,0.0,0.0,0.0,0.0,0.0,0.0,0.0,0.0,0.0,0.0,0.0,0.0,0.0,0.0,0.0,0.0,0.0,0.0,0.0,1.538,1.5318,1.5297,1.5395,1.5414,1.5413,1.5414,1.5413,1.5413,0.0,0.0,0.0,0.0,0.0,0.0,0.0,0.0,0.0,0.0,0.0,0.0,0.0,0.0,0.0,0.0,0.0,0.0,0.0,0.0,0.0,0.0,0.0,0.0,0.0,0.0,0.0,0.0,0.0,0.0,0.0,0.0,0.0,0.0,0.0,0.0,0.0,0.0,0.0,0.0,0.0,1.1824,1.1843,1.2595,1.3183,0.0,0.0,1.4511,1.4523,1.4511,0.0,0.0,0.0,0.0,0.0,0.0,0.0,0.0,0.0,0.0,0.0,0.0,0.0,0.0,0.0,0.0,0.0,0.0,0.0,0.0,0.0,0.0,0.0,0.0,0.0,0.0,0.0,0.0,0.0,0.0,0.0,0.0,0.0,0.0,0.0,0.0,0.0,0.0,0.0,0.0,0.0,0.0,0.0,0.0,0.0,0.0,0.0,0.0,0.0,0.0,0.0,0.0,0.0,0.0,0.0,1.5841,1.5366,1.5342,1.5359,1.5359,1.5336,1.5354,1.5353,1.5347,1.5344,0.0,0.0,0.0,0.0,0.0,0.0,0.0,0.0,0.0,0.0,0.0,0.0,0.0,0.0,0.0,0.0,0.0,0.0,0.0,0.0,0.0,0.0,0.0,0.0,0.0,0.0,0.0,0.0,0.0,0.0,0.0,0.0,0.0,0.0,0.0,0.0,0.0,0.0,0.0,0.0,0.0,0.0,1.1988,1.2675,0.0,0.0,0.0,1.4381,1.4387,0.0,0.0,0.0,0.0,0.0,0.0,0.0,0.0,0.0,0.0,0.0,0.0,0.0,0.0,0.0,0.0,0.0,0.0,0.0,0.0,0.0,0.0,0.0,0.0,0.0,0.0,0.0,0.0,0.0,0.0,0.0,0.0,0.0,0.0,0.0,0.0,0.0,0.0,0.0,0.0,0.0,0.0,0.0,0.0,0.0,0.0,0.0,0.0,0.0,0.0,0.0,0.0,0.0,0.0,0.0,0.0,0.0,1.562,1.5385,1.5266,1.5266,1.5261,1.5297,1.5274,1.528,0.0,0.0,0.0,0.0,0.0,0.0,0.0,0.0,0.0,0.0,0.0,0.0,0.0,0.0,0.0,0.0,0.0,0.0,0.0,0.0,0.0,0.0,0.0,0.0,0.0,0.0,0.0,0.9323,0.0,0.0,0.0,0.0,0.0,0.0,0.0,0.0,0.0,0.0,0.0,0.0,0.0,0.0,1.2537,1.2473,1.298,1.3347,0.0,0.0,1.4242,1.4249,1.4242,1.4321,0.0,0.0,0.0,0.0,0.0,0.0,0.0,0.0,0.0,0.0,0.0,0.0,0.0,0.0,0.0,0.0,0.0,0.0,0.0,0.0,0.0,0.0,0.0,0.0,0.0,0.0,0.0,0.0,0.0,0.0,0.0,0.0,0.0,0.0,0.0,0.0,0.0,0.0,0.0,0.0,0.0,0.0,0.0,0.0,0.0,0.0,0.0,0.0,0.0,0.0,0.0,0.0,0.0,0.0,0.0,1.6394,1.5612,1.5209,1.5192,1.519,1.5209,1.5209,1.5201,1.5193,0.0,0.0,0.0,0.0,0.0,0.0,0.0,0.0,0.0,0.0,0.0,0.0,0.0,0.0,0.0,0.0,0.0,0.0,0.0,0.0,0.0,0.0,0.0,0.0,0.0,0.0,0.0,0.0,0.0,0.0,0.0,0.0,0.0,0.0,0.0,0.0,0.0,0.0,0.0,0.0,0.0,1.4061,1.4054,1.4042,1.4031,0.0,0.0,1.4103,1.412,1.412,1.4352,1.5024,0.0,0.0,0.0,0.0,0.0,0.0,0.0,0.0,0.0,0.0,0.0,0.0,0.0,0.0,0.0,0.0,0.0,0.0,0.0,0.0,0.0,0.0,0.0,0.0,0.0,0.0,0.0,0.0,0.0,0.0,0.0,0.0,0.0,0.0,0.0,0.0,0.0,0.0,0.0,0.0,0.0,0.0,0.0,0.0,0.0,0.0,0.0,0.0,0.0,0.0,0.0,0.0,0.0,1.6919,1.6441,1.5597,1.5137,1.5137,1.5137,1.5137,1.5137,1.5143,1.5127,0.0,0.0,0.0,0.0,0.0,0.0,0.0,0.0,0.0,0.0,0.0,0.0,0.0,0.0,0.0,0.0,0.0,0.0,0.0,0.0,0.0,0.0,0.0,0.0,0.0,0.0,0.0,0.0,1.0889,1.1264,1.2399,0.0,0.0,0.0,0.0,0.0,0.0,0.0,0.0,0.0,0.0,1.4642,1.4146,1.4009,0.0,0.0,1.3966,1.4135,1.4586,1.4657,1.4929,1.5703,1.654,0.0,0.0,0.0,0.0,0.0,0.0,0.0,0.0,0.0,0.0,0.0,0.0,0.0,0.0,0.0,0.0,0.0,0.0,0.0,0.0,0.0,0.0,0.0,0.0,0.0,0.0,0.0,0.0,0.0,0.0,0.0,0.0,0.0,0.0,0.0,0.0,0.0,0.0,0.0,0.0,0.0,0.0,0.0,0.0,0.0,0.0,0.0,0.0,0.0,0.0,0.0,0.0,1.754,1.6742,1.5876,1.5304,1.5083,1.5064,1.5064,1.5079,1.5061,1.5011,0.0,0.0,0.0,0.0,0.0,0.0,0.0,0.0,0.0,0.0,0.0,0.0,0.0,0.0,0.0,0.0,0.0,0.0,0.0,0.0,0.0,0.0,0.0,0.0,0.0,0.0,0.0,0.0,1.1818,1.2271,1.311,0.0,0.0,0.0,0.0,0.0,0.0,0.0,0.0,0.0,0.0,1.4854,1.4047,1.3887,1.3913,1.4164,1.4208,1.4463,1.5189,1.5303,1.5582,1.6352,0.0,0.0,0.0,0.0,0.0,0.0,0.0,0.0,0.0,0.0,0.0,0.0,0.0,0.0,0.0,0.0,0.0,0.0,0.0,0.0,0.0,0.0,0.0,0.0,0.0,0.0,0.0,0.0,0.0,0.0,1.805,0.0,0.0,0.0,0.0,0.0,0.0,0.0,0.0,0.0,0.0,0.0,0.0,0.0,0.0,0.0,0.0,0.0,0.0,0.0,0.0,0.0,0.0,1.8255,1.7487,1.6611,1.5782,1.5059,1.5021,1.4998,1.4998,1.4957,1.4895,1.4877,0.0,0.0,0.0,0.0,0.0,0.0,0.0,0.0,0.0,0.0,0.0,0.0,0.0,0.0,0.0,0.0,0.0,0.0,0.0,0.0,0.0,0.0,0.0,0.0,0.0,0.0,1.1688,1.2271,1.3022,0.0,0.0,0.0,0.0,0.0,0.0,0.0,0.0,0.0,0.0,1.5065,1.472,1.3938,1.3753,1.4009,1.4732,1.4879,1.5132,1.5871,1.5975,1.6253,0.0,0.0,0.0,0.0,0.0,0.0,0.0,0.0,0.0,0.0,0.0,0.0,0.0,0.0,0.0,0.0,0.0,0.0,0.0,0.0,0.0,0.0,0.0,0.0,0.0,0.0,0.0,1.9642,1.9682,0.0,0.0,0.0,0.0,0.0,0.0,0.0,0.0,0.0,0.0,0.0,2.0334,2.0285,0.0,0.0,0.0,0.0,0.0,0.0,0.0,0.0,0.0,0.0,0.0,0.0,1.8431,1.8119,1.6774,1.5937,1.5729,1.521,1.4931,1.4931,1.4874,1.477,1.4638,0.0,0.0,0.0,0.0,0.0,0.0,0.0,0.0,0.0,0.0,0.0,0.0,0.0,0.0,0.0,0.0,0.0,0.0,0.0,0.0,0.0,0.0,0.0,0.0,0.0,1.3146,0.0,0.0,0.0,0.0,0.0,0.0,0.0,0.0,0.0,0.0,0.0,1.7778,1.6632,1.6028,1.5358,1.4511,1.4382,1.4443,0.0,0.0,0.0,0.0,0.0,0.0,0.0,0.0,0.0,0.0,0.0,0.0,0.0,0.0,1.8385,1.8465,1.8435,1.8396,1.8307,0.0,0.0,0.0,0.0,0.0,0.0,0.0,0.0,0.0,0.0,0.0,0.0,0.0,0.0,2.0957,0.0,2.1875,0.0,0.0,0.0,0.0,0.0,0.0,0.0,0.0,2.2101,2.174,2.1128,2.0766,2.056,0.0,2.1005,2.0975,0.0,0.0,0.0,0.0,0.0,0.0,0.0,0.0,1.8734,1.841,1.7363,1.6557,1.6035,1.5521,1.5142,1.4874,1.476,1.4614,1.4422,1.435,1.4283,0.0,0.0,0.0,0.0,0.0,0.0,0.0,0.0,0.0,0.0,0.0,0.0,0.0,0.0,0.0,0.0,0.0,0.0,0.0,0.0,0.0,0.0,0.0,1.4059,0.0,0.0,0.0,0.0,0.0,0.0,0.0,0.0,0.0,1.8526,1.8477,1.8099,1.724,1.6636,1.5974,1.5136,0.0,0.0,0.0,0.0,0.0,0.0,0.0,1.7388,1.7909,1.7988,1.7999,1.8055,1.8065,1.8076,1.8098,0.0,0.0,1.8263,1.8256,1.8187,1.8103,1.8095,1.8087,1.8016,1.7955,1.7922,0.0,0.0,0.0,0.0,0.0,0.0,0.0,0.0,2.1479,2.1829,0.0,2.2749,0.0,0.0,0.0,0.0,0.0,2.312,0.0,0.0,2.2867,2.2766,2.2618,2.1757,2.1333,2.1323,2.1254,2.1211,2.1224,2.1965,0.0,0.0,0.0,0.0,0.0,0.0,1.919,1.8388,1.8277,1.7529,1.606,1.5954,1.558,1.4858,1.4659,1.4475,1.4289,1.4182,1.408,1.3973,1.3984,0.0,0.0,0.0,0.0,0.0,0.0,0.0,0.0,0.0,0.0,0.0,0.0,0.0,0.0,0.0,0.0,0.0,0.0,0.0,0.0,1.4049,0.0,0.0,0.0,0.0,0.0,0.0,0.0,0.0,0.0,0.0,1.8365,1.8328,1.7989,1.7156,0.0,0.0,0.0,0.0,1.5795,1.6551,1.6697,1.6967,1.767,1.7789,1.7772,1.7789,0.0,0.0,1.7772,1.7789,1.7811,1.7861,1.7883,1.7933,1.8042,1.8091,1.8042,1.7922,1.7934,1.7901,1.7834,1.7827,1.7736,2.1995,0.0,0.0,0.0,0.0,2.2216,2.2216,2.2236,2.2476,2.2581,2.2639,2.3492,0.0,0.0,0.0,0.0,0.0,0.0,2.435,2.3706,2.3606,2.3217,2.2565,2.2198,2.2029,2.2029,2.2466,2.2682,2.2712,2.3412,2.3114,2.1803,0.0,0.0,0.0,0.0,1.9328,1.9055,1.852,1.7999,1.7551,1.6991,1.6287,1.545,1.5349,1.492,1.4187,1.4035,1.3906,1.3801,1.3702,0.0,0.0,0.0,0.0,0.0,0.0,0.0,0.0,0.0,0.0,0.0,0.0,0.0,0.0,0.0,0.0,0.0,0.0,0.0,1.4048,1.4096,1.4687,0.0,0.0,0.0,0.0,0.0,0.0,0.0,0.0,0.0,1.8046,1.8063,1.7963,0.0,0.0,1.6488,1.6195,1.6104,1.6132,1.6387,1.6858,0.0,1.7486,1.7502,1.7519,1.7502,1.7519,1.7531,1.7502,1.7519,1.7542,1.759,1.7618,1.7641,1.7726,1.7816,1.7833,1.7732,1.8054,1.8363,1.8314,1.8248,1.8236,2.3477,2.3551,2.3003,2.2778,2.2778,2.2798,2.2778,2.2817,2.3172,2.3338,2.3396,2.4257,2.4636,2.4655,2.5143,0.0,0.0,0.0,2.5,2.4446,2.4373,2.4011,2.3404,2.2958,2.2757,2.2726,2.3089,2.3249,2.3225,2.395,2.3858,2.2937,0.0,0.0,2.1086,2.0257,1.9832,1.9753,1.9002,1.8456,1.8125,1.7356,1.6712,1.6207,1.6111,1.5608,1.4612,1.4416,1.4113,1.3641,1.3455,1.3312,0.0,0.0,0.0,0.0,0.0,0.0,0.0,0.0,0.0,0.0,0.0,1.7393,1.7308,0.0,0.0,0.0,1.545,1.4788,1.4545,1.4796,0.0,0.0,0.0,0.0,0.0,0.0,0.0,1.8659,1.8297,1.7994,1.7861,1.7811,1.7755,1.7715,1.721,1.6825,1.6762,0.0,1.6691,1.6691,1.7077,1.7358,1.737,1.7358,1.7358,1.737,1.7358,1.7358,1.7358,1.7353,1.7382,1.7396,1.742,1.7432,1.7472,1.7542,1.7589,1.7547,1.8058,1.848,1.8429,1.8617,1.8752,2.4791,2.4655,2.3326,2.2778,2.2788,2.2769,2.2793,2.2856,2.3706,2.4071,2.4129,2.4908,2.5269,2.5269,2.5205,0.0,2.517,2.5179,2.5155,2.5063,2.5025,2.4919,2.4741,2.396,2.3502,2.3401,2.332,2.3235,2.3229,2.3861,2.4209,2.4171,2.3437,2.2639,2.1778,2.0993,2.0549,2.0487,1.9694,1.889,1.8107,1.7451,1.7043,1.6993,1.692,1.6406,1.5443,1.5208,1.4635,1.3657,1.3335,1.3141,1.2995,0.0,0.0,0.0,0.0,0.0,0.0,0.0,0.0,0.0,0.0,0.0,0.0,0.0,0.0,0.0,1.5938,0.0,1.5109,1.589,0.0,0.0,0.0,1.9327,1.9428,1.9401,1.9367,1.9367,0.0,0.0,1.7873,1.7599,1.7448,1.7566,1.7455,1.7365,1.7297,1.7244,1.7293,1.722,1.7265,1.7281,1.7281,1.7281,1.7265,1.7281,1.7281,1.7281,1.7281,1.7281,1.7293,1.7285,1.7297,1.7297,1.7309,1.7321,1.735,1.746,1.8025,1.8454,1.8464,1.895,1.9232,2.4647,2.4618,2.4257,2.4164,2.4263,2.4275,2.4314,2.4378,2.4588,2.4715,2.4777,2.4979,2.5068,2.5068,2.5043,2.505,2.5044,2.5051,2.4986,2.4877,2.4861,2.478,2.4637,2.4377,2.4209,2.4132,2.4016,2.3953,2.3934,2.4071,2.4123,2.4113,2.3825,2.3303,2.2538,2.1689,2.1261,2.1225,2.0452,1.9694,1.9018,1.8765,1.8356,1.7753,1.7678,1.7191,1.6263,1.607,1.5503,1.4495,1.4172,1.3658,1.2883,1.3429,0.0,0.0,0.0,0.0,0.0,0.0,0.0,0.0,0.0,1.8408,1.8273,0.0,1.7924,0.0,1.6564,1.5984,1.6056,1.6757,0.0,0.0,1.9265,1.9916,1.9993,1.9993,1.9957,1.9916,1.9156,1.8633,1.8567,1.7881,1.7389,1.7374,1.7289,1.7248,1.722,1.7183,1.7145,1.7145,1.7158,1.7145,1.7145,1.7145,1.7145,1.7145,1.7145,1.7145,1.7145,1.7162,1.7158,1.7207,1.7224,1.7232,1.7293,1.7273,1.7432,1.7918,1.8591,1.9053,1.8998,1.9571,2.001,2.4549,2.4568,2.4549,2.4588,2.4665,2.4738,2.4787,2.4809,2.4808,2.4811,2.487,2.4905,2.4914,2.4902,2.4908,2.4907,2.4898,2.491,2.4861,2.4738,2.4726,2.4655,2.4549,2.4491,2.4412,2.4312,2.4229,2.421,2.4209,2.4133,2.4112,2.4112,2.3996,2.3747,2.3311,2.2451,2.2032,2.2025,2.1261,2.0714,2.038,1.9979,1.9553,1.9091,1.8669,1.8029,1.711,1.6944,1.6377,1.5349,1.5001,1.4531,1.3877,1.4231,1.4881,0.0,0.0,0.0,0.0,0.0,0.0,0.0,0.0,0.0,0.0,0.0,1.7783,1.7584,1.706,1.6924,1.7349,1.7766,1.8408,1.9309,2.014,2.0662,2.073,2.0705,2.065,2.0599,1.9833,1.9278,1.9207,1.8381,1.7782,1.7736,1.7419,1.7149,1.7149,1.712,1.7095,1.7095,1.7095,1.7095,1.7095,1.7095,1.7095,1.7095,1.7095,1.7095,1.7095,1.7095,1.7124,1.7149,1.7162,1.7174,1.7195,1.7199,1.7376,1.8042,1.8741,1.9309,1.9623,2.0256,2.0694,2.4657,2.4648,2.4528,2.4491,2.45,2.4601,2.465,2.4674,2.4668,2.4684,2.4692,2.476,2.478,2.4764,2.4783,2.4768,2.4764,2.4783,2.4737,2.4685,2.4607,2.4541,2.4446,2.4393,2.4303,2.4192,2.421,2.4209,2.4208,2.4141,2.4112,2.4112,2.4044,2.3988,2.3959,2.325,2.2803,2.2698,2.2081,2.1744,2.1679,2.101,2.0628,2.053,1.9784,1.8964,1.8172,1.7893,1.7285,1.6264,1.591,1.5553,1.5201,1.5253,1.5643,0.0,1.6688,0.0,0.0,0.0,0.0,0.0,0.0,0.0,0.0,1.7749,1.7595,1.742,1.7509,1.784,1.8531,1.8831,1.9303,2.009,2.0921,2.1449,2.1506,2.1449,2.1396,2.1343,2.0505,1.9903,1.9821,1.9019,1.8444,1.8398,1.7899,1.7529,1.7387,1.7241,1.7095,1.7095,1.7095,1.7095,1.7095,1.7095,1.7095,1.7095,1.7095,1.7095,1.7095,1.7095,1.7095,1.7095,1.7111,1.7095,1.7095,1.7095,1.7354,1.8132,1.881,1.9427,2.0094,2.0774,2.1083,2.5466,2.5401,2.4698,2.4421,2.4421,2.4384,2.4436,2.4547,2.4537,2.4572,2.4623,2.4631,2.4629,2.4655,2.4629,2.4629,2.4639,2.4639,2.4599,2.4542,2.4525,2.4429,2.4266,2.4257,2.4219,2.4209,2.4209,2.4199,2.419,2.4141,2.4112,2.4112,2.4044,2.3988,2.3988,0.0,0.0,0.0,2.2656,2.2282,2.1715,2.1497,2.1406,2.1432,2.0639,0.0,1.982,1.9127,1.8252,1.7268,1.6981,0.0,0.0,0.0,0.0,0.0,0.0,0.0,0.0,0.0,0.0,0.0,1.7738,1.7681,1.7658,1.7571,1.7522,1.7503,1.7976,1.8394,1.8663,1.9842,2.0679,2.0961,2.1647,2.2118,2.2135,2.2062,2.2023,2.1992,2.1181,2.06,2.0525,1.9778,1.9198,1.9168,1.8974,1.881,1.8748,1.7808,1.7128,1.7095,1.7095,1.7095,1.7095,1.7095,1.7095,1.7095,1.7095,1.7095,1.7095,1.7095,1.7095,1.7095,1.7095,1.7095,1.7095,1.7095,1.752,1.8732,1.9105,1.9412,2.0143,2.084,2.1277,2.5996,0.0,2.5125,2.4718,0.0,2.4321,2.4321,2.4419,2.441,2.4455,2.4498,2.4498,2.4515,2.4485,2.4503,2.4486,2.4498,2.4517,2.4464,2.4402,2.4375,2.4284,2.4201,2.4201,2.42,2.4199,2.4199,2.4199,2.4208,2.4161,2.4151,2.4151,2.4132,2.4094,2.4094,2.4075,2.3883,2.3461,2.3472,2.3308,2.2942,2.2511,2.2301,2.2273,2.1487,0.0,0.0,0.0,0.0,0.0,0.0,0.0,0.0,1.7137,0.0,1.7313,1.8047,1.8506,1.8512,1.8836,1.897,1.8798,1.8688,1.8476,1.8073,1.8327,1.8534,1.8551,1.8862,1.9305,1.9805,2.0565,2.1238,2.1688,2.2073,2.2282,2.2254,2.2211,2.2154,2.2046,2.1657,2.1321,2.1251,2.0494,1.9953,1.9862,1.9467,1.9204,1.9062,1.8281,1.7504,1.7147,1.7095,1.7095,1.7095,1.7095,1.7095,1.7095,1.7095,1.7095,1.7095,1.707,1.7061,1.7048,1.702,1.6994,1.7026,1.7255,1.7851,1.8831,1.9362,1.9814,2.0523,2.1004,2.1309,2.6585,2.5918,2.5613,2.5115,2.4506,2.4367,2.4284,2.4284,0.0,0.0,0.0,2.4385,2.4384,2.4391,2.4391,2.4383,2.4385,2.4385,2.4348,2.4275,2.4238,2.4201,2.421,2.4209,2.4199,2.4199,2.4199,2.4199,2.4199,2.4199,2.4199,2.4199,2.4199,2.4208,2.418,2.418,2.4151,2.4084,2.4161,2.4199,2.4171,2.3556,2.3198,2.3134,2.2356,2.1862,2.1725,2.0962,2.0445,2.0212,1.9425,1.8796,1.8419,1.8426,1.8363,1.8199,1.8893,1.932,1.9267,1.9787,2.0039,1.9831,1.9887,1.9588,1.8766,1.9293,1.9654,1.9654,1.9824,2.0224,2.0954,2.121,2.1565,2.2245,2.2282,2.2254,2.2214,2.2168,2.208,2.1943,2.1851,2.1825,2.1658,2.1093,2.0644,2.0507,2.0059,1.945,1.9231,1.8683,1.8065,1.763,1.7439,1.7271,1.7235,1.7106,1.7086,1.7045,1.7057,1.7057,1.7057,1.7023,1.7001,1.6985,1.6918,1.6969,1.7071,1.7506,1.8193,1.9023,1.9599,2.0223,2.0911,2.1183,2.1262,2.7764,2.7514,2.61,2.5427,2.5261,2.4532,2.42,2.4237,2.4275,2.4294,2.4303,2.4303,2.4303,2.433,2.4312,2.433,2.4321,2.4321,2.4275,2.421,2.421,2.4201,2.4209,2.4199,2.4199,2.4199,2.4199,2.4199,2.4199,2.4199,2.4199,2.4199,2.4199,2.417,2.4113,2.4132,2.4084,2.4016,2.4141,2.4199,2.4199,2.4098,2.4025,2.3988,2.3217,2.2758,2.262,2.1853,2.1315,2.1117,2.0912,2.0405,1.9562,1.9935,1.9946,1.929,1.9832,2.0214,2.0202,2.0201,2.0103,1.9945,2.0441,2.0451,1.9637,1.9736,1.9859,1.9893,2.0475,2.0874,2.1106,2.1658,2.2074,2.2265,2.224,2.2214,2.2183,2.2065,2.1928,2.1882,2.1797,2.1739,2.1646,2.141,2.1175,2.1146,2.0827,2.0604,1.9917,1.9262,1.8815,1.8591,1.8143,1.7839,1.777,1.7289,1.7059,1.6918,1.6959,1.693,1.6943,1.6918,1.6921,1.6921,1.694,1.7151,1.7572,1.7812,1.8484,1.9505,1.9952,2.0303,2.0943,2.1103,2.1135,2.8309,2.7827,2.7051,2.6489,2.6019,2.5219,2.486,2.4805,2.4374,2.4228,2.4238,2.4238,2.4256,2.4238,2.4256,2.4256,2.4256,2.4238,2.4219,2.4209,2.4209,2.4209,2.4199,2.4199,2.4199,2.4199,2.4199,2.4199,2.419,2.4161,2.4151,2.4151,2.4103,2.4066,2.4054,2.4054,2.4016,2.3988,2.4064,2.4084,2.4075,2.4094,2.4094,2.4075,2.3718,2.3488,2.3401,2.2588,2.2083,2.1954,2.1432,2.0906,2.04,2.0598,2.0511,2.0062,2.069,2.1073,2.1004,2.1203,2.1282,2.1187,2.1449,2.1488,2.1108,2.1041,2.1041,2.1041,2.1438,2.165,2.1709,2.204,2.224,2.224,2.2228,2.2154,2.2065,2.1957,2.1884,2.1812,2.1738,2.1649,2.1511,2.1402,2.1293,2.1183,2.1087,2.0814,2.0464,2.0067,1.9546,1.9014,1.8642,1.8483,1.8403,1.7876,1.749,1.7442,1.7135,1.694,1.6908,1.6879,1.6869,1.6872,1.7088,1.7429,1.7799,1.8464,1.9146,1.9607,2.0226,2.0575,2.0861,2.0957,2.1022,2.8695,2.8062,2.786,2.7317,2.6536,2.5923,2.5638,2.5572,2.4917,2.4642,2.4654,2.4334,2.4161,2.4179,2.4334,2.4426,2.4444,2.4609,2.4701,2.4682,2.4701,2.4701,2.4701,2.4701,2.4701,2.4701,2.4701,2.4682,2.4672,2.446,2.4238,2.4092,2.4016,2.3996,2.3986,2.3976,2.3958,2.3966,2.3974,2.3966,2.3996,2.3988,2.3988,2.3988,2.3986,2.3966,2.3832,2.3244,2.2826,2.2725,2.2035,2.1516,2.1209,2.128,2.1155,2.0935,2.1529,2.1905,2.1799,2.2136,2.2338,2.2248,2.2254,2.2257,2.2211,2.2135,2.2073,2.2073,2.2147,2.2211,2.2192,2.2223,2.2254,2.2197,2.2154,2.2049,2.1913,2.1869,2.1812,2.1709,2.1632,2.151,2.1372,2.1278,2.1199,2.1038,2.0859,2.0745,2.0712,2.0595,2.0111,1.9546,1.9146,1.9035,1.8986,1.8464,1.8068,1.8035,1.7652,1.7416,1.7336,1.7244,1.7198,1.7314,1.7588,1.7957,1.8162,1.8902,1.9657,1.9972,2.0366,2.0681,2.0697,2.0762,2.0893,2.8968,2.8785,2.8117,2.7306,2.6592,2.6446,2.6348,2.6304,2.6191,2.6191,2.5983,2.4681,2.4089,2.4125,2.4809,2.51,2.5173,2.5874,2.6147,2.6129,2.6184,2.6191,2.6111,2.6166,2.6202,2.6147,2.6111,2.6067,2.6031,2.5418,2.4736,2.4079,2.3988,2.3984,2.3925,2.3907,2.3886,2.3816,2.381,2.3871,2.3996,2.3988,2.3988,2.3988,2.3937,2.3886,2.3806,2.3746,2.3613,2.3511,2.3325,2.2878,2.2226,2.2576,2.2557,2.1855,2.2359,2.2652,2.252,2.2544,2.2497,2.2408,2.2363,2.2352,2.2296,2.2282,2.2265,2.2282,2.2265,2.2282,2.2265,2.224,2.2214,2.2168,2.2034,2.1899,2.1827,2.1753,2.1694,2.1619,2.1465,2.1325,2.1278,2.1167,2.1022,2.0859,2.0678,2.0544,2.0544,2.051,2.0429,2.0216,1.9858,1.9499,1.939,1.8889,1.856,1.8467,1.8389,1.8217,1.8153,1.82,1.8312,1.8012,1.8327,1.8608,1.903,1.9514,1.9748,2.0218,2.0452,2.0544,2.0544,2.0561,2.0694,2.9338,2.8851,2.8534,2.8182,2.783,2.7349,2.7137,2.7066,2.6565,2.6343,2.627,2.5575,2.5354,2.5444,2.5772,2.5918,2.5954,2.6235,2.6399,2.6399,2.6399,2.6399,2.6399,2.6399,2.6399,2.6399,2.6399,2.6399,2.6333,2.5979,2.539,2.4668,2.4516,2.4259,2.3815,2.3779,2.3768,2.3747,2.3743,2.3765,2.3828,2.3828,2.3828,2.381,2.3789,2.3779,2.3747,2.37,2.367,2.3596,2.3505,2.3271,2.2888,2.3041,2.2979,2.2601,2.2707,2.2764,2.2659,2.2619,2.2569,2.2474,2.2419,2.238,2.231,2.2313,2.2313,2.2313,2.2313,2.2282,2.224,2.2228,2.2154,2.2017,2.1915,2.1827,2.1738,2.1679,2.1588,2.145,2.1356,2.1198,2.1038,2.0859,2.0727,2.0628,2.0526,2.0426,2.0441,2.034,2.0256,2.0241,1.9991,1.992,1.9946,1.9529,1.917,1.903,1.8749,1.8516,1.8547,1.85,1.8485,1.8516,1.8843,1.9107,1.9358,1.9871,2.023,2.0494,2.0494,2.051,2.051,2.051,2.0595,3.0045,2.9472,2.9235,2.8998,2.8719,2.8166,2.7899,2.7803,2.7198,2.6921,2.6921,2.6886,2.6897,2.6956,2.6761,2.6681,2.67,2.69,2.6968,2.6986,2.6986,2.6992,2.6951,2.6951,2.6951,2.6951,2.6957,2.6842,2.6649,2.6524,2.6068,2.5366,2.5182,2.4745,2.4084,2.4001,2.3887,2.37,2.3696,2.3667,2.3667,2.3645,2.3667,2.37,2.3678,2.3667,2.3667,2.3589,2.3562,2.3539,2.3418,2.3336,2.3277,2.3217,2.3119,2.2982,2.2893,2.2773,2.2716,2.2659,2.2579,2.2515,2.246,2.2394,2.231,2.2282,2.2285,2.2268,2.2237,2.2194,2.2197,2.2154,2.2049,2.1901,2.1811,2.1754,2.1617,2.1557,2.145,2.1277,2.1183,2.1055,2.0778,2.0578,2.0492,2.0443,2.0373,2.0302,2.0285,2.0166,2.008,2.0063,2.001,2.008,2.0275,1.9937,1.9678,1.9569,1.9211,1.901,1.8903,1.8918,1.8934,1.9237,1.9474,1.9615,1.9672,2.0107,2.0359,2.0342,2.0375,2.0392,2.0342,2.0409,2.0458,3.1144,3.0966,3.0268,2.9502,2.8743,2.8694,2.8639,2.8648,2.8527,2.8491,2.8509,2.8478,2.8453,2.8373,2.7755,2.7369,2.7471,2.8069,2.8321,2.8283,2.8319,2.8322,2.8316,2.8316,2.8275,2.8139,2.8121,2.7821,2.7196,2.7153,2.674,2.5991,2.5943,2.553,2.4836,2.4746,2.4392,2.3829,2.3719,2.3614,2.3603,2.3539,2.3555,2.3656,2.3641,2.3625,2.3596,2.3539,2.3482,2.3407,2.3354,2.3277,2.3217,2.3144,2.304,2.2967,2.2941,2.2877,2.2811,2.2806,2.2735,2.2562,2.2573,2.2449,2.231,2.224,2.2211,2.2197,2.2089,2.2061,2.2137,2.202,2.1915,2.1827,2.1754,2.1617,2.1433,2.1388,2.1294,2.1167,2.0974,2.0761,2.056,2.0441,2.0371,2.0304,2.0202,2.0098,2.0076,2.0023,1.999,1.999,1.9973,1.999,2.0008,1.9958,1.9924,1.9865,1.9747,1.98,1.9886,1.9932,1.9873,1.9828,1.985,1.9895,1.9965,2.001,2.0061,2.0096,2.015,2.0168,2.0185,2.0237,2.0287,3.1579,3.1066,3.0757,3.0427,3.0125,3.0093,3.0071,2.9989,3.0021,3.0003,3.0021,3.0003,3.0007,2.9926,2.9143,2.8513,2.8098,2.8363,2.8458,2.8432,2.8432,2.8419,2.8424,2.8411,2.8411,2.8411,2.8411,2.8267,2.8003,2.7888,2.7437,2.6744,2.656,2.6116,2.5463,2.5303,2.4942,2.429,2.4183,2.394,2.3495,2.3389,2.3395,2.3453,2.3517,2.3517,2.3482,2.3459,2.3395,2.3336,2.3259,2.3229,2.3193,2.3095,2.3252,2.3598,2.3597,2.3725,2.4091,2.4121,2.3841,2.3266,2.3159,2.2869,2.2372,2.2197,2.2152,2.2061,2.1959,2.1915,2.1901,2.1871,2.1796,2.1723,2.1602,2.148,2.1356,2.1278,2.1167,2.0958,2.0695,2.0509,2.0392,2.0287,2.02,2.0113,2.0061,2.0025,1.999,1.9937,1.9884,1.9866,1.983,1.9812,1.9797,1.9937,1.999,1.999,1.9945,1.9932,1.9975,1.9973,1.9899,1.9882,1.9955,1.9955,1.994,1.994,1.9955,1.9973,2.0025,2.001,2.0025,2.0096,2.0131,3.2079,3.1368,3.1313,3.1141,3.0868,3.0868,3.084,3.0783,3.0783,3.0783,3.0783,3.0783,3.0801,3.0668,3.0134,2.9603,2.9016,2.864,2.8523,2.873,2.8703,2.8819,2.8985,2.876,2.8603,2.8599,2.8367,2.8259,2.8277,2.8182,2.7856,2.7339,2.7213,2.6782,2.6114,2.6008,2.5618,2.4994,2.4853,2.4557,2.4097,2.4061,2.4044,2.4074,2.4117,2.3904,2.3413,2.3372,2.3336,2.3295,2.347,2.3668,2.3834,2.3793,2.3929,2.4354,2.4337,2.4475,2.4856,2.4935,2.4604,2.4008,2.3835,2.3458,2.2683,2.2492,2.23,2.2026,2.1825,2.1768,2.1723,2.1678,2.1617,2.1573,2.1433,2.134,2.123,2.1135,2.0957,2.0711,2.0509,2.0354,2.0252,2.0148,2.0043,1.9955,1.9937,1.9919,1.9884,1.9833,1.9762,1.978,1.9744,1.9741,1.9726,1.983,1.9866,1.9866,1.9884,1.9919,1.9937,1.9919,1.9919,1.9917,1.9917,1.9902,1.9902,1.9902,1.9902,1.9902,1.9919,1.9904,1.9937,1.9973,1.999,3.2667,3.2056,3.202,3.1606,3.1053,3.1035,3.0891,3.0952,3.0916,3.0995,3.1048,3.0916,3.0983,3.0778,3.0651,3.0434,3.0134,2.9136,2.8923,2.9436,2.9365,2.965,3.016,2.9479,2.9148,2.9113,2.8404,2.8081,2.8135,2.8064,2.7961,2.7961,2.7862,2.7476,2.6804,2.6755,2.6383,2.5751,2.561,2.5557,2.557,2.5398,2.5362,2.5415,2.5428,2.481,2.3483,2.346,2.3489,2.3464,2.401,2.4651,2.5036,2.51,2.5188,2.51,2.5106,2.5052,2.5021,2.506,2.5024,2.4649,2.4557,2.4143,2.3397,2.304,2.2635,2.2046,2.1772,2.1664,2.1589,2.1434,2.1341,2.1309,2.1293,2.1247,2.1087,2.0909,2.0695,2.0475,2.0337,2.0252,2.0133,2.0043,1.9937,1.9848,1.9797,1.9812,1.9744,1.9726,1.9723,1.9723,1.9708,1.9723,1.9723,1.9723,1.9723,1.9741,1.9759,1.9777,1.9795,1.9795,1.9812,1.9795,1.9795,1.9795,1.9795,1.9795,1.9795,1.9795,1.978,1.9815,1.9833,1.9884,1.9919,3.2957,3.276,3.276,3.2573,3.2263,3.2248,3.2168,3.204,3.2042,3.2042,3.2024,3.2042,3.2026,3.1868,3.1446,3.1182,3.108,3.0166,2.9843,3.0024,3.0011,3.012,3.0267,3.0041,2.9938,2.9811,2.9136,2.8765,2.8644,2.8226,2.7932,2.7914,2.7839,2.7683,2.7405,2.7387,2.7038,2.6388,2.63,2.6036,2.5526,2.5473,2.5473,2.5455,2.5455,2.5191,2.4787,2.4786,2.4773,2.469,2.4954,2.516,2.5289,2.5251,2.5428,2.5781,2.5764,2.5962,2.6347,2.6271,2.5922,2.5438,2.5222,2.4708,2.3879,2.3284,2.281,2.2306,2.1821,2.1419,2.1372,2.1262,2.1183,2.1309,2.1215,2.1071,2.0908,2.0693,2.0508,2.0356,2.0235,2.0098,1.9957,1.9884,1.9848,1.9777,1.9726,1.9741,1.9723,1.9723,1.9723,1.9723,1.9723,1.9723,1.9723,1.9723,1.9723,1.9723,1.9723,1.9723,1.9723,1.9723,1.9723,1.9723,1.9723,1.9723,1.9723,1.9723,1.9723,1.9723,1.9759,1.9744,1.9744,1.978,1.983,3.3772,3.3755,3.3772,3.3706,3.3658,3.3658,3.3415,3.3101,3.3048,3.2889,3.2641,3.2588,3.2588,3.25,3.2095,3.1884,3.1814,3.1306,3.1095,3.1007,3.0757,3.081,3.0986,3.0759,3.0443,3.0196,2.972,2.9457,2.9354,2.8639,2.8208,2.8127,2.7817,2.7612,2.7612,2.7624,2.7394,2.7029,2.7002,2.6753,2.6367,2.6262,2.6262,2.6262,2.6262,2.6262,2.6262,2.6276,2.5998,2.5581,2.5637,2.5866,2.6042,2.6075,2.6175,2.6415,2.6495,2.6573,2.6905,2.679,2.6606,2.605,2.5832,2.538,2.4547,2.3869,2.3391,2.2557,2.207,2.1585,2.1295,2.1087,2.1022,2.1103,2.1038,2.0876,2.0694,2.0492,2.0321,2.0218,2.0098,1.9957,1.9851,1.978,1.9762,1.9723,1.9723,1.9723,1.9723,1.9723,1.9723,1.9723,1.9723,1.9723,1.9723,1.9723,1.9723,1.9723,1.9723,1.9723,1.9723,1.9723,1.9723,1.9723,1.9723,1.9723,1.9723,1.9723,1.9723,1.9723,1.9723,1.9708,1.9726,1.9726,1.9759,3.4889,3.4925,3.4907,3.4801,3.4783,3.4765,3.4394,3.3899,3.3846,3.3474,3.2926,3.2785,3.2696,3.2662,3.2471,3.2367,3.2438,3.2264,3.2125,3.1984,3.1667,3.1612,3.2035,3.1527,3.0985,3.0458,3.023,3.0077,2.9941,2.9224,2.8757,2.8502,2.7962,2.7529,2.7544,2.7572,2.7567,2.7512,2.7589,2.7549,2.7531,2.7581,2.7563,2.7531,2.7496,2.7479,2.7429,2.7367,2.6845,2.5834,2.6265,2.674,2.723,2.7374,2.7173,2.7031,2.7068,2.6888,2.6758,2.6708,2.659,2.6385,2.6178,2.5903,2.5156,2.4688,2.4009,2.2863,2.2409,2.1988,2.1342,2.094,2.0842,2.0761,2.0777,2.0661,2.044,2.0339,2.022,2.008,1.9922,1.9797,1.9797,1.9744,1.9723,1.9723,1.9723,1.9723,1.9723,1.9723,1.9723,1.9723,1.9723,1.9723,1.9723,1.9723,1.9723,1.9723,1.9723,1.9723,1.9723,1.9723,1.9723,1.9723,1.9723,1.9723,1.9723,1.9723,1.9723,1.9723,1.9723,1.9723,1.9723,1.9723,1.9723,3.4925,3.4925,3.4925,3.4853,3.4817,3.4835,3.471,3.448,3.4462,3.4304,3.4022,3.3512,3.3266,3.3213,3.2686,3.2388,3.2389,3.2302,3.2232,3.2179,3.2004,3.1969,3.2162,3.1987,3.1743,3.1446,3.094,3.0662,3.0576,2.9896,2.9252,2.861,2.8456,2.802,2.7616,2.7563,2.7526,2.7526,2.7542,2.7572,2.7572,2.7572,2.7539,2.7539,2.7572,2.7572,2.7554,2.7542,2.7404,2.7036,2.7106,2.7254,2.7357,2.7312,2.7198,2.7069,2.6924,2.6775,2.6708,2.6606,2.6485,2.6327,2.6203,2.5977,2.5489,2.4899,2.4351,2.3594,2.2831,2.1994,2.1605,2.1061,2.0723,2.0542,2.0509,2.0458,2.0339,2.0235,2.008,1.9904,1.9833,1.978,1.9744,1.9708,1.9723,1.9723,1.9723,1.9723,1.9723,1.9723,1.9723,1.9723,1.9723,1.9723,1.9723,1.9723,1.9723,1.9723,1.9723,1.9723,1.9723,1.9723,1.9723,1.9723,1.9723,1.9723,1.9723,1.9723,1.9723,1.9723,1.9723,1.9723,1.9723,1.9723,1.9723,3.5694,3.5656,3.5656,3.5636,3.5615,3.5598,3.5402,3.5084,3.503,3.4837,3.4523,3.4103,3.3893,3.3822,3.3438,3.3192,3.3102,3.2789,3.2614,3.2526,3.2194,3.2055,3.209,3.209,3.209,3.2056,3.162,3.1394,3.1185,3.0577,2.9953,2.9538,2.9122,2.8619,2.7943,2.7905,2.773,2.7537,2.7465,2.7496,2.7496,2.7496,2.7496,2.7496,2.7496,2.7496,2.7467,2.7452,2.7452,2.745,2.7434,2.7388,2.7296,2.7198,2.7103,2.694,2.6775,2.6657,2.6538,2.6417,2.631,2.6132,2.6041,2.584,2.5572,2.5107,2.4716,2.4,2.3224,2.2517,2.1731,2.1033,2.0571,2.0405,2.0304,2.027,2.022,2.0131,1.9975,1.9833,1.9762,1.9759,1.9723,1.9723,1.9723,1.9723,1.9723,1.9723,1.9723,1.9723,1.9723,1.9723,1.9723,1.9723,1.9723,1.9723,1.9723,1.9723,1.9723,1.9723,1.9723,1.9723,1.9723,1.9723,1.9723,1.9723,1.9723,1.9723,1.9723,1.9723,1.9723,1.9723,1.9723,1.9723,1.9723,3.6766,3.6702,3.6702,3.6719,3.667,3.6684,3.6217,3.5727,3.5643,3.5327,3.484,3.4594,3.4546,3.4525,3.4267,3.4333,3.4245,3.3568,3.3341,3.3078,3.2711,3.2398,3.2505,3.2141,3.2054,3.2037,3.2055,3.1932,3.1652,3.1149,3.0819,3.0421,2.9868,2.9248,2.8625,2.8468,2.812,2.7686,2.7506,2.7467,2.7467,2.745,2.7467,2.7434,2.7402,2.739,2.736,2.7345,2.7329,2.7345,2.736,2.7264,2.7136,2.7086,2.6957,2.6758,2.6657,2.6504,2.6347,2.624,2.6097,2.5936,2.5731,2.5562,2.5489,2.5259,2.4882,2.4207,2.3948,2.3022,2.1793,2.0922,2.0543,2.0383,2.0202,2.015,2.0098,2.0043,1.9937,1.9812,1.9741,1.9723,1.9723,1.9723,1.9723,1.9723,1.9723,1.9723,1.9723,1.9723,1.9723,1.9723,1.9723,1.9723,1.9723,1.9723,1.9723,1.9723,1.9723,1.9723,1.9723,1.9723,1.9723,1.9723,1.9723,1.9723,1.9723,1.9723,1.9723,1.9723,1.9723,1.9723,1.9723,1.9723,1.9723,3.6705,3.6719,3.6719,3.6719,3.6719,3.6702,3.6597,3.6423,3.6403,3.6246,3.6055,3.5533,3.5272,3.522,3.4749,3.4347,3.4356,3.4096,3.3973,3.3878,3.3773,3.3615,3.336,3.2583,3.1942,3.1943,3.1909,3.1855,3.1733,3.1595,3.1249,3.0731,3.0575,3.0058,2.9334,2.8816,2.8401,2.8107,2.7674,2.7431,2.7397,2.7345,2.7345,2.7312,2.7247,2.7168,2.7122,2.7089,2.7089,2.7088,2.712,2.7104,2.7006,2.6891,2.6758,2.664,2.6434,2.6293,2.6221,2.6043,2.5879,2.5712,2.5619,2.5502,2.5204,2.5182,2.4981,2.4556,2.4119,2.3211,2.1856,2.1283,2.0923,2.058,2.0362,2.0229,2.0058,1.9935,1.9833,1.9744,1.9708,1.9723,1.9723,1.9723,1.9723,1.9723,1.9723,1.9723,1.9723,1.9723,1.9723,1.9723,1.9723,1.9723,1.9723,1.9723,1.9723,1.9723,1.9723,1.9723,1.9723,1.9723,1.9723,1.9723,1.9723,1.9723,1.9723,1.9723,1.9723,1.9723,1.9723,1.9723,1.9723,1.9723,1.9723,3.6564,3.6506,3.6523,3.6523,3.6502,3.6506,3.6523,3.6523,3.6523,3.6502,3.6416,3.6017,3.5879,3.5844,3.548,3.525,3.5091,3.4794,3.4446,3.4165,3.4079,3.4079,3.4027,3.3337,3.2714,3.2369,3.1938,3.1817,3.18,3.1783,3.1576,3.1248,3.1214,3.08,3.0162,2.9627,2.93,2.8784,2.8146,2.7751,2.7685,2.7308,2.7154,2.7154,2.7105,2.704,2.7024,2.7008,2.6942,2.6892,2.6891,2.6891,2.6875,2.6741,2.664,2.6452,2.6311,2.615,2.6043,2.5879,2.5712,2.5597,2.5467,2.5298,2.5107,2.5029,2.4886,2.4684,2.4275,2.3589,2.2461,2.1911,2.1565,2.1285,2.0898,2.0656,2.0472,2.0152,1.9833,1.9744,1.9723,1.9723,1.9723,1.9723,1.9723,1.9723,1.9723,1.9723,1.9723,1.9723,1.9723,1.9723,1.9723,1.9723,1.9723,1.9723,1.9723,1.9723,1.9723,1.9723,1.9723,1.9723,1.9723,1.9723,1.9723,1.9723,1.9723,1.9723,1.9723,1.9723,1.9723,1.9723,1.9723,1.9723,1.9723,3.6402,3.6284,3.6284,3.6284,3.6284,3.6305,3.6305,3.6284,3.6284,3.6305,3.6284,3.6284,3.6222,3.6232,3.6236,3.6249,3.6077,3.568,3.5097,3.4714,3.47,3.47,3.4579,3.4303,3.3869,3.3179,3.2438,3.2076,3.2007,3.1852,3.1748,3.1765,3.173,3.1349,3.0902,3.0626,3.0194,2.9505,2.8819,2.839,2.8203,2.7639,2.7246,2.6958,2.6941,2.6892,2.6876,2.6859,2.6826,2.6691,2.6657,2.6641,2.6624,2.6607,2.6521,2.6221,2.615,2.6023,2.586,2.5694,2.5562,2.5524,2.5298,2.5107,2.5009,2.4906,2.4766,2.4625,2.4353,2.4055,2.3368,2.2778,2.2428,2.2147,2.1627,2.1341,2.1152,2.0685,2.0376,1.9762,1.9726,1.9741,1.9723,1.9723,1.9723,1.9723,1.9723,1.9723,1.9723,1.9723,1.9723,1.9723,1.9723,1.9723,1.9723,1.9723,1.9723,1.9723,1.9723,1.9723,1.9723,1.9723,1.9723,1.9723,1.9723,1.9723,1.9723,1.9723,1.9723,1.9723,1.9723,1.9723,1.9723,1.9723,1.9723,3.6322,3.6284,3.6284,3.6284,3.6284,3.6284,3.6284,3.6284,3.6284,3.6284,3.6284,3.6284,3.6284,3.6284,3.6284,3.6284,3.6232,3.6008,3.5921,3.5749,3.5732,3.5732,3.5594,3.5214,3.4904,3.4473,3.3505,3.2798,3.2559,3.2145,3.1954,3.1816,3.169,3.1462,3.1238,3.0839,3.0495,3.015,2.9467,2.9057,2.8817,2.8254,2.7488,2.6995,2.6877,2.6759,2.6606,2.6606,2.6571,2.652,2.652,2.6434,2.6329,2.6293,2.6239,2.615,2.5936,2.5789,2.5656,2.5508,2.5339,2.5208,2.5111,2.4989,2.4886,2.4822,2.4681,2.4523,2.4374,2.4061,2.3363,2.3209,2.2871,2.2486,2.2236,2.206,2.1988,2.172,2.1188,2.0322,2.0041,1.9927,2.0074,2.007,1.9981,1.9902,1.9783,1.9753,1.9723,1.9723,1.9723,1.9723,1.9723,1.9723,1.9723,1.9723,1.9723,1.9723,1.9723,1.9723,1.9723,1.9723,1.9723,1.9723,1.9723,1.9723,1.9723,1.9723,1.9723,1.9723,1.9723,1.9723,1.9723,1.9723,1.9723,3.6284,3.6284,3.6284,3.6284,3.6284,3.6284,3.6284,3.6284,3.6284,3.6284,3.6284,3.6284,3.6284,3.6284,3.6284,3.6284,3.6284,3.6284,3.6284,3.6284,3.6284,3.6284,3.6262,3.5845,3.5773,3.539,3.4524,3.3699,3.3377,3.2689,3.2326,3.2095,3.1798,3.154,3.1506,3.1211,3.0912,3.0651,3.007,2.9573,2.9413,2.8735,2.7956,2.7364,2.706,2.689,2.6536,2.6485,2.645,2.6379,2.6345,2.6239,2.6097,2.5989,2.5952,2.5917,2.577,2.5602,2.5489,2.5339,2.5188,2.5111,2.5029,2.4906,2.4802,2.4701,2.458,2.4421,2.4359,2.4194,2.3871,2.381,2.3656,2.3379,2.304,2.2805,2.2709,2.2474,2.1858,2.1147,2.1152,2.1095,2.0847,2.0723,2.0389,2.0145,1.9932,1.9887,1.9872,1.9917,2.0007,1.9962,1.9992,1.9932,1.9917,1.9869,1.9753,1.9723,1.9723,1.9723,1.9705,1.9705,1.9723,1.9723,1.9723,1.9687,1.9723,1.9723,1.9723,1.9723,1.9723,1.9723,1.9723,1.9723,1.9794,3.6284,3.6284,3.6284,3.6284,3.6284,3.6284,3.6284,3.6284,3.6284,3.6284,3.6284,3.6284,3.6284,3.6284,3.6284,3.6284,3.6284,3.6284,3.6301,3.6259,3.6259,3.6259,3.6216,3.6191,3.6058,3.5887,3.5467,3.4757,3.4065,3.3328,3.2963,3.2664,3.2078,3.1662,3.1679,3.1397,3.1336,3.1021,3.0625,3.0121,2.9635,2.9106,2.8452,2.7683,2.7498,2.7113,2.6677,2.6394,2.6274,2.6185,2.6132,2.6043,2.5897,2.577,2.568,2.5626,2.5584,2.5489,2.5339,2.5224,2.5091,2.5009,2.4886,2.4802,2.4701,2.458,2.4436,2.4317,2.4281,2.4302,2.4189,2.4251,2.4235,2.4133,2.3763,2.3471,2.3379,2.3205,2.3001,2.2581,2.2491,2.212,2.1734,2.1362,2.1012,2.0929,2.073,2.0651,2.0621,2.0498,2.0498,2.0378,2.0318,2.0213,2.0168,2.0109,1.9914,1.9723,1.9723,1.9723,1.9705,1.969,1.9717,1.9773,1.9599,1.9581,1.965,1.9738,1.9723,1.9723,1.9723,1.9828,2.0019,2.0117,2.0169,3.6284,3.6284,3.6284,3.6284,3.6284,3.6284,3.6284,3.6284,3.6284,3.6284,3.6284,3.6284,3.6284,3.6284,3.6284,3.6284,3.6284,3.6262,3.6255,3.6208,3.6208,3.6148,3.6062,3.6041,3.5997,3.5958,3.5856,3.545,3.4707,3.3939,3.3584,3.3352,3.27,3.2195,3.2124,3.157,3.0989,3.0932,3.0831,3.0422,2.9841,2.9526,2.8998,2.8274,2.767,2.7217,2.6916,2.6504,2.6104,2.6052,2.595,2.5846,2.5735,2.5659,2.5562,2.5489,2.5413,2.5355,2.5169,2.5088,2.5009,2.4906,2.4802,2.4701,2.4564,2.4441,2.4338,2.4317,2.4281,2.4281,2.4281,2.4281,2.4281,2.4266,2.4128,2.4051,2.404,2.3794,2.3605,2.3615,2.3417,2.2862,2.2352,2.1991,2.1682,2.1613,2.1549,2.1419,2.128,2.1096,2.1051,2.0946,2.0887,2.0797,2.0635,2.0546,2.0352,1.9982,1.9952,1.9952,2.005,2.0102,1.9849,1.9827,1.9712,1.979,1.9998,2.0023,1.9824,1.9896,2.0124,2.0322,2.0528,2.0576,2.0584,3.6284,3.6284,3.6284,3.6284,3.6284,3.6284,3.6284,3.6284,3.6284,3.6284,3.6284,3.6284,3.6284,3.628,3.6276,3.6233,3.6212,3.6152,3.6127,3.6101,3.6079,3.6058,3.6014,3.5927,3.5861,3.5795,3.5711,3.5498,3.4962,3.4524,3.4143,3.3901,3.3199,3.269,3.2643,3.1905,3.1512,3.1204,3.08,3.0357,3.0067,2.9894,2.9556,2.8787,2.8385,2.7964,2.747,2.6864,2.6482,2.6346,2.6083,2.5698,2.5586,2.5489,2.5413,2.5243,2.5224,2.5185,2.5107,2.5005,2.4906,2.4802,2.4701,2.4559,2.4416,2.4338,2.4281,2.4281,2.4281,2.4281,2.4281,2.4281,2.4281,2.4281,2.4281,2.4281,2.4281,2.4281,2.4158,2.4251,2.4251,2.3616,2.3061,2.2742,2.244,2.232,2.2079,2.1759,2.1655,2.1485,2.1485,2.153,2.1485,2.1436,2.1252,2.1109,2.1006,2.0754,2.0734,2.0734,2.07,2.0636,2.0385,2.0425,2.0627,2.0651,2.0561,2.0387,2.0258,2.0417,2.0616,2.0817,2.1,2.106,2.1084,3.6284,3.6284,3.6284,3.6284,3.6284,3.6284,3.6284,3.6284,3.6284,3.6284,3.6301,3.628,3.6259,3.6216,3.617,3.6144,3.6144,3.6041,3.5975,3.5971,3.5927,3.5883,3.5817,3.5706,3.5616,3.5526,3.5498,3.5379,3.5205,3.4869,3.4555,3.4482,3.3706,3.33,3.3022,3.2479,3.1905,3.1401,3.0645,3.0253,3.0182,3.0135,2.984,2.9443,2.9111,2.878,2.8208,2.7486,2.7085,2.6623,2.6259,2.5859,2.5535,2.5359,2.5262,2.5146,2.5127,2.5088,2.5009,2.4926,2.4802,2.4701,2.46,2.4436,2.4338,2.4281,2.4281,2.4281,2.4281,2.4281,2.4281,2.4281,2.4281,2.4281,2.4281,2.4281,2.4281,2.4281,2.4281,2.4281,2.4281,2.4281,2.3815,2.3488,2.3233,2.306,2.2686,2.2209,2.2113,2.2084,2.2198,2.2312,2.2306,2.2161,2.1812,2.1662,2.1556,2.1456,2.1421,2.1318,2.1171,2.1127,2.096,2.1151,2.1345,2.1331,2.1125,2.0936,2.074,2.0848,2.1015,2.1285,2.1456,2.1548,2.1656,3.6284,3.6284,3.6301,3.6284,3.6284,3.6284,3.6284,3.628,3.6284,3.628,3.6259,3.6233,3.6144,3.6062,3.6019,3.5997,3.5997,3.5997,3.5905,3.5773,3.5706,3.5616,3.5566,3.5475,3.536,3.5337,3.5291,3.5291,3.5228,3.4908,3.4951,3.5061,3.4205,3.3904,3.3514,3.2927,3.2144,3.1517,3.0691,3.031,3.0223,3.013,2.9951,2.9767,2.9248,2.8783,2.8718,2.8053,2.7502,2.6976,2.6642,2.6095,2.566,2.5451,2.5321,2.5103,2.5048,2.5025,2.4985,2.4866,2.471,2.4605,2.4462,2.4338,2.4281,2.4281,2.4281,2.4281,2.4281,2.4281,2.4281,2.4281,2.4281,2.4281,2.4281,2.4281,2.4281,2.4281,2.4281,2.4281,2.4281,2.4281,2.4219,2.3834,2.369,2.3495,2.3312,2.2877,2.3011,2.3005,2.3127,2.3225,2.3227,2.2954,2.2368,2.2186,2.2085,2.189,2.1745,2.1612,2.1463,2.1421,2.1551,2.1493,2.1625,2.1684,2.1742,2.1566,2.1409,2.1292,2.1416,2.1773,2.2016,2.2127,2.2287,3.6284,3.6284,3.6255,3.6276,3.6284,3.6284,3.6276,3.6251,3.6251,3.6191,3.611,3.6101,3.6058,3.5975,3.5905,3.5822,3.5756,3.5723,3.565,3.5503,3.5435,3.5406,3.5354,3.5375,3.5268,3.5225,3.5138,3.4994,3.4899,3.4756,3.4715,3.4631,3.44,3.4369,3.3961,3.3332,3.2544,3.1844,3.1108,3.0656,3.0536,3.0146,2.9946,2.9875,2.9778,2.9491,2.9399,2.8762,2.8262,2.7812,2.7364,2.6687,2.6042,2.5831,2.5532,2.5191,2.5069,2.5037,2.4946,2.4806,2.4589,2.4446,2.4343,2.4281,2.4281,2.4281,2.4281,2.4281,2.4281,2.4281,2.4281,2.4281,2.4281,2.4281,2.4281,2.4281,2.4281,2.4281,2.4281,2.4281,2.4281,2.4281,2.4198,2.4084,2.4,2.3915,2.3745,2.3595,2.3588,2.3545,2.3516,2.3429,2.3363,2.329,2.2717,2.2637,2.2593,2.2338,2.2098,2.1997,2.1909,2.212,2.219,2.2032,2.1939,2.2097,2.2169,2.2184,2.2084,2.1967,2.2069,2.2308,2.2525,2.261,2.2583,3.6195,3.6212,3.6165,3.6208,3.6276,3.6216,3.6191,3.6144,3.6144,3.6058,3.5932,3.591,3.5883,3.5817,3.5706,3.5616,3.5526,3.5492,3.5568,3.5616,3.5629,3.5649,3.5735,3.5756,3.5768,3.5495,3.5232,3.5094,3.5078,3.4636,3.4489,3.4448,3.4399,3.4366,3.4211,3.3624,3.2933,3.2382,3.1718,3.1066,3.0872,3.049,3.0026,2.9977,2.9848,2.9832,2.9734,2.9302,2.8877,2.8474,2.7966,2.7337,2.6818,2.637,2.6027,2.5591,2.5286,2.5223,2.4989,2.4751,2.4508,2.4364,2.4302,2.4281,2.4281,2.4281,2.4281,2.4281,2.4281,2.4281,2.4281,2.4281,2.4281,2.4281,2.4281,2.4281,2.4281,2.4281,2.4281,2.4281,2.4297,2.4297,2.4172,2.4051,2.3903,2.3839,2.3717,2.3588,2.356,2.3516,2.3444,2.3356,2.3231,2.3112,2.2986,2.2773,2.259,2.256,2.2377,2.247,2.2483,2.2592,2.2592,2.2403,2.2374,2.2535,2.2478,2.2314,2.2446,2.2606,2.262,2.2497,2.2472,2.2483,2.2383,3.6019,3.6014,3.598,3.6062,3.6144,3.6062,3.6019,3.5997,3.5993,3.5888,3.5773,3.5667,3.5594,3.552,3.5429,3.536,3.5364,3.5392,3.5589,3.5969,3.6016,3.634,3.6505,3.6519,3.6271,3.6331,3.5955,3.557,3.5463,3.4831,3.4504,3.4275,3.4226,3.4226,3.4219,3.351,3.3137,3.2991,3.2336,3.172,3.1276,3.1017,3.0619,3.0182,3.0091,3.0107,2.9804,2.9673,2.9231,2.8758,2.8531,2.7949,2.7296,2.7131,2.6741,2.6088,2.6009,2.5693,2.514,2.4825,2.4668,2.4405,2.4323,2.4281,2.4281,2.4281,2.4281,2.4281,2.4281,2.4281,2.4281,2.4281,2.4281,2.4281,2.4281,2.4281,2.4281,2.4281,2.4281,2.4297,2.4297,2.4255,2.413,2.3982,2.3797,2.3674,2.3616,2.3566,2.3546,2.34,2.329,2.3187,2.3053,2.2955,2.2834,2.2729,2.2595,2.2615,2.2569,2.25,2.2477,2.2394,2.244,2.2546,2.2463,2.2324,2.2347,2.2365,2.2408,2.2408,2.25,2.2434,2.2394,2.2278,2.2161,3.6014,3.5997,3.5905,3.5839,3.5839,3.5971,3.5954,3.5861,3.5723,3.5588,3.5498,3.5412,3.5406,3.5337,3.5291,3.5198,3.5124,3.5666,3.6007,3.5886,3.6231,3.6476,3.6711,3.6816,3.6682,3.6542,3.6212,3.585,3.5435,3.4982,3.4574,3.428,3.4126,3.4109,3.4118,3.385,3.3777,3.3631,3.3097,3.2579,3.2319,3.1866,3.1316,3.0635,3.0554,3.0305,2.9883,2.9784,2.9438,2.9064,2.8898,2.8535,2.7945,2.7762,2.7431,2.6893,2.6735,2.6614,2.6299,2.6056,2.5456,2.488,2.4467,2.4456,2.4327,2.4297,2.4281,2.4327,2.4404,2.4389,2.4281,2.4281,2.4281,2.4281,2.4281,2.4281,2.4281,2.4281,2.4297,2.4276,2.4276,2.4176,2.4043,2.4232,2.4124,2.3903,2.3837,2.3658,2.3562,2.3253,2.3031,2.2963,2.2851,2.2775,2.2666,2.2799,2.2725,2.2649,2.2447,2.2231,2.217,2.224,2.2123,2.2147,2.21,2.2053,2.2067,2.2067,2.2044,2.2044,2.2091,2.2114,2.203,2.1949,2.1855,3.554,3.5751,3.5661,3.5571,3.5549,3.5728,3.5751,3.5633,3.5475,3.536,3.5291,3.5222,3.5175,3.5128,3.5041,3.497,3.4862,3.5522,3.6116,3.6004,3.6597,3.7088,3.7273,3.7187,3.7378,3.7144,3.683,3.6458,3.6143,3.548,3.4822,3.4271,3.4101,3.4101,3.4084,3.4068,3.4052,3.3906,3.355,3.3259,3.2951,3.2546,3.2028,3.1406,3.0978,3.0616,3.0139,2.9791,2.9541,2.9366,2.918,2.9007,2.8575,2.8363,2.8094,2.7668,2.7194,2.7087,2.6881,2.6779,2.6133,2.5507,2.5126,2.5025,2.5041,2.5179,2.5164,2.5087,2.4773,2.4681,2.465,2.462,2.4404,2.4404,2.442,2.442,2.4404,2.442,2.4414,2.4378,2.4325,2.4207,2.4195,2.4402,2.4552,2.432,2.4103,2.3888,2.3695,2.3411,2.3219,2.3204,2.3173,2.3203,2.3168,2.3118,2.2993,2.2714,2.2522,2.2317,2.2168,2.2227,2.1979,2.1793,2.1841,2.1864,2.1759,2.1712,2.1664,2.1592,2.1544,2.1592,2.1626,2.1602,2.1568,3.4684,3.523,3.5274,3.5314,3.5291,3.5383,3.54,3.5291,3.5291,3.5268,3.5245,3.497,3.4899,3.4835,3.4659,3.4562,3.4767,3.5374,3.5987,3.663,3.7193,3.7785,3.817,3.8216,3.8054,3.7966,3.7695,3.7221,3.708,3.5843,3.4813,3.4327,3.4165,3.4117,3.4101,3.4101,3.4101,3.4036,3.3971,3.3663,3.3364,3.3161,3.2708,3.2118,3.156,3.1135,3.064,3.0124,2.969,2.9409,2.9222,2.9137,2.9082,2.9098,2.8672,2.8189,2.7573,2.744,2.7371,2.7331,2.7143,2.676,2.6583,2.6509,2.6195,2.5995,2.5918,2.5826,2.5626,2.5456,2.5349,2.4995,2.4656,2.4671,2.4671,2.4656,2.4625,2.4599,2.4608,2.456,2.4521,2.4522,2.4739,2.4896,2.4942,2.469,2.4491,2.4398,2.4176,2.3911,2.3789,2.3867,2.3847,2.3842,2.373,2.3484,2.33,2.3059,2.2909,2.2719,2.2528,2.2272,2.2048,2.1887,2.178,2.1664,2.1496,2.1375,2.1264,2.1204,2.1229,2.1253,2.1375,2.1399,2.1326,3.4348,3.4577,3.5073,3.5182,3.4994,3.4851,3.4851,3.4994,3.4994,3.4923,3.4715,3.4643,3.4618,3.4611,3.4546,3.4448,3.4847,3.5482,3.6082,3.6744,3.7465,3.8059,3.8383,3.842,3.8391,3.8343,3.8116,3.776,3.7096,3.5898,3.5228,3.4903,3.4311,3.4165,3.4101,3.4101,3.4101,3.4101,3.4101,3.3939,3.3809,3.3728,3.3307,3.2797,3.2313,3.1847,3.1285,3.0591,3.0132,2.9935,2.9413,2.9146,2.9114,2.9114,2.8909,2.8861,2.8625,2.8546,2.8507,2.8369,2.8199,2.8022,2.7922,2.7249,2.681,2.6503,2.6518,2.6503,2.6349,2.6149,2.5995,2.5703,2.5441,2.5395,2.5389,2.5389,2.5351,2.5286,2.5258,2.5163,2.5105,2.5093,2.5305,2.5334,2.5329,2.5072,2.4931,2.4865,2.4683,2.4404,2.4348,2.4445,2.4311,2.4241,2.3915,2.3656,2.3539,2.3393,2.3271,2.3123,2.2923,2.2641,2.226,2.1923,2.1678,2.1407,2.1193,2.1082,2.1071,2.1057,2.1071,2.1095,2.1095,2.1144,2.112,3.345,3.3914,3.4346,3.4618,3.4699,3.457,3.457,3.4683,3.4732,3.4643,3.4497,3.4448,3.4423,3.4423,3.4349,3.4333,3.4356,3.524,3.5961,3.6615,3.7485,3.7987,3.8262,3.8391,3.8391,3.8391,3.8359,3.8132,3.7388,3.6384,3.5574,3.5098,3.4457,3.4182,3.4101,3.4101,3.4101,3.4101,3.4101,3.4101,3.4075,3.4066,3.3734,3.3419,3.3037,3.2447,3.1965,3.119,3.0799,3.052,2.9888,2.954,2.9446,2.9319,2.9114,2.9051,2.9035,2.8972,2.8949,2.8942,2.8881,2.8811,2.8692,2.8186,2.7697,2.738,2.7349,2.7303,2.7026,2.678,2.6657,2.6534,2.6411,2.6287,2.6258,2.6251,2.6183,2.6115,2.6024,2.5902,2.5845,2.5789,2.5804,2.5781,2.5808,2.5814,2.5672,2.5471,2.5199,2.4864,2.4874,2.501,2.4743,2.4515,2.4214,2.4024,2.4027,2.3946,2.3716,2.3554,2.3326,2.2949,2.2466,2.1958,2.1454,2.1259,2.1114,2.1012,2.0974,2.0961,2.0923,2.0898,2.0936,2.0974,2.0899,3.222,3.3226,3.3343,3.3874,3.4448,3.4489,3.4382,3.43,3.4423,3.4448,3.4423,3.4366,3.4275,3.4275,3.4201,3.4151,3.4352,3.5001,3.5649,3.627,3.7069,3.7684,3.8084,3.8375,3.8391,3.8391,3.8343,3.8213,3.7873,3.6869,3.5768,3.5211,3.4457,3.4117,3.4101,3.4101,3.4075,3.405,3.405,3.405,3.4025,3.3991,3.3873,3.3703,3.3217,3.2627,3.2408,3.1935,3.141,3.1114,3.0717,3.0291,2.9911,2.9461,2.9209,2.9114,2.9114,2.9114,2.9091,2.9052,2.8951,2.885,2.8755,2.8504,2.8144,2.798,2.7934,2.7888,2.7626,2.7503,2.7396,2.7195,2.7034,2.698,2.6933,2.6925,2.6855,2.6723,2.6533,2.6411,2.6302,2.6267,2.6226,2.6196,2.5986,2.628,2.622,2.59,2.5584,2.5181,2.5171,2.5327,2.5094,2.4806,2.475,2.4585,2.4678,2.4553,2.4201,2.4024,2.3876,2.3325,2.2658,2.2153,2.1676,2.1319,2.1121,2.1018,2.0902,2.085,2.0812,2.0737,2.0763,2.088,2.0935,3.1527,3.1909,3.284,3.3681,3.4276,3.425,3.4176,3.4151,3.4176,3.4201,3.4176,3.4176,3.4151,3.4151,3.4126,3.4101,3.4262,3.47,3.5244,3.5849,3.6627,3.7134,3.7651,3.8051,3.8278,3.8391,3.8327,3.8068,3.7549,3.6724,3.5914,3.5211,3.4473,3.4101,3.4075,3.4075,3.405,3.3949,3.3949,3.3924,3.3924,3.3924,3.3857,3.3713,3.3304,3.3204,3.2936,3.252,3.2184,3.1928,3.1302,3.0749,3.022,2.9509,2.9177,2.913,2.9161,2.9114,2.9091,2.9029,2.8912,2.8803,2.8723,2.8565,2.8429,2.8436,2.8381,2.831,2.8249,2.8141,2.801,2.7808,2.7638,2.7605,2.7533,2.7485,2.7437,2.7203,2.6981,2.6861,2.6725,2.6656,2.6596,2.646,2.631,2.6177,2.6055,2.5824,2.5605,2.5246,2.5136,2.5204,2.5218,2.505,2.5005,2.4863,2.4778,2.4692,2.4381,2.4326,2.4325,2.3627,2.2894,2.2432,2.1996,2.1667,2.1325,2.0985,2.0894,2.0986,2.0975,2.1042,2.0978,2.1043,2.1121,3.0881,3.1271,3.2592,3.3397,3.3746,3.398,3.4101,3.4101,3.4101,3.4101,3.4101,3.4101,3.4101,3.4101,3.4101,3.4101,3.4165,3.4489,3.491,3.5461,3.5914,3.6432,3.6999,3.7566,3.7732,3.7878,3.789,3.7614,3.7112,3.6254,3.5471,3.5098,3.4489,3.4075,3.4025,3.4,3.3949,3.3822,3.3813,3.3787,3.3745,3.372,3.3694,3.3581,3.3503,3.3424,3.3319,3.295,3.2845,3.256,3.207,3.1365,3.0733,3.0038,2.9674,2.9516,2.9351,2.9114,2.9068,2.8982,2.8865,2.8779,2.866,2.8541,2.8308,2.8299,2.8299,2.8229,2.8229,2.8137,2.8055,2.7899,2.7859,2.7835,2.7648,2.7525,2.741,2.721,2.7007,2.6847,2.6727,2.6649,2.652,2.624,2.6098,2.6016,2.588,2.5647,2.5439,2.5285,2.5159,2.5061,2.5033,2.5005,2.4892,2.475,2.4635,2.4549,2.4463,2.4366,2.4176,2.3681,2.3152,2.2796,2.2455,2.2088,2.1734,2.1459,2.1511,2.1721,2.1577,2.142,2.1341,2.1287,2.1491,3.0368,3.105,3.2255,3.2935,3.3161,3.3696,3.402,3.4084,3.4101,3.4101,3.4101,3.4101,3.4101,3.4101,3.4101,3.4101,3.4149,3.4246,3.4586,3.4862,3.5211,3.572,3.627,3.6821,3.7053,3.7166,3.7193,3.7048,3.674,3.5866,3.5234,3.4975,3.4503,3.3984,3.3899,3.3848,3.3813,3.371,3.3658,3.3607,3.3555,3.3487,3.3503,3.345,3.3372,3.3293,3.3293,3.3293,3.3277,3.2977,3.2576,3.1991,3.1365,3.0701,3.0259,3.0006,2.9659,2.9351,2.9099,2.8936,2.8858,2.8755,2.8645,2.8453,2.8235,2.8162,2.8162,2.8113,2.8113,2.8113,2.8029,2.793,2.793,2.7905,2.769,2.7448,2.7295,2.7141,2.6974,2.6779,2.6647,2.6527,2.6313,2.6029,2.588,2.5798,2.5661,2.5397,2.5202,2.5118,2.5005,2.4892,2.4778,2.475,2.4708,2.4635,2.4492,2.4376,2.4274,2.4187,2.4063,2.3804,2.3539,2.3341,2.3001,2.2596,2.24,2.2191,2.2309,2.2308,2.2018,2.1742,2.1696,2.1703,2.1987,3.0301,3.0937,3.1228,3.1979,3.2983,3.3251,3.3582,3.4052,3.4084,3.4101,3.4101,3.4101,3.4101,3.4101,3.4101,3.4101,3.4101,3.4101,3.4101,3.4311,3.4839,3.5195,3.56,3.6125,3.6416,3.6529,3.6497,3.6157,3.6027,3.5461,3.481,3.4223,3.4159,3.3873,3.3745,3.3736,3.3684,3.3581,3.3529,3.3477,3.344,3.3414,3.344,3.3388,3.3293,3.3293,3.3293,3.3293,3.3293,3.3087,3.2724,3.2355,3.1918,3.1388,3.0882,3.0456,3.0093,2.9564,2.9289,2.8936,2.8771,2.8636,2.8477,2.8308,2.8137,2.8054,2.7965,2.7815,2.784,2.7955,2.788,2.7715,2.7665,2.759,2.7423,2.7181,2.6974,2.687,2.6727,2.65,2.6299,2.6192,2.6056,2.5811,2.5591,2.5508,2.5397,2.516,2.5061,2.4963,2.485,2.4708,2.4578,2.445,2.4379,2.4421,2.4319,2.4216,2.4128,2.4141,2.4112,2.4099,2.3903,2.3707,2.343,2.3091,2.2949,2.2869,2.2618,2.2511,2.2235,2.2023,2.205,2.2112,2.2353]}]]